<?xml version="1.0" encoding="UTF-8" standalone="no" ?>
<gpx xmlns="http://www.topografix.com/GPX/1/1" xmlns:xsi="http://www.w3.org/2001/XMLSchema-instance" xsi:schemaLocation="http://www.topografix.com/GPX/1/1 http://www.topografix.com/GPX/1/1/gpx.xsd" version="1.1" creator="VisuGPX - https://www.visugpx.com">
  <metadata>
    <name>Pralognan to Lac des Vaches</name>
    <desc><![CDATA[
With Roland. Long, steep traverse challenging ]]></desc>
  </metadata>
  <trk>
    <name><![CDATA[Pralognan to Lac des Vaches]]></name>
    <desc><![CDATA[With Roland. Long, steep traverse challenging ]]></desc>
    <trkseg>
      <trkpt lat="45.37958" lon="6.72243">
        <ele>1456.3</ele>
        <time>2020-03-16T07:51:14Z</time>
      </trkpt>
      <trkpt lat="45.3796" lon="6.72249">
        <ele>1461.6</ele>
        <time>2020-03-16T07:51:18Z</time>
      </trkpt>
      <trkpt lat="45.3796" lon="6.72247">
        <ele>1459</ele>
        <time>2020-03-16T07:51:20Z</time>
      </trkpt>
      <trkpt lat="45.37961" lon="6.72246">
        <ele>1458.9</ele>
        <time>2020-03-16T07:51:24Z</time>
      </trkpt>
      <trkpt lat="45.37961" lon="6.72247">
        <ele>1457.1</ele>
        <time>2020-03-16T07:51:25Z</time>
      </trkpt>
      <trkpt lat="45.37959" lon="6.72247">
        <ele>1447.1</ele>
        <time>2020-03-16T07:51:54Z</time>
      </trkpt>
      <trkpt lat="45.3796" lon="6.72254">
        <ele>1447</ele>
        <time>2020-03-16T07:51:55Z</time>
      </trkpt>
      <trkpt lat="45.37959" lon="6.72256">
        <ele>1445</ele>
        <time>2020-03-16T07:52:34Z</time>
      </trkpt>
      <trkpt lat="45.37958" lon="6.72253">
        <ele>1443.1</ele>
        <time>2020-03-16T07:52:46Z</time>
      </trkpt>
      <trkpt lat="45.37956" lon="6.72252">
        <ele>1435.9</ele>
        <time>2020-03-16T07:54:46Z</time>
      </trkpt>
      <trkpt lat="45.37953" lon="6.72257">
        <ele>1434.3</ele>
        <time>2020-03-16T07:55:13Z</time>
      </trkpt>
      <trkpt lat="45.37953" lon="6.72259">
        <ele>1434.2</ele>
        <time>2020-03-16T07:55:14Z</time>
      </trkpt>
      <trkpt lat="45.37953" lon="6.72261">
        <ele>1434.1</ele>
        <time>2020-03-16T07:55:15Z</time>
      </trkpt>
      <trkpt lat="45.37954" lon="6.72268">
        <ele>1433.4</ele>
        <time>2020-03-16T07:55:26Z</time>
      </trkpt>
      <trkpt lat="45.3796" lon="6.72273">
        <ele>1432.9</ele>
        <time>2020-03-16T07:55:34Z</time>
      </trkpt>
      <trkpt lat="45.37964" lon="6.7228">
        <ele>1432.6</ele>
        <time>2020-03-16T07:55:39Z</time>
      </trkpt>
      <trkpt lat="45.37965" lon="6.72281">
        <ele>1432.6</ele>
        <time>2020-03-16T07:55:40Z</time>
      </trkpt>
      <trkpt lat="45.37967" lon="6.72286">
        <ele>1432.4</ele>
        <time>2020-03-16T07:55:43Z</time>
      </trkpt>
      <trkpt lat="45.3797" lon="6.72291">
        <ele>1432.2</ele>
        <time>2020-03-16T07:55:46Z</time>
      </trkpt>
      <trkpt lat="45.37971" lon="6.72294">
        <ele>1432.1</ele>
        <time>2020-03-16T07:55:48Z</time>
      </trkpt>
      <trkpt lat="45.3797" lon="6.72297">
        <ele>1432</ele>
        <time>2020-03-16T07:55:52Z</time>
      </trkpt>
      <trkpt lat="45.3797" lon="6.72298">
        <ele>1431.9</ele>
        <time>2020-03-16T07:55:53Z</time>
      </trkpt>
      <trkpt lat="45.3797" lon="6.72301">
        <ele>1431.8</ele>
        <time>2020-03-16T07:55:56Z</time>
      </trkpt>
      <trkpt lat="45.37972" lon="6.72303">
        <ele>1431.7</ele>
        <time>2020-03-16T07:55:59Z</time>
      </trkpt>
      <trkpt lat="45.37974" lon="6.72313">
        <ele>1431.2</ele>
        <time>2020-03-16T07:56:10Z</time>
      </trkpt>
      <trkpt lat="45.37974" lon="6.72322">
        <ele>1431.1</ele>
        <time>2020-03-16T07:56:15Z</time>
      </trkpt>
      <trkpt lat="45.37975" lon="6.72323">
        <ele>1431.1</ele>
        <time>2020-03-16T07:56:16Z</time>
      </trkpt>
      <trkpt lat="45.37974" lon="6.7233">
        <ele>1431</ele>
        <time>2020-03-16T07:56:19Z</time>
      </trkpt>
      <trkpt lat="45.37975" lon="6.72341">
        <ele>1430.7</ele>
        <time>2020-03-16T07:56:32Z</time>
      </trkpt>
      <trkpt lat="45.37981" lon="6.72348">
        <ele>1430.6</ele>
        <time>2020-03-16T07:56:34Z</time>
      </trkpt>
      <trkpt lat="45.37982" lon="6.7235">
        <ele>1430.6</ele>
        <time>2020-03-16T07:56:35Z</time>
      </trkpt>
      <trkpt lat="45.37984" lon="6.72352">
        <ele>1430.6</ele>
        <time>2020-03-16T07:56:36Z</time>
      </trkpt>
      <trkpt lat="45.37988" lon="6.72358">
        <ele>1430.6</ele>
        <time>2020-03-16T07:56:38Z</time>
      </trkpt>
      <trkpt lat="45.37988" lon="6.72364">
        <ele>1430.5</ele>
        <time>2020-03-16T07:56:42Z</time>
      </trkpt>
      <trkpt lat="45.3799" lon="6.72372">
        <ele>1430.4</ele>
        <time>2020-03-16T07:56:46Z</time>
      </trkpt>
      <trkpt lat="45.3799" lon="6.72375">
        <ele>1430.4</ele>
        <time>2020-03-16T07:56:47Z</time>
      </trkpt>
      <trkpt lat="45.37992" lon="6.72381">
        <ele>1430.4</ele>
        <time>2020-03-16T07:56:51Z</time>
      </trkpt>
      <trkpt lat="45.37998" lon="6.72393">
        <ele>1430.3</ele>
        <time>2020-03-16T07:57:01Z</time>
      </trkpt>
      <trkpt lat="45.37999" lon="6.72396">
        <ele>1430.3</ele>
        <time>2020-03-16T07:57:02Z</time>
      </trkpt>
      <trkpt lat="45.38002" lon="6.72403">
        <ele>1430.3</ele>
        <time>2020-03-16T07:57:07Z</time>
      </trkpt>
      <trkpt lat="45.38003" lon="6.72406">
        <ele>1430.3</ele>
        <time>2020-03-16T07:57:11Z</time>
      </trkpt>
      <trkpt lat="45.38006" lon="6.72409">
        <ele>1430.3</ele>
        <time>2020-03-16T07:57:17Z</time>
      </trkpt>
      <trkpt lat="45.38006" lon="6.72413">
        <ele>1430.3</ele>
        <time>2020-03-16T07:57:19Z</time>
      </trkpt>
      <trkpt lat="45.38008" lon="6.72415">
        <ele>1430.3</ele>
        <time>2020-03-16T07:57:20Z</time>
      </trkpt>
      <trkpt lat="45.38009" lon="6.7242">
        <ele>1430.3</ele>
        <time>2020-03-16T07:57:24Z</time>
      </trkpt>
      <trkpt lat="45.38008" lon="6.72423">
        <ele>1430.3</ele>
        <time>2020-03-16T07:57:26Z</time>
      </trkpt>
      <trkpt lat="45.38009" lon="6.72436">
        <ele>1430.4</ele>
        <time>2020-03-16T07:57:35Z</time>
      </trkpt>
      <trkpt lat="45.3801" lon="6.7244">
        <ele>1430.4</ele>
        <time>2020-03-16T07:57:37Z</time>
      </trkpt>
      <trkpt lat="45.38011" lon="6.7244">
        <ele>1430.4</ele>
        <time>2020-03-16T07:57:38Z</time>
      </trkpt>
      <trkpt lat="45.38011" lon="6.72441">
        <ele>1430.4</ele>
        <time>2020-03-16T07:57:39Z</time>
      </trkpt>
      <trkpt lat="45.38016" lon="6.72453">
        <ele>1430.5</ele>
        <time>2020-03-16T07:57:51Z</time>
      </trkpt>
      <trkpt lat="45.38013" lon="6.72463">
        <ele>1430.6</ele>
        <time>2020-03-16T07:57:59Z</time>
      </trkpt>
      <trkpt lat="45.38012" lon="6.72465">
        <ele>1430.6</ele>
        <time>2020-03-16T07:58:00Z</time>
      </trkpt>
      <trkpt lat="45.3801" lon="6.72468">
        <ele>1430.7</ele>
        <time>2020-03-16T07:58:04Z</time>
      </trkpt>
      <trkpt lat="45.38011" lon="6.7247">
        <ele>1430.7</ele>
        <time>2020-03-16T07:58:07Z</time>
      </trkpt>
      <trkpt lat="45.3801" lon="6.72477">
        <ele>1430.7</ele>
        <time>2020-03-16T07:58:11Z</time>
      </trkpt>
      <trkpt lat="45.38012" lon="6.72483">
        <ele>1432.7</ele>
        <time>2020-03-16T08:01:41Z</time>
      </trkpt>
      <trkpt lat="45.38014" lon="6.72486">
        <ele>1433.2</ele>
        <time>2020-03-16T08:02:20Z</time>
      </trkpt>
      <trkpt lat="45.38015" lon="6.72487">
        <ele>1433.3</ele>
        <time>2020-03-16T08:02:21Z</time>
      </trkpt>
      <trkpt lat="45.38022" lon="6.72497">
        <ele>1434.2</ele>
        <time>2020-03-16T08:02:35Z</time>
      </trkpt>
      <trkpt lat="45.38025" lon="6.72507">
        <ele>1434.8</ele>
        <time>2020-03-16T08:02:46Z</time>
      </trkpt>
      <trkpt lat="45.38026" lon="6.72508">
        <ele>1434.9</ele>
        <time>2020-03-16T08:02:47Z</time>
      </trkpt>
      <trkpt lat="45.3803" lon="6.72516">
        <ele>1435.3</ele>
        <time>2020-03-16T08:02:56Z</time>
      </trkpt>
      <trkpt lat="45.38031" lon="6.72531">
        <ele>1435.9</ele>
        <time>2020-03-16T08:03:09Z</time>
      </trkpt>
      <trkpt lat="45.38032" lon="6.72532">
        <ele>1435.9</ele>
        <time>2020-03-16T08:03:10Z</time>
      </trkpt>
      <trkpt lat="45.38034" lon="6.72539">
        <ele>1436.2</ele>
        <time>2020-03-16T08:03:17Z</time>
      </trkpt>
      <trkpt lat="45.38036" lon="6.72545">
        <ele>1436.6</ele>
        <time>2020-03-16T08:03:26Z</time>
      </trkpt>
      <trkpt lat="45.38041" lon="6.72548">
        <ele>1436.8</ele>
        <time>2020-03-16T08:03:34Z</time>
      </trkpt>
      <trkpt lat="45.38042" lon="6.72553">
        <ele>1437</ele>
        <time>2020-03-16T08:03:38Z</time>
      </trkpt>
      <trkpt lat="45.38042" lon="6.72554">
        <ele>1437</ele>
        <time>2020-03-16T08:03:39Z</time>
      </trkpt>
      <trkpt lat="45.38046" lon="6.7257">
        <ele>1437.9</ele>
        <time>2020-03-16T08:03:59Z</time>
      </trkpt>
      <trkpt lat="45.3805" lon="6.72576">
        <ele>1438.1</ele>
        <time>2020-03-16T08:04:05Z</time>
      </trkpt>
      <trkpt lat="45.38052" lon="6.72577">
        <ele>1438.2</ele>
        <time>2020-03-16T08:04:06Z</time>
      </trkpt>
      <trkpt lat="45.38054" lon="6.72583">
        <ele>1438.5</ele>
        <time>2020-03-16T08:04:13Z</time>
      </trkpt>
      <trkpt lat="45.38057" lon="6.72585">
        <ele>1438.6</ele>
        <time>2020-03-16T08:04:16Z</time>
      </trkpt>
      <trkpt lat="45.3806" lon="6.7259">
        <ele>1438.9</ele>
        <time>2020-03-16T08:04:23Z</time>
      </trkpt>
      <trkpt lat="45.38062" lon="6.72598">
        <ele>1439.4</ele>
        <time>2020-03-16T08:04:35Z</time>
      </trkpt>
      <trkpt lat="45.38063" lon="6.72599">
        <ele>1439.4</ele>
        <time>2020-03-16T08:04:36Z</time>
      </trkpt>
      <trkpt lat="45.38065" lon="6.72602">
        <ele>1439.7</ele>
        <time>2020-03-16T08:04:41Z</time>
      </trkpt>
      <trkpt lat="45.38065" lon="6.72616">
        <ele>1440.4</ele>
        <time>2020-03-16T08:04:56Z</time>
      </trkpt>
      <trkpt lat="45.38068" lon="6.72622">
        <ele>1440.8</ele>
        <time>2020-03-16T08:05:04Z</time>
      </trkpt>
      <trkpt lat="45.38069" lon="6.72622">
        <ele>1440.8</ele>
        <time>2020-03-16T08:05:05Z</time>
      </trkpt>
      <trkpt lat="45.38071" lon="6.72625">
        <ele>1441.1</ele>
        <time>2020-03-16T08:05:10Z</time>
      </trkpt>
      <trkpt lat="45.38072" lon="6.72632">
        <ele>1441.5</ele>
        <time>2020-03-16T08:05:17Z</time>
      </trkpt>
      <trkpt lat="45.38075" lon="6.72636">
        <ele>1442</ele>
        <time>2020-03-16T08:05:24Z</time>
      </trkpt>
      <trkpt lat="45.38078" lon="6.72644">
        <ele>1442.5</ele>
        <time>2020-03-16T08:05:33Z</time>
      </trkpt>
      <trkpt lat="45.38079" lon="6.72644">
        <ele>1442.6</ele>
        <time>2020-03-16T08:05:34Z</time>
      </trkpt>
      <trkpt lat="45.38081" lon="6.72651">
        <ele>1443.2</ele>
        <time>2020-03-16T08:05:42Z</time>
      </trkpt>
      <trkpt lat="45.38081" lon="6.72657">
        <ele>1444</ele>
        <time>2020-03-16T08:05:52Z</time>
      </trkpt>
      <trkpt lat="45.38088" lon="6.72664">
        <ele>1444.9</ele>
        <time>2020-03-16T08:06:04Z</time>
      </trkpt>
      <trkpt lat="45.38088" lon="6.72665">
        <ele>1445</ele>
        <time>2020-03-16T08:06:05Z</time>
      </trkpt>
      <trkpt lat="45.3809" lon="6.72671">
        <ele>1445.7</ele>
        <time>2020-03-16T08:06:12Z</time>
      </trkpt>
      <trkpt lat="45.38092" lon="6.72673">
        <ele>1445.9</ele>
        <time>2020-03-16T08:06:14Z</time>
      </trkpt>
      <trkpt lat="45.38093" lon="6.72676">
        <ele>1446.3</ele>
        <time>2020-03-16T08:06:17Z</time>
      </trkpt>
      <trkpt lat="45.38096" lon="6.72686">
        <ele>1448.4</ele>
        <time>2020-03-16T08:06:36Z</time>
      </trkpt>
      <trkpt lat="45.38096" lon="6.72687">
        <ele>1448.6</ele>
        <time>2020-03-16T08:06:37Z</time>
      </trkpt>
      <trkpt lat="45.38098" lon="6.72689">
        <ele>1448.8</ele>
        <time>2020-03-16T08:06:39Z</time>
      </trkpt>
      <trkpt lat="45.381" lon="6.72694">
        <ele>1449.6</ele>
        <time>2020-03-16T08:06:44Z</time>
      </trkpt>
      <trkpt lat="45.381" lon="6.72697">
        <ele>1449.9</ele>
        <time>2020-03-16T08:06:47Z</time>
      </trkpt>
      <trkpt lat="45.38102" lon="6.72699">
        <ele>1450.4</ele>
        <time>2020-03-16T08:06:50Z</time>
      </trkpt>
      <trkpt lat="45.38104" lon="6.72702">
        <ele>1451.5</ele>
        <time>2020-03-16T08:06:57Z</time>
      </trkpt>
      <trkpt lat="45.38104" lon="6.72706">
        <ele>1452.3</ele>
        <time>2020-03-16T08:07:01Z</time>
      </trkpt>
      <trkpt lat="45.38104" lon="6.72706">
        <ele>1452.5</ele>
        <time>2020-03-16T08:07:02Z</time>
      </trkpt>
      <trkpt lat="45.38106" lon="6.72708">
        <ele>1454</ele>
        <time>2020-03-16T08:07:09Z</time>
      </trkpt>
      <trkpt lat="45.3811" lon="6.72717">
        <ele>1457.5</ele>
        <time>2020-03-16T08:07:23Z</time>
      </trkpt>
      <trkpt lat="45.3811" lon="6.72729">
        <ele>1462.2</ele>
        <time>2020-03-16T08:07:41Z</time>
      </trkpt>
      <trkpt lat="45.3811" lon="6.7273">
        <ele>1462.4</ele>
        <time>2020-03-16T08:07:42Z</time>
      </trkpt>
      <trkpt lat="45.38108" lon="6.72738">
        <ele>1465.1</ele>
        <time>2020-03-16T08:07:52Z</time>
      </trkpt>
      <trkpt lat="45.38102" lon="6.7275">
        <ele>1469.4</ele>
        <time>2020-03-16T08:08:09Z</time>
      </trkpt>
      <trkpt lat="45.38102" lon="6.72751">
        <ele>1469.6</ele>
        <time>2020-03-16T08:08:10Z</time>
      </trkpt>
      <trkpt lat="45.381" lon="6.72753">
        <ele>1470.5</ele>
        <time>2020-03-16T08:08:14Z</time>
      </trkpt>
      <trkpt lat="45.381" lon="6.72762">
        <ele>1472.2</ele>
        <time>2020-03-16T08:08:21Z</time>
      </trkpt>
      <trkpt lat="45.38095" lon="6.72768">
        <ele>1473.8</ele>
        <time>2020-03-16T08:08:27Z</time>
      </trkpt>
      <trkpt lat="45.38094" lon="6.72769">
        <ele>1474</ele>
        <time>2020-03-16T08:08:28Z</time>
      </trkpt>
      <trkpt lat="45.38089" lon="6.72772">
        <ele>1476</ele>
        <time>2020-03-16T08:08:36Z</time>
      </trkpt>
      <trkpt lat="45.38084" lon="6.72772">
        <ele>1477.6</ele>
        <time>2020-03-16T08:08:42Z</time>
      </trkpt>
      <trkpt lat="45.38077" lon="6.72775">
        <ele>1480</ele>
        <time>2020-03-16T08:08:52Z</time>
      </trkpt>
      <trkpt lat="45.38076" lon="6.72775">
        <ele>1480.2</ele>
        <time>2020-03-16T08:08:53Z</time>
      </trkpt>
      <trkpt lat="45.38073" lon="6.72775">
        <ele>1481.8</ele>
        <time>2020-03-16T08:09:00Z</time>
      </trkpt>
      <trkpt lat="45.3807" lon="6.72778">
        <ele>1483</ele>
        <time>2020-03-16T08:09:06Z</time>
      </trkpt>
      <trkpt lat="45.38061" lon="6.72783">
        <ele>1484.8</ele>
        <time>2020-03-16T08:09:16Z</time>
      </trkpt>
      <trkpt lat="45.38061" lon="6.72783">
        <ele>1485</ele>
        <time>2020-03-16T08:09:17Z</time>
      </trkpt>
      <trkpt lat="45.38055" lon="6.72787">
        <ele>1486.3</ele>
        <time>2020-03-16T08:09:24Z</time>
      </trkpt>
      <trkpt lat="45.38051" lon="6.72795">
        <ele>1488.2</ele>
        <time>2020-03-16T08:09:36Z</time>
      </trkpt>
      <trkpt lat="45.38048" lon="6.72797">
        <ele>1488.6</ele>
        <time>2020-03-16T08:09:39Z</time>
      </trkpt>
      <trkpt lat="45.38047" lon="6.72798">
        <ele>1488.7</ele>
        <time>2020-03-16T08:09:40Z</time>
      </trkpt>
      <trkpt lat="45.38045" lon="6.72804">
        <ele>1489.8</ele>
        <time>2020-03-16T08:09:48Z</time>
      </trkpt>
      <trkpt lat="45.38038" lon="6.72814">
        <ele>1491.3</ele>
        <time>2020-03-16T08:10:00Z</time>
      </trkpt>
      <trkpt lat="45.38038" lon="6.72816">
        <ele>1491.4</ele>
        <time>2020-03-16T08:10:01Z</time>
      </trkpt>
      <trkpt lat="45.38035" lon="6.72823">
        <ele>1492.2</ele>
        <time>2020-03-16T08:10:08Z</time>
      </trkpt>
      <trkpt lat="45.38031" lon="6.72827">
        <ele>1493</ele>
        <time>2020-03-16T08:10:16Z</time>
      </trkpt>
      <trkpt lat="45.38028" lon="6.72836">
        <ele>1493.7</ele>
        <time>2020-03-16T08:10:23Z</time>
      </trkpt>
      <trkpt lat="45.38027" lon="6.72837">
        <ele>1493.8</ele>
        <time>2020-03-16T08:10:24Z</time>
      </trkpt>
      <trkpt lat="45.38025" lon="6.72839">
        <ele>1494.3</ele>
        <time>2020-03-16T08:10:29Z</time>
      </trkpt>
      <trkpt lat="45.38024" lon="6.72842">
        <ele>1494.6</ele>
        <time>2020-03-16T08:10:33Z</time>
      </trkpt>
      <trkpt lat="45.38021" lon="6.72843">
        <ele>1495.1</ele>
        <time>2020-03-16T08:10:38Z</time>
      </trkpt>
      <trkpt lat="45.38019" lon="6.72848">
        <ele>1495.4</ele>
        <time>2020-03-16T08:10:43Z</time>
      </trkpt>
      <trkpt lat="45.38017" lon="6.72849">
        <ele>1495.6</ele>
        <time>2020-03-16T08:10:45Z</time>
      </trkpt>
      <trkpt lat="45.38015" lon="6.72854">
        <ele>1496.3</ele>
        <time>2020-03-16T08:10:53Z</time>
      </trkpt>
      <trkpt lat="45.38015" lon="6.72854">
        <ele>1496.4</ele>
        <time>2020-03-16T08:10:54Z</time>
      </trkpt>
      <trkpt lat="45.38014" lon="6.72856">
        <ele>1496.7</ele>
        <time>2020-03-16T08:10:58Z</time>
      </trkpt>
      <trkpt lat="45.38012" lon="6.72856">
        <ele>1496.8</ele>
        <time>2020-03-16T08:10:59Z</time>
      </trkpt>
      <trkpt lat="45.38011" lon="6.7286">
        <ele>1497.2</ele>
        <time>2020-03-16T08:11:05Z</time>
      </trkpt>
      <trkpt lat="45.38006" lon="6.7286">
        <ele>1497.6</ele>
        <time>2020-03-16T08:11:10Z</time>
      </trkpt>
      <trkpt lat="45.38005" lon="6.72863">
        <ele>1497.8</ele>
        <time>2020-03-16T08:11:13Z</time>
      </trkpt>
      <trkpt lat="45.38004" lon="6.72863">
        <ele>1497.9</ele>
        <time>2020-03-16T08:11:14Z</time>
      </trkpt>
      <trkpt lat="45.38003" lon="6.72862">
        <ele>1497.9</ele>
        <time>2020-03-16T08:11:15Z</time>
      </trkpt>
      <trkpt lat="45.3799" lon="6.72875">
        <ele>1499.6</ele>
        <time>2020-03-16T08:11:40Z</time>
      </trkpt>
      <trkpt lat="45.37989" lon="6.72876">
        <ele>1499.6</ele>
        <time>2020-03-16T08:11:41Z</time>
      </trkpt>
      <trkpt lat="45.37985" lon="6.72881">
        <ele>1499.9</ele>
        <time>2020-03-16T08:11:48Z</time>
      </trkpt>
      <trkpt lat="45.37983" lon="6.72884">
        <ele>1500.1</ele>
        <time>2020-03-16T08:11:51Z</time>
      </trkpt>
      <trkpt lat="45.37982" lon="6.72896">
        <ele>1500.9</ele>
        <time>2020-03-16T08:12:02Z</time>
      </trkpt>
      <trkpt lat="45.37983" lon="6.72898">
        <ele>1501</ele>
        <time>2020-03-16T08:12:03Z</time>
      </trkpt>
      <trkpt lat="45.37983" lon="6.72898">
        <ele>1501.1</ele>
        <time>2020-03-16T08:12:04Z</time>
      </trkpt>
      <trkpt lat="45.37984" lon="6.72898">
        <ele>1501.2</ele>
        <time>2020-03-16T08:12:05Z</time>
      </trkpt>
      <trkpt lat="45.37984" lon="6.72902">
        <ele>1501.5</ele>
        <time>2020-03-16T08:12:09Z</time>
      </trkpt>
      <trkpt lat="45.37981" lon="6.72923">
        <ele>1503.2</ele>
        <time>2020-03-16T08:12:27Z</time>
      </trkpt>
      <trkpt lat="45.3798" lon="6.72923">
        <ele>1503.4</ele>
        <time>2020-03-16T08:12:28Z</time>
      </trkpt>
      <trkpt lat="45.37979" lon="6.7293">
        <ele>1504.6</ele>
        <time>2020-03-16T08:12:37Z</time>
      </trkpt>
      <trkpt lat="45.3798" lon="6.72932">
        <ele>1504.9</ele>
        <time>2020-03-16T08:12:39Z</time>
      </trkpt>
      <trkpt lat="45.37979" lon="6.72947">
        <ele>1507.7</ele>
        <time>2020-03-16T08:12:54Z</time>
      </trkpt>
      <trkpt lat="45.37979" lon="6.72948">
        <ele>1507.9</ele>
        <time>2020-03-16T08:12:55Z</time>
      </trkpt>
      <trkpt lat="45.37975" lon="6.72973">
        <ele>1514.5</ele>
        <time>2020-03-16T08:13:21Z</time>
      </trkpt>
      <trkpt lat="45.37975" lon="6.72974">
        <ele>1514.7</ele>
        <time>2020-03-16T08:13:22Z</time>
      </trkpt>
      <trkpt lat="45.37974" lon="6.7298">
        <ele>1516.9</ele>
        <time>2020-03-16T08:13:30Z</time>
      </trkpt>
      <trkpt lat="45.37976" lon="6.72989">
        <ele>1519.8</ele>
        <time>2020-03-16T08:13:41Z</time>
      </trkpt>
      <trkpt lat="45.37975" lon="6.72993">
        <ele>1520.4</ele>
        <time>2020-03-16T08:13:43Z</time>
      </trkpt>
      <trkpt lat="45.37976" lon="6.72996">
        <ele>1522.5</ele>
        <time>2020-03-16T08:13:50Z</time>
      </trkpt>
      <trkpt lat="45.37976" lon="6.72998">
        <ele>1522.8</ele>
        <time>2020-03-16T08:13:51Z</time>
      </trkpt>
      <trkpt lat="45.37978" lon="6.73012">
        <ele>1528.8</ele>
        <time>2020-03-16T08:14:11Z</time>
      </trkpt>
      <trkpt lat="45.3798" lon="6.73021">
        <ele>1531.8</ele>
        <time>2020-03-16T08:14:21Z</time>
      </trkpt>
      <trkpt lat="45.3798" lon="6.73021">
        <ele>1532.1</ele>
        <time>2020-03-16T08:14:22Z</time>
      </trkpt>
      <trkpt lat="45.3798" lon="6.73031">
        <ele>1535.7</ele>
        <time>2020-03-16T08:14:34Z</time>
      </trkpt>
      <trkpt lat="45.37979" lon="6.7304">
        <ele>1538.1</ele>
        <time>2020-03-16T08:14:43Z</time>
      </trkpt>
      <trkpt lat="45.37981" lon="6.73043">
        <ele>1538.9</ele>
        <time>2020-03-16T08:14:46Z</time>
      </trkpt>
      <trkpt lat="45.3798" lon="6.73044">
        <ele>1539.2</ele>
        <time>2020-03-16T08:14:47Z</time>
      </trkpt>
      <trkpt lat="45.3798" lon="6.73061">
        <ele>1544.6</ele>
        <time>2020-03-16T08:15:06Z</time>
      </trkpt>
      <trkpt lat="45.37978" lon="6.73068">
        <ele>1545.6</ele>
        <time>2020-03-16T08:15:11Z</time>
      </trkpt>
      <trkpt lat="45.37979" lon="6.73068">
        <ele>1545.9</ele>
        <time>2020-03-16T08:15:12Z</time>
      </trkpt>
      <trkpt lat="45.37986" lon="6.73092">
        <ele>1552.5</ele>
        <time>2020-03-16T08:15:42Z</time>
      </trkpt>
      <trkpt lat="45.37986" lon="6.73093">
        <ele>1552.7</ele>
        <time>2020-03-16T08:15:43Z</time>
      </trkpt>
      <trkpt lat="45.37985" lon="6.73097">
        <ele>1554</ele>
        <time>2020-03-16T08:15:49Z</time>
      </trkpt>
      <trkpt lat="45.37988" lon="6.73118">
        <ele>1559.6</ele>
        <time>2020-03-16T08:16:16Z</time>
      </trkpt>
      <trkpt lat="45.37989" lon="6.73117">
        <ele>1559.8</ele>
        <time>2020-03-16T08:16:17Z</time>
      </trkpt>
      <trkpt lat="45.37989" lon="6.73116">
        <ele>1560</ele>
        <time>2020-03-16T08:16:18Z</time>
      </trkpt>
      <trkpt lat="45.3799" lon="6.7312">
        <ele>1560.9</ele>
        <time>2020-03-16T08:16:23Z</time>
      </trkpt>
      <trkpt lat="45.37987" lon="6.73125">
        <ele>1562.1</ele>
        <time>2020-03-16T08:16:32Z</time>
      </trkpt>
      <trkpt lat="45.3799" lon="6.73128">
        <ele>1562.3</ele>
        <time>2020-03-16T08:16:33Z</time>
      </trkpt>
      <trkpt lat="45.37991" lon="6.73127">
        <ele>1562.9</ele>
        <time>2020-03-16T08:16:37Z</time>
      </trkpt>
      <trkpt lat="45.37992" lon="6.73118">
        <ele>1563.2</ele>
        <time>2020-03-16T08:16:39Z</time>
      </trkpt>
      <trkpt lat="45.37991" lon="6.73119">
        <ele>1563.3</ele>
        <time>2020-03-16T08:16:40Z</time>
      </trkpt>
      <trkpt lat="45.37989" lon="6.7312">
        <ele>1563.4</ele>
        <time>2020-03-16T08:16:41Z</time>
      </trkpt>
      <trkpt lat="45.37991" lon="6.7312">
        <ele>1564.6</ele>
        <time>2020-03-16T08:16:57Z</time>
      </trkpt>
      <trkpt lat="45.37995" lon="6.73127">
        <ele>1565.6</ele>
        <time>2020-03-16T08:17:13Z</time>
      </trkpt>
      <trkpt lat="45.37992" lon="6.73126">
        <ele>1566.3</ele>
        <time>2020-03-16T08:17:23Z</time>
      </trkpt>
      <trkpt lat="45.37991" lon="6.73123">
        <ele>1567.1</ele>
        <time>2020-03-16T08:17:35Z</time>
      </trkpt>
      <trkpt lat="45.37992" lon="6.73126">
        <ele>1571.3</ele>
        <time>2020-03-16T08:19:12Z</time>
      </trkpt>
      <trkpt lat="45.3799" lon="6.73127">
        <ele>1571.5</ele>
        <time>2020-03-16T08:19:13Z</time>
      </trkpt>
      <trkpt lat="45.37991" lon="6.73128">
        <ele>1571.7</ele>
        <time>2020-03-16T08:19:14Z</time>
      </trkpt>
      <trkpt lat="45.37991" lon="6.73129">
        <ele>1572</ele>
        <time>2020-03-16T08:19:15Z</time>
      </trkpt>
      <trkpt lat="45.37989" lon="6.73127">
        <ele>1573.7</ele>
        <time>2020-03-16T08:19:58Z</time>
      </trkpt>
      <trkpt lat="45.37989" lon="6.73123">
        <ele>1574.8</ele>
        <time>2020-03-16T08:20:25Z</time>
      </trkpt>
      <trkpt lat="45.37991" lon="6.73122">
        <ele>1575.2</ele>
        <time>2020-03-16T08:20:34Z</time>
      </trkpt>
      <trkpt lat="45.37993" lon="6.73124">
        <ele>1576.3</ele>
        <time>2020-03-16T08:20:43Z</time>
      </trkpt>
      <trkpt lat="45.37992" lon="6.73127">
        <ele>1576.9</ele>
        <time>2020-03-16T08:20:46Z</time>
      </trkpt>
      <trkpt lat="45.37995" lon="6.73135">
        <ele>1578.1</ele>
        <time>2020-03-16T08:20:53Z</time>
      </trkpt>
      <trkpt lat="45.37995" lon="6.73137">
        <ele>1578.2</ele>
        <time>2020-03-16T08:20:54Z</time>
      </trkpt>
      <trkpt lat="45.37991" lon="6.73147">
        <ele>1579.1</ele>
        <time>2020-03-16T08:21:00Z</time>
      </trkpt>
      <trkpt lat="45.37994" lon="6.73158">
        <ele>1580.3</ele>
        <time>2020-03-16T08:21:09Z</time>
      </trkpt>
      <trkpt lat="45.37994" lon="6.7316">
        <ele>1580.4</ele>
        <time>2020-03-16T08:21:10Z</time>
      </trkpt>
      <trkpt lat="45.37994" lon="6.73161">
        <ele>1580.5</ele>
        <time>2020-03-16T08:21:11Z</time>
      </trkpt>
      <trkpt lat="45.37995" lon="6.73162">
        <ele>1580.7</ele>
        <time>2020-03-16T08:21:12Z</time>
      </trkpt>
      <trkpt lat="45.37998" lon="6.73163">
        <ele>1581</ele>
        <time>2020-03-16T08:21:15Z</time>
      </trkpt>
      <trkpt lat="45.38" lon="6.73166">
        <ele>1581.3</ele>
        <time>2020-03-16T08:21:18Z</time>
      </trkpt>
      <trkpt lat="45.38003" lon="6.73179">
        <ele>1582.5</ele>
        <time>2020-03-16T08:21:30Z</time>
      </trkpt>
      <trkpt lat="45.38003" lon="6.73179">
        <ele>1582.5</ele>
        <time>2020-03-16T08:21:31Z</time>
      </trkpt>
      <trkpt lat="45.38006" lon="6.7318">
        <ele>1583</ele>
        <time>2020-03-16T08:21:37Z</time>
      </trkpt>
      <trkpt lat="45.38008" lon="6.73186">
        <ele>1583.6</ele>
        <time>2020-03-16T08:21:44Z</time>
      </trkpt>
      <trkpt lat="45.38008" lon="6.73194">
        <ele>1584.2</ele>
        <time>2020-03-16T08:21:52Z</time>
      </trkpt>
      <trkpt lat="45.38012" lon="6.73199">
        <ele>1584.5</ele>
        <time>2020-03-16T08:21:57Z</time>
      </trkpt>
      <trkpt lat="45.38012" lon="6.732">
        <ele>1584.6</ele>
        <time>2020-03-16T08:21:58Z</time>
      </trkpt>
      <trkpt lat="45.38012" lon="6.73201">
        <ele>1584.6</ele>
        <time>2020-03-16T08:21:59Z</time>
      </trkpt>
      <trkpt lat="45.38014" lon="6.73205">
        <ele>1584.9</ele>
        <time>2020-03-16T08:22:04Z</time>
      </trkpt>
      <trkpt lat="45.38017" lon="6.73206">
        <ele>1585.1</ele>
        <time>2020-03-16T08:22:06Z</time>
      </trkpt>
      <trkpt lat="45.38018" lon="6.73215">
        <ele>1585.7</ele>
        <time>2020-03-16T08:22:17Z</time>
      </trkpt>
      <trkpt lat="45.38018" lon="6.73219">
        <ele>1585.9</ele>
        <time>2020-03-16T08:22:21Z</time>
      </trkpt>
      <trkpt lat="45.38019" lon="6.73219">
        <ele>1585.9</ele>
        <time>2020-03-16T08:22:22Z</time>
      </trkpt>
      <trkpt lat="45.38018" lon="6.73219">
        <ele>1586</ele>
        <time>2020-03-16T08:22:23Z</time>
      </trkpt>
      <trkpt lat="45.3802" lon="6.73222">
        <ele>1586.2</ele>
        <time>2020-03-16T08:22:26Z</time>
      </trkpt>
      <trkpt lat="45.3802" lon="6.73227">
        <ele>1586.4</ele>
        <time>2020-03-16T08:22:30Z</time>
      </trkpt>
      <trkpt lat="45.38021" lon="6.7323">
        <ele>1586.5</ele>
        <time>2020-03-16T08:22:32Z</time>
      </trkpt>
      <trkpt lat="45.38025" lon="6.73234">
        <ele>1586.9</ele>
        <time>2020-03-16T08:22:39Z</time>
      </trkpt>
      <trkpt lat="45.38026" lon="6.73237">
        <ele>1587.1</ele>
        <time>2020-03-16T08:22:42Z</time>
      </trkpt>
      <trkpt lat="45.38028" lon="6.73237">
        <ele>1587.1</ele>
        <time>2020-03-16T08:22:43Z</time>
      </trkpt>
      <trkpt lat="45.38028" lon="6.73247">
        <ele>1588</ele>
        <time>2020-03-16T08:23:00Z</time>
      </trkpt>
      <trkpt lat="45.38031" lon="6.73252">
        <ele>1588.3</ele>
        <time>2020-03-16T08:23:05Z</time>
      </trkpt>
      <trkpt lat="45.38031" lon="6.73255">
        <ele>1588.7</ele>
        <time>2020-03-16T08:23:12Z</time>
      </trkpt>
      <trkpt lat="45.3803" lon="6.7326">
        <ele>1589</ele>
        <time>2020-03-16T08:23:17Z</time>
      </trkpt>
      <trkpt lat="45.38031" lon="6.7326">
        <ele>1589.1</ele>
        <time>2020-03-16T08:23:18Z</time>
      </trkpt>
      <trkpt lat="45.38035" lon="6.73267">
        <ele>1589.6</ele>
        <time>2020-03-16T08:23:26Z</time>
      </trkpt>
      <trkpt lat="45.38035" lon="6.7327">
        <ele>1589.9</ele>
        <time>2020-03-16T08:23:31Z</time>
      </trkpt>
      <trkpt lat="45.38033" lon="6.73272">
        <ele>1590</ele>
        <time>2020-03-16T08:23:33Z</time>
      </trkpt>
      <trkpt lat="45.38034" lon="6.73278">
        <ele>1590.5</ele>
        <time>2020-03-16T08:23:39Z</time>
      </trkpt>
      <trkpt lat="45.38036" lon="6.73279">
        <ele>1590.5</ele>
        <time>2020-03-16T08:23:40Z</time>
      </trkpt>
      <trkpt lat="45.38035" lon="6.7328">
        <ele>1590.6</ele>
        <time>2020-03-16T08:23:41Z</time>
      </trkpt>
      <trkpt lat="45.38034" lon="6.73282">
        <ele>1590.7</ele>
        <time>2020-03-16T08:23:42Z</time>
      </trkpt>
      <trkpt lat="45.38036" lon="6.73282">
        <ele>1590.8</ele>
        <time>2020-03-16T08:23:44Z</time>
      </trkpt>
      <trkpt lat="45.38039" lon="6.73287">
        <ele>1591</ele>
        <time>2020-03-16T08:23:47Z</time>
      </trkpt>
      <trkpt lat="45.3804" lon="6.7329">
        <ele>1591.2</ele>
        <time>2020-03-16T08:23:50Z</time>
      </trkpt>
      <trkpt lat="45.38043" lon="6.7329">
        <ele>1591.5</ele>
        <time>2020-03-16T08:23:53Z</time>
      </trkpt>
      <trkpt lat="45.38045" lon="6.73291">
        <ele>1591.6</ele>
        <time>2020-03-16T08:23:55Z</time>
      </trkpt>
      <trkpt lat="45.38045" lon="6.73292">
        <ele>1591.7</ele>
        <time>2020-03-16T08:23:56Z</time>
      </trkpt>
      <trkpt lat="45.38044" lon="6.73294">
        <ele>1591.8</ele>
        <time>2020-03-16T08:23:57Z</time>
      </trkpt>
      <trkpt lat="45.38048" lon="6.73297">
        <ele>1591.9</ele>
        <time>2020-03-16T08:23:59Z</time>
      </trkpt>
      <trkpt lat="45.3805" lon="6.73305">
        <ele>1592.6</ele>
        <time>2020-03-16T08:24:07Z</time>
      </trkpt>
      <trkpt lat="45.38052" lon="6.73306">
        <ele>1592.8</ele>
        <time>2020-03-16T08:24:09Z</time>
      </trkpt>
      <trkpt lat="45.38054" lon="6.73312">
        <ele>1593.2</ele>
        <time>2020-03-16T08:24:14Z</time>
      </trkpt>
      <trkpt lat="45.38054" lon="6.73314">
        <ele>1593.3</ele>
        <time>2020-03-16T08:24:15Z</time>
      </trkpt>
      <trkpt lat="45.38058" lon="6.7332">
        <ele>1594</ele>
        <time>2020-03-16T08:24:22Z</time>
      </trkpt>
      <trkpt lat="45.38062" lon="6.7333">
        <ele>1594.9</ele>
        <time>2020-03-16T08:24:30Z</time>
      </trkpt>
      <trkpt lat="45.38066" lon="6.73334">
        <ele>1595.5</ele>
        <time>2020-03-16T08:24:35Z</time>
      </trkpt>
      <trkpt lat="45.38066" lon="6.73336">
        <ele>1595.6</ele>
        <time>2020-03-16T08:24:36Z</time>
      </trkpt>
      <trkpt lat="45.38067" lon="6.73337">
        <ele>1595.7</ele>
        <time>2020-03-16T08:24:37Z</time>
      </trkpt>
      <trkpt lat="45.38068" lon="6.73341">
        <ele>1596.4</ele>
        <time>2020-03-16T08:24:42Z</time>
      </trkpt>
      <trkpt lat="45.3807" lon="6.73342">
        <ele>1596.8</ele>
        <time>2020-03-16T08:24:45Z</time>
      </trkpt>
      <trkpt lat="45.38071" lon="6.73345">
        <ele>1597.2</ele>
        <time>2020-03-16T08:24:48Z</time>
      </trkpt>
      <trkpt lat="45.38074" lon="6.73347">
        <ele>1597.5</ele>
        <time>2020-03-16T08:24:50Z</time>
      </trkpt>
      <trkpt lat="45.38077" lon="6.73356">
        <ele>1600.5</ele>
        <time>2020-03-16T08:25:08Z</time>
      </trkpt>
      <trkpt lat="45.38078" lon="6.73358">
        <ele>1600.7</ele>
        <time>2020-03-16T08:25:09Z</time>
      </trkpt>
      <trkpt lat="45.38078" lon="6.73363">
        <ele>1601.8</ele>
        <time>2020-03-16T08:25:15Z</time>
      </trkpt>
      <trkpt lat="45.38083" lon="6.7337">
        <ele>1603.4</ele>
        <time>2020-03-16T08:25:24Z</time>
      </trkpt>
      <trkpt lat="45.38086" lon="6.73377">
        <ele>1605.1</ele>
        <time>2020-03-16T08:25:33Z</time>
      </trkpt>
      <trkpt lat="45.38086" lon="6.73377">
        <ele>1605.3</ele>
        <time>2020-03-16T08:25:34Z</time>
      </trkpt>
      <trkpt lat="45.38087" lon="6.73381">
        <ele>1606</ele>
        <time>2020-03-16T08:25:39Z</time>
      </trkpt>
      <trkpt lat="45.38088" lon="6.73382">
        <ele>1606.4</ele>
        <time>2020-03-16T08:25:41Z</time>
      </trkpt>
      <trkpt lat="45.38091" lon="6.73383">
        <ele>1606.7</ele>
        <time>2020-03-16T08:25:43Z</time>
      </trkpt>
      <trkpt lat="45.38093" lon="6.73386">
        <ele>1607.6</ele>
        <time>2020-03-16T08:25:48Z</time>
      </trkpt>
      <trkpt lat="45.38096" lon="6.73392">
        <ele>1608.6</ele>
        <time>2020-03-16T08:25:54Z</time>
      </trkpt>
      <trkpt lat="45.38096" lon="6.73394">
        <ele>1608.8</ele>
        <time>2020-03-16T08:25:55Z</time>
      </trkpt>
      <trkpt lat="45.38098" lon="6.734">
        <ele>1610.4</ele>
        <time>2020-03-16T08:26:03Z</time>
      </trkpt>
      <trkpt lat="45.38099" lon="6.73402">
        <ele>1611.6</ele>
        <time>2020-03-16T08:26:09Z</time>
      </trkpt>
      <trkpt lat="45.38097" lon="6.73405">
        <ele>1611.8</ele>
        <time>2020-03-16T08:26:10Z</time>
      </trkpt>
      <trkpt lat="45.38097" lon="6.73408">
        <ele>1612.4</ele>
        <time>2020-03-16T08:26:13Z</time>
      </trkpt>
      <trkpt lat="45.38099" lon="6.73409">
        <ele>1612.6</ele>
        <time>2020-03-16T08:26:14Z</time>
      </trkpt>
      <trkpt lat="45.38099" lon="6.73413">
        <ele>1613.1</ele>
        <time>2020-03-16T08:26:17Z</time>
      </trkpt>
      <trkpt lat="45.381" lon="6.73414">
        <ele>1613.3</ele>
        <time>2020-03-16T08:26:18Z</time>
      </trkpt>
      <trkpt lat="45.38103" lon="6.73417">
        <ele>1614</ele>
        <time>2020-03-16T08:26:22Z</time>
      </trkpt>
      <trkpt lat="45.38105" lon="6.7342">
        <ele>1614.8</ele>
        <time>2020-03-16T08:26:27Z</time>
      </trkpt>
      <trkpt lat="45.38106" lon="6.73423">
        <ele>1615.3</ele>
        <time>2020-03-16T08:26:30Z</time>
      </trkpt>
      <trkpt lat="45.38105" lon="6.73427">
        <ele>1615.8</ele>
        <time>2020-03-16T08:26:33Z</time>
      </trkpt>
      <trkpt lat="45.38107" lon="6.73427">
        <ele>1616</ele>
        <time>2020-03-16T08:26:34Z</time>
      </trkpt>
      <trkpt lat="45.3811" lon="6.73433">
        <ele>1617.6</ele>
        <time>2020-03-16T08:26:43Z</time>
      </trkpt>
      <trkpt lat="45.38111" lon="6.73433">
        <ele>1617.8</ele>
        <time>2020-03-16T08:26:44Z</time>
      </trkpt>
      <trkpt lat="45.38111" lon="6.73434">
        <ele>1617.9</ele>
        <time>2020-03-16T08:26:45Z</time>
      </trkpt>
      <trkpt lat="45.38111" lon="6.73435">
        <ele>1618.1</ele>
        <time>2020-03-16T08:26:46Z</time>
      </trkpt>
      <trkpt lat="45.38115" lon="6.73446">
        <ele>1620.5</ele>
        <time>2020-03-16T08:27:01Z</time>
      </trkpt>
      <trkpt lat="45.38122" lon="6.73451">
        <ele>1621.9</ele>
        <time>2020-03-16T08:27:09Z</time>
      </trkpt>
      <trkpt lat="45.38124" lon="6.73452">
        <ele>1622.1</ele>
        <time>2020-03-16T08:27:10Z</time>
      </trkpt>
      <trkpt lat="45.38129" lon="6.73456">
        <ele>1622.8</ele>
        <time>2020-03-16T08:27:14Z</time>
      </trkpt>
      <trkpt lat="45.3813" lon="6.73459">
        <ele>1623.4</ele>
        <time>2020-03-16T08:27:18Z</time>
      </trkpt>
      <trkpt lat="45.38135" lon="6.73464">
        <ele>1624.3</ele>
        <time>2020-03-16T08:27:24Z</time>
      </trkpt>
      <trkpt lat="45.38138" lon="6.73465">
        <ele>1624.8</ele>
        <time>2020-03-16T08:27:27Z</time>
      </trkpt>
      <trkpt lat="45.38139" lon="6.73464">
        <ele>1624.9</ele>
        <time>2020-03-16T08:27:28Z</time>
      </trkpt>
      <trkpt lat="45.38144" lon="6.73472">
        <ele>1626.2</ele>
        <time>2020-03-16T08:27:36Z</time>
      </trkpt>
      <trkpt lat="45.38148" lon="6.73482">
        <ele>1627.4</ele>
        <time>2020-03-16T08:27:44Z</time>
      </trkpt>
      <trkpt lat="45.38148" lon="6.73483">
        <ele>1627.5</ele>
        <time>2020-03-16T08:27:45Z</time>
      </trkpt>
      <trkpt lat="45.38149" lon="6.73488">
        <ele>1628.1</ele>
        <time>2020-03-16T08:27:49Z</time>
      </trkpt>
      <trkpt lat="45.38151" lon="6.7349">
        <ele>1628.6</ele>
        <time>2020-03-16T08:27:52Z</time>
      </trkpt>
      <trkpt lat="45.3815" lon="6.73493">
        <ele>1629.1</ele>
        <time>2020-03-16T08:27:57Z</time>
      </trkpt>
      <trkpt lat="45.38151" lon="6.73497">
        <ele>1629.9</ele>
        <time>2020-03-16T08:28:03Z</time>
      </trkpt>
      <trkpt lat="45.38152" lon="6.735">
        <ele>1630.4</ele>
        <time>2020-03-16T08:28:06Z</time>
      </trkpt>
      <trkpt lat="45.38154" lon="6.73501">
        <ele>1630.6</ele>
        <time>2020-03-16T08:28:08Z</time>
      </trkpt>
      <trkpt lat="45.38157" lon="6.73505">
        <ele>1631.2</ele>
        <time>2020-03-16T08:28:12Z</time>
      </trkpt>
      <trkpt lat="45.38157" lon="6.73507">
        <ele>1631.3</ele>
        <time>2020-03-16T08:28:13Z</time>
      </trkpt>
      <trkpt lat="45.38159" lon="6.7351">
        <ele>1631.7</ele>
        <time>2020-03-16T08:28:16Z</time>
      </trkpt>
      <trkpt lat="45.38158" lon="6.73513">
        <ele>1632</ele>
        <time>2020-03-16T08:28:19Z</time>
      </trkpt>
      <trkpt lat="45.38159" lon="6.73516">
        <ele>1632.4</ele>
        <time>2020-03-16T08:28:22Z</time>
      </trkpt>
      <trkpt lat="45.38159" lon="6.73519">
        <ele>1632.6</ele>
        <time>2020-03-16T08:28:24Z</time>
      </trkpt>
      <trkpt lat="45.38161" lon="6.73521">
        <ele>1632.9</ele>
        <time>2020-03-16T08:28:27Z</time>
      </trkpt>
      <trkpt lat="45.38162" lon="6.73529">
        <ele>1633.5</ele>
        <time>2020-03-16T08:28:33Z</time>
      </trkpt>
      <trkpt lat="45.38162" lon="6.73531">
        <ele>1633.6</ele>
        <time>2020-03-16T08:28:34Z</time>
      </trkpt>
      <trkpt lat="45.38164" lon="6.73531">
        <ele>1633.7</ele>
        <time>2020-03-16T08:28:35Z</time>
      </trkpt>
      <trkpt lat="45.38166" lon="6.73533">
        <ele>1634</ele>
        <time>2020-03-16T08:28:37Z</time>
      </trkpt>
      <trkpt lat="45.38165" lon="6.73536">
        <ele>1634.2</ele>
        <time>2020-03-16T08:28:39Z</time>
      </trkpt>
      <trkpt lat="45.38167" lon="6.7354">
        <ele>1634.7</ele>
        <time>2020-03-16T08:28:44Z</time>
      </trkpt>
      <trkpt lat="45.3817" lon="6.73541">
        <ele>1635</ele>
        <time>2020-03-16T08:28:47Z</time>
      </trkpt>
      <trkpt lat="45.38172" lon="6.73543">
        <ele>1635.1</ele>
        <time>2020-03-16T08:28:49Z</time>
      </trkpt>
      <trkpt lat="45.38173" lon="6.73544">
        <ele>1635.2</ele>
        <time>2020-03-16T08:28:50Z</time>
      </trkpt>
      <trkpt lat="45.38172" lon="6.73546">
        <ele>1635.3</ele>
        <time>2020-03-16T08:28:51Z</time>
      </trkpt>
      <trkpt lat="45.38173" lon="6.73551">
        <ele>1635.9</ele>
        <time>2020-03-16T08:28:58Z</time>
      </trkpt>
      <trkpt lat="45.38175" lon="6.73558">
        <ele>1636.3</ele>
        <time>2020-03-16T08:29:03Z</time>
      </trkpt>
      <trkpt lat="45.38174" lon="6.73561">
        <ele>1636.4</ele>
        <time>2020-03-16T08:29:04Z</time>
      </trkpt>
      <trkpt lat="45.38175" lon="6.73568">
        <ele>1636.8</ele>
        <time>2020-03-16T08:29:09Z</time>
      </trkpt>
      <trkpt lat="45.38177" lon="6.73569">
        <ele>1636.9</ele>
        <time>2020-03-16T08:29:10Z</time>
      </trkpt>
      <trkpt lat="45.38176" lon="6.7357">
        <ele>1636.9</ele>
        <time>2020-03-16T08:29:11Z</time>
      </trkpt>
      <trkpt lat="45.38177" lon="6.73573">
        <ele>1637.1</ele>
        <time>2020-03-16T08:29:13Z</time>
      </trkpt>
      <trkpt lat="45.38179" lon="6.73574">
        <ele>1637.3</ele>
        <time>2020-03-16T08:29:15Z</time>
      </trkpt>
      <trkpt lat="45.38181" lon="6.73574">
        <ele>1637.3</ele>
        <time>2020-03-16T08:29:16Z</time>
      </trkpt>
      <trkpt lat="45.38183" lon="6.73576">
        <ele>1637.5</ele>
        <time>2020-03-16T08:29:18Z</time>
      </trkpt>
      <trkpt lat="45.3818" lon="6.73584">
        <ele>1638</ele>
        <time>2020-03-16T08:29:23Z</time>
      </trkpt>
      <trkpt lat="45.38181" lon="6.73586">
        <ele>1638.1</ele>
        <time>2020-03-16T08:29:24Z</time>
      </trkpt>
      <trkpt lat="45.38184" lon="6.73589">
        <ele>1638.5</ele>
        <time>2020-03-16T08:29:27Z</time>
      </trkpt>
      <trkpt lat="45.38184" lon="6.73596">
        <ele>1639.1</ele>
        <time>2020-03-16T08:29:33Z</time>
      </trkpt>
      <trkpt lat="45.38185" lon="6.73598">
        <ele>1639.2</ele>
        <time>2020-03-16T08:29:34Z</time>
      </trkpt>
      <trkpt lat="45.38186" lon="6.73601">
        <ele>1639.5</ele>
        <time>2020-03-16T08:29:36Z</time>
      </trkpt>
      <trkpt lat="45.38189" lon="6.73607">
        <ele>1640.3</ele>
        <time>2020-03-16T08:29:42Z</time>
      </trkpt>
      <trkpt lat="45.38189" lon="6.73607">
        <ele>1640.5</ele>
        <time>2020-03-16T08:29:43Z</time>
      </trkpt>
      <trkpt lat="45.38191" lon="6.73612">
        <ele>1641.1</ele>
        <time>2020-03-16T08:29:47Z</time>
      </trkpt>
      <trkpt lat="45.38196" lon="6.73618">
        <ele>1642.1</ele>
        <time>2020-03-16T08:29:54Z</time>
      </trkpt>
      <trkpt lat="45.38197" lon="6.73626">
        <ele>1642.8</ele>
        <time>2020-03-16T08:29:59Z</time>
      </trkpt>
      <trkpt lat="45.38197" lon="6.73626">
        <ele>1642.9</ele>
        <time>2020-03-16T08:30:00Z</time>
      </trkpt>
      <trkpt lat="45.38198" lon="6.73633">
        <ele>1643.9</ele>
        <time>2020-03-16T08:30:07Z</time>
      </trkpt>
      <trkpt lat="45.382" lon="6.73643">
        <ele>1644.6</ele>
        <time>2020-03-16T08:30:13Z</time>
      </trkpt>
      <trkpt lat="45.38203" lon="6.73648">
        <ele>1645</ele>
        <time>2020-03-16T08:30:16Z</time>
      </trkpt>
      <trkpt lat="45.38203" lon="6.73651">
        <ele>1645.2</ele>
        <time>2020-03-16T08:30:17Z</time>
      </trkpt>
      <trkpt lat="45.38203" lon="6.73655">
        <ele>1645.7</ele>
        <time>2020-03-16T08:30:21Z</time>
      </trkpt>
      <trkpt lat="45.38208" lon="6.73666">
        <ele>1646.8</ele>
        <time>2020-03-16T08:30:30Z</time>
      </trkpt>
      <trkpt lat="45.38207" lon="6.73672">
        <ele>1647.4</ele>
        <time>2020-03-16T08:30:35Z</time>
      </trkpt>
      <trkpt lat="45.38207" lon="6.73673">
        <ele>1647.5</ele>
        <time>2020-03-16T08:30:36Z</time>
      </trkpt>
      <trkpt lat="45.38207" lon="6.73676">
        <ele>1648</ele>
        <time>2020-03-16T08:30:40Z</time>
      </trkpt>
      <trkpt lat="45.38215" lon="6.7369">
        <ele>1649.6</ele>
        <time>2020-03-16T08:30:54Z</time>
      </trkpt>
      <trkpt lat="45.38215" lon="6.7369">
        <ele>1649.6</ele>
        <time>2020-03-16T08:30:55Z</time>
      </trkpt>
      <trkpt lat="45.38216" lon="6.73692">
        <ele>1650</ele>
        <time>2020-03-16T08:30:58Z</time>
      </trkpt>
      <trkpt lat="45.38219" lon="6.73693">
        <ele>1650.2</ele>
        <time>2020-03-16T08:31:00Z</time>
      </trkpt>
      <trkpt lat="45.38222" lon="6.73698">
        <ele>1651.1</ele>
        <time>2020-03-16T08:31:07Z</time>
      </trkpt>
      <trkpt lat="45.38223" lon="6.7371">
        <ele>1652.3</ele>
        <time>2020-03-16T08:31:19Z</time>
      </trkpt>
      <trkpt lat="45.38224" lon="6.73711">
        <ele>1652.4</ele>
        <time>2020-03-16T08:31:20Z</time>
      </trkpt>
      <trkpt lat="45.38224" lon="6.73712">
        <ele>1652.5</ele>
        <time>2020-03-16T08:31:21Z</time>
      </trkpt>
      <trkpt lat="45.3823" lon="6.73721">
        <ele>1653.9</ele>
        <time>2020-03-16T08:31:34Z</time>
      </trkpt>
      <trkpt lat="45.38235" lon="6.7373">
        <ele>1655.2</ele>
        <time>2020-03-16T08:31:47Z</time>
      </trkpt>
      <trkpt lat="45.38236" lon="6.7373">
        <ele>1655.3</ele>
        <time>2020-03-16T08:31:48Z</time>
      </trkpt>
      <trkpt lat="45.38236" lon="6.73735">
        <ele>1655.8</ele>
        <time>2020-03-16T08:31:55Z</time>
      </trkpt>
      <trkpt lat="45.38239" lon="6.7374">
        <ele>1656.4</ele>
        <time>2020-03-16T08:32:01Z</time>
      </trkpt>
      <trkpt lat="45.38242" lon="6.73741">
        <ele>1656.5</ele>
        <time>2020-03-16T08:32:02Z</time>
      </trkpt>
      <trkpt lat="45.38244" lon="6.73747">
        <ele>1657.1</ele>
        <time>2020-03-16T08:32:09Z</time>
      </trkpt>
      <trkpt lat="45.38246" lon="6.73749">
        <ele>1657.4</ele>
        <time>2020-03-16T08:32:12Z</time>
      </trkpt>
      <trkpt lat="45.38248" lon="6.73749">
        <ele>1657.4</ele>
        <time>2020-03-16T08:32:13Z</time>
      </trkpt>
      <trkpt lat="45.38247" lon="6.7375">
        <ele>1657.5</ele>
        <time>2020-03-16T08:32:14Z</time>
      </trkpt>
      <trkpt lat="45.38248" lon="6.73752">
        <ele>1657.7</ele>
        <time>2020-03-16T08:32:16Z</time>
      </trkpt>
      <trkpt lat="45.38249" lon="6.73752">
        <ele>1657.8</ele>
        <time>2020-03-16T08:32:17Z</time>
      </trkpt>
      <trkpt lat="45.38252" lon="6.73752">
        <ele>1657.9</ele>
        <time>2020-03-16T08:32:18Z</time>
      </trkpt>
      <trkpt lat="45.38254" lon="6.73755">
        <ele>1658.1</ele>
        <time>2020-03-16T08:32:21Z</time>
      </trkpt>
      <trkpt lat="45.38256" lon="6.73756">
        <ele>1658.4</ele>
        <time>2020-03-16T08:32:24Z</time>
      </trkpt>
      <trkpt lat="45.38259" lon="6.73761">
        <ele>1659.1</ele>
        <time>2020-03-16T08:32:32Z</time>
      </trkpt>
      <trkpt lat="45.38259" lon="6.73763">
        <ele>1659.2</ele>
        <time>2020-03-16T08:32:33Z</time>
      </trkpt>
      <trkpt lat="45.38261" lon="6.73768">
        <ele>1659.5</ele>
        <time>2020-03-16T08:32:39Z</time>
      </trkpt>
      <trkpt lat="45.3826" lon="6.73774">
        <ele>1660.4</ele>
        <time>2020-03-16T08:32:49Z</time>
      </trkpt>
      <trkpt lat="45.38265" lon="6.73779">
        <ele>1661</ele>
        <time>2020-03-16T08:32:57Z</time>
      </trkpt>
      <trkpt lat="45.38265" lon="6.73783">
        <ele>1661.6</ele>
        <time>2020-03-16T08:33:03Z</time>
      </trkpt>
      <trkpt lat="45.38265" lon="6.73784">
        <ele>1661.7</ele>
        <time>2020-03-16T08:33:04Z</time>
      </trkpt>
      <trkpt lat="45.38265" lon="6.73785">
        <ele>1661.8</ele>
        <time>2020-03-16T08:33:05Z</time>
      </trkpt>
      <trkpt lat="45.38266" lon="6.73785">
        <ele>1661.9</ele>
        <time>2020-03-16T08:33:06Z</time>
      </trkpt>
      <trkpt lat="45.38271" lon="6.73788">
        <ele>1662.3</ele>
        <time>2020-03-16T08:33:10Z</time>
      </trkpt>
      <trkpt lat="45.38272" lon="6.73795">
        <ele>1663.1</ele>
        <time>2020-03-16T08:33:18Z</time>
      </trkpt>
      <trkpt lat="45.38273" lon="6.73797">
        <ele>1663.8</ele>
        <time>2020-03-16T08:33:25Z</time>
      </trkpt>
      <trkpt lat="45.38276" lon="6.73799">
        <ele>1664.1</ele>
        <time>2020-03-16T08:33:28Z</time>
      </trkpt>
      <trkpt lat="45.38276" lon="6.738">
        <ele>1664.1</ele>
        <time>2020-03-16T08:33:29Z</time>
      </trkpt>
      <trkpt lat="45.38278" lon="6.73806">
        <ele>1664.9</ele>
        <time>2020-03-16T08:33:37Z</time>
      </trkpt>
      <trkpt lat="45.38277" lon="6.7381">
        <ele>1665.3</ele>
        <time>2020-03-16T08:33:41Z</time>
      </trkpt>
      <trkpt lat="45.38278" lon="6.73815">
        <ele>1665.7</ele>
        <time>2020-03-16T08:33:45Z</time>
      </trkpt>
      <trkpt lat="45.38281" lon="6.73818">
        <ele>1665.9</ele>
        <time>2020-03-16T08:33:46Z</time>
      </trkpt>
      <trkpt lat="45.38283" lon="6.73818">
        <ele>1666.4</ele>
        <time>2020-03-16T08:33:51Z</time>
      </trkpt>
      <trkpt lat="45.38283" lon="6.73819">
        <ele>1666.5</ele>
        <time>2020-03-16T08:33:52Z</time>
      </trkpt>
      <trkpt lat="45.38286" lon="6.73821">
        <ele>1666.6</ele>
        <time>2020-03-16T08:33:53Z</time>
      </trkpt>
      <trkpt lat="45.38287" lon="6.73825">
        <ele>1666.9</ele>
        <time>2020-03-16T08:33:56Z</time>
      </trkpt>
      <trkpt lat="45.3829" lon="6.73827">
        <ele>1667.2</ele>
        <time>2020-03-16T08:33:59Z</time>
      </trkpt>
      <trkpt lat="45.38292" lon="6.73825">
        <ele>1667.5</ele>
        <time>2020-03-16T08:34:03Z</time>
      </trkpt>
      <trkpt lat="45.38294" lon="6.73835">
        <ele>1668.6</ele>
        <time>2020-03-16T08:34:14Z</time>
      </trkpt>
      <trkpt lat="45.38296" lon="6.73837">
        <ele>1668.8</ele>
        <time>2020-03-16T08:34:16Z</time>
      </trkpt>
      <trkpt lat="45.38297" lon="6.73838">
        <ele>1668.9</ele>
        <time>2020-03-16T08:34:17Z</time>
      </trkpt>
      <trkpt lat="45.38299" lon="6.73839">
        <ele>1668.9</ele>
        <time>2020-03-16T08:34:18Z</time>
      </trkpt>
      <trkpt lat="45.38302" lon="6.73841">
        <ele>1669.9</ele>
        <time>2020-03-16T08:34:34Z</time>
      </trkpt>
      <trkpt lat="45.38303" lon="6.73848">
        <ele>1670.9</ele>
        <time>2020-03-16T08:34:42Z</time>
      </trkpt>
      <trkpt lat="45.38308" lon="6.73852">
        <ele>1671.8</ele>
        <time>2020-03-16T08:34:49Z</time>
      </trkpt>
      <trkpt lat="45.3831" lon="6.73856">
        <ele>1672.4</ele>
        <time>2020-03-16T08:34:54Z</time>
      </trkpt>
      <trkpt lat="45.3831" lon="6.73857">
        <ele>1672.6</ele>
        <time>2020-03-16T08:34:55Z</time>
      </trkpt>
      <trkpt lat="45.38313" lon="6.73865">
        <ele>1674.2</ele>
        <time>2020-03-16T08:35:05Z</time>
      </trkpt>
      <trkpt lat="45.38315" lon="6.73866">
        <ele>1674.7</ele>
        <time>2020-03-16T08:35:08Z</time>
      </trkpt>
      <trkpt lat="45.38321" lon="6.73873">
        <ele>1676.5</ele>
        <time>2020-03-16T08:35:18Z</time>
      </trkpt>
      <trkpt lat="45.38321" lon="6.73874">
        <ele>1676.7</ele>
        <time>2020-03-16T08:35:19Z</time>
      </trkpt>
      <trkpt lat="45.38324" lon="6.73878">
        <ele>1677.8</ele>
        <time>2020-03-16T08:35:25Z</time>
      </trkpt>
      <trkpt lat="45.38328" lon="6.73879">
        <ele>1678.9</ele>
        <time>2020-03-16T08:35:31Z</time>
      </trkpt>
      <trkpt lat="45.38335" lon="6.73889">
        <ele>1682.2</ele>
        <time>2020-03-16T08:35:50Z</time>
      </trkpt>
      <trkpt lat="45.38336" lon="6.73891">
        <ele>1682.4</ele>
        <time>2020-03-16T08:35:51Z</time>
      </trkpt>
      <trkpt lat="45.38342" lon="6.7391">
        <ele>1687.2</ele>
        <time>2020-03-16T08:36:19Z</time>
      </trkpt>
      <trkpt lat="45.38343" lon="6.73911">
        <ele>1687.4</ele>
        <time>2020-03-16T08:36:20Z</time>
      </trkpt>
      <trkpt lat="45.38345" lon="6.73914">
        <ele>1687.9</ele>
        <time>2020-03-16T08:36:23Z</time>
      </trkpt>
      <trkpt lat="45.38351" lon="6.7392">
        <ele>1689.4</ele>
        <time>2020-03-16T08:36:32Z</time>
      </trkpt>
      <trkpt lat="45.38353" lon="6.73929">
        <ele>1691.1</ele>
        <time>2020-03-16T08:36:44Z</time>
      </trkpt>
      <trkpt lat="45.38353" lon="6.73929">
        <ele>1691.2</ele>
        <time>2020-03-16T08:36:45Z</time>
      </trkpt>
      <trkpt lat="45.38356" lon="6.73938">
        <ele>1693.2</ele>
        <time>2020-03-16T08:36:58Z</time>
      </trkpt>
      <trkpt lat="45.38357" lon="6.7394">
        <ele>1693.4</ele>
        <time>2020-03-16T08:37:00Z</time>
      </trkpt>
      <trkpt lat="45.38359" lon="6.7394">
        <ele>1694</ele>
        <time>2020-03-16T08:37:04Z</time>
      </trkpt>
      <trkpt lat="45.38362" lon="6.73946">
        <ele>1695.1</ele>
        <time>2020-03-16T08:37:11Z</time>
      </trkpt>
      <trkpt lat="45.38363" lon="6.73946">
        <ele>1695.2</ele>
        <time>2020-03-16T08:37:12Z</time>
      </trkpt>
      <trkpt lat="45.38365" lon="6.73946">
        <ele>1695.7</ele>
        <time>2020-03-16T08:37:15Z</time>
      </trkpt>
      <trkpt lat="45.3837" lon="6.73955">
        <ele>1697.4</ele>
        <time>2020-03-16T08:37:28Z</time>
      </trkpt>
      <trkpt lat="45.38372" lon="6.73957">
        <ele>1697.6</ele>
        <time>2020-03-16T08:37:31Z</time>
      </trkpt>
      <trkpt lat="45.38375" lon="6.73958">
        <ele>1698.4</ele>
        <time>2020-03-16T08:37:47Z</time>
      </trkpt>
      <trkpt lat="45.38375" lon="6.73958">
        <ele>1698.4</ele>
        <time>2020-03-16T08:37:48Z</time>
      </trkpt>
      <trkpt lat="45.3837" lon="6.73959">
        <ele>1700.8</ele>
        <time>2020-03-16T08:38:10Z</time>
      </trkpt>
      <trkpt lat="45.3837" lon="6.73955">
        <ele>1701.4</ele>
        <time>2020-03-16T08:38:20Z</time>
      </trkpt>
      <trkpt lat="45.38372" lon="6.73954">
        <ele>1701.6</ele>
        <time>2020-03-16T08:38:22Z</time>
      </trkpt>
      <trkpt lat="45.38371" lon="6.73958">
        <ele>1704.1</ele>
        <time>2020-03-16T08:39:10Z</time>
      </trkpt>
      <trkpt lat="45.3837" lon="6.7396">
        <ele>1704.9</ele>
        <time>2020-03-16T08:39:44Z</time>
      </trkpt>
      <trkpt lat="45.3837" lon="6.73964">
        <ele>1705.2</ele>
        <time>2020-03-16T08:39:57Z</time>
      </trkpt>
      <trkpt lat="45.3837" lon="6.73964">
        <ele>1705.3</ele>
        <time>2020-03-16T08:39:58Z</time>
      </trkpt>
      <trkpt lat="45.3837" lon="6.73968">
        <ele>1705.8</ele>
        <time>2020-03-16T08:40:27Z</time>
      </trkpt>
      <trkpt lat="45.38371" lon="6.7397">
        <ele>1706</ele>
        <time>2020-03-16T08:40:29Z</time>
      </trkpt>
      <trkpt lat="45.38375" lon="6.73977">
        <ele>1707.1</ele>
        <time>2020-03-16T08:40:38Z</time>
      </trkpt>
      <trkpt lat="45.38379" lon="6.73982">
        <ele>1708.2</ele>
        <time>2020-03-16T08:40:46Z</time>
      </trkpt>
      <trkpt lat="45.38381" lon="6.73983">
        <ele>1708.4</ele>
        <time>2020-03-16T08:40:47Z</time>
      </trkpt>
      <trkpt lat="45.38385" lon="6.7399">
        <ele>1709.1</ele>
        <time>2020-03-16T08:40:52Z</time>
      </trkpt>
      <trkpt lat="45.3839" lon="6.73995">
        <ele>1710.6</ele>
        <time>2020-03-16T08:41:02Z</time>
      </trkpt>
      <trkpt lat="45.38393" lon="6.73997">
        <ele>1710.9</ele>
        <time>2020-03-16T08:41:04Z</time>
      </trkpt>
      <trkpt lat="45.38393" lon="6.73997">
        <ele>1711</ele>
        <time>2020-03-16T08:41:05Z</time>
      </trkpt>
      <trkpt lat="45.38396" lon="6.73998">
        <ele>1711.8</ele>
        <time>2020-03-16T08:41:10Z</time>
      </trkpt>
      <trkpt lat="45.384" lon="6.74006">
        <ele>1714.1</ele>
        <time>2020-03-16T08:41:26Z</time>
      </trkpt>
      <trkpt lat="45.38404" lon="6.74014">
        <ele>1716.8</ele>
        <time>2020-03-16T08:41:45Z</time>
      </trkpt>
      <trkpt lat="45.38405" lon="6.74016">
        <ele>1716.9</ele>
        <time>2020-03-16T08:41:46Z</time>
      </trkpt>
      <trkpt lat="45.3841" lon="6.7402">
        <ele>1717.6</ele>
        <time>2020-03-16T08:41:51Z</time>
      </trkpt>
      <trkpt lat="45.38413" lon="6.74025">
        <ele>1720.1</ele>
        <time>2020-03-16T08:42:07Z</time>
      </trkpt>
      <trkpt lat="45.38413" lon="6.74035">
        <ele>1723.9</ele>
        <time>2020-03-16T08:42:31Z</time>
      </trkpt>
      <trkpt lat="45.38412" lon="6.74036">
        <ele>1723.9</ele>
        <time>2020-03-16T08:42:32Z</time>
      </trkpt>
      <trkpt lat="45.38414" lon="6.74044">
        <ele>1724.9</ele>
        <time>2020-03-16T08:42:39Z</time>
      </trkpt>
      <trkpt lat="45.3842" lon="6.74052">
        <ele>1725.8</ele>
        <time>2020-03-16T08:42:46Z</time>
      </trkpt>
      <trkpt lat="45.38421" lon="6.74054">
        <ele>1726</ele>
        <time>2020-03-16T08:42:47Z</time>
      </trkpt>
      <trkpt lat="45.38421" lon="6.74056">
        <ele>1726.1</ele>
        <time>2020-03-16T08:42:48Z</time>
      </trkpt>
      <trkpt lat="45.38432" lon="6.74067">
        <ele>1726.8</ele>
        <time>2020-03-16T08:42:54Z</time>
      </trkpt>
      <trkpt lat="45.38438" lon="6.7407">
        <ele>1727.5</ele>
        <time>2020-03-16T08:42:59Z</time>
      </trkpt>
      <trkpt lat="45.38439" lon="6.7407">
        <ele>1727.6</ele>
        <time>2020-03-16T08:43:00Z</time>
      </trkpt>
      <trkpt lat="45.38442" lon="6.74071">
        <ele>1728.5</ele>
        <time>2020-03-16T08:43:08Z</time>
      </trkpt>
      <trkpt lat="45.38444" lon="6.74076">
        <ele>1729</ele>
        <time>2020-03-16T08:43:12Z</time>
      </trkpt>
      <trkpt lat="45.3845" lon="6.74081">
        <ele>1729.6</ele>
        <time>2020-03-16T08:43:18Z</time>
      </trkpt>
      <trkpt lat="45.38452" lon="6.74086">
        <ele>1730.1</ele>
        <time>2020-03-16T08:43:22Z</time>
      </trkpt>
      <trkpt lat="45.38452" lon="6.74086">
        <ele>1730.2</ele>
        <time>2020-03-16T08:43:23Z</time>
      </trkpt>
      <trkpt lat="45.38461" lon="6.74107">
        <ele>1732.1</ele>
        <time>2020-03-16T08:43:44Z</time>
      </trkpt>
      <trkpt lat="45.38462" lon="6.74108">
        <ele>1732.2</ele>
        <time>2020-03-16T08:43:45Z</time>
      </trkpt>
      <trkpt lat="45.38466" lon="6.74111">
        <ele>1732.6</ele>
        <time>2020-03-16T08:43:49Z</time>
      </trkpt>
      <trkpt lat="45.38468" lon="6.74109">
        <ele>1733.2</ele>
        <time>2020-03-16T08:43:56Z</time>
      </trkpt>
      <trkpt lat="45.38471" lon="6.7411">
        <ele>1733.5</ele>
        <time>2020-03-16T08:44:00Z</time>
      </trkpt>
      <trkpt lat="45.38471" lon="6.74117">
        <ele>1734.7</ele>
        <time>2020-03-16T08:44:14Z</time>
      </trkpt>
      <trkpt lat="45.38471" lon="6.7412">
        <ele>1735.1</ele>
        <time>2020-03-16T08:44:19Z</time>
      </trkpt>
      <trkpt lat="45.38472" lon="6.74121">
        <ele>1735.2</ele>
        <time>2020-03-16T08:44:20Z</time>
      </trkpt>
      <trkpt lat="45.38472" lon="6.74122">
        <ele>1735.3</ele>
        <time>2020-03-16T08:44:21Z</time>
      </trkpt>
      <trkpt lat="45.38472" lon="6.74125">
        <ele>1735.8</ele>
        <time>2020-03-16T08:44:27Z</time>
      </trkpt>
      <trkpt lat="45.38473" lon="6.74132">
        <ele>1736.6</ele>
        <time>2020-03-16T08:44:36Z</time>
      </trkpt>
      <trkpt lat="45.38475" lon="6.74137">
        <ele>1737.3</ele>
        <time>2020-03-16T08:44:45Z</time>
      </trkpt>
      <trkpt lat="45.38479" lon="6.74143">
        <ele>1738.1</ele>
        <time>2020-03-16T08:44:54Z</time>
      </trkpt>
      <trkpt lat="45.38479" lon="6.74144">
        <ele>1738.2</ele>
        <time>2020-03-16T08:44:55Z</time>
      </trkpt>
      <trkpt lat="45.38482" lon="6.74145">
        <ele>1738.4</ele>
        <time>2020-03-16T08:44:58Z</time>
      </trkpt>
      <trkpt lat="45.38483" lon="6.74148">
        <ele>1738.9</ele>
        <time>2020-03-16T08:45:03Z</time>
      </trkpt>
      <trkpt lat="45.38484" lon="6.74149">
        <ele>1739</ele>
        <time>2020-03-16T08:45:05Z</time>
      </trkpt>
      <trkpt lat="45.38488" lon="6.74151">
        <ele>1739.5</ele>
        <time>2020-03-16T08:45:11Z</time>
      </trkpt>
      <trkpt lat="45.38493" lon="6.74157">
        <ele>1740.6</ele>
        <time>2020-03-16T08:45:24Z</time>
      </trkpt>
      <trkpt lat="45.38495" lon="6.74158">
        <ele>1740.7</ele>
        <time>2020-03-16T08:45:25Z</time>
      </trkpt>
      <trkpt lat="45.38498" lon="6.74162">
        <ele>1741.4</ele>
        <time>2020-03-16T08:45:32Z</time>
      </trkpt>
      <trkpt lat="45.38496" lon="6.74168">
        <ele>1742.2</ele>
        <time>2020-03-16T08:45:40Z</time>
      </trkpt>
      <trkpt lat="45.38496" lon="6.74171">
        <ele>1742.9</ele>
        <time>2020-03-16T08:45:48Z</time>
      </trkpt>
      <trkpt lat="45.38495" lon="6.74174">
        <ele>1743.9</ele>
        <time>2020-03-16T08:45:58Z</time>
      </trkpt>
      <trkpt lat="45.385" lon="6.74177">
        <ele>1744.9</ele>
        <time>2020-03-16T08:46:08Z</time>
      </trkpt>
      <trkpt lat="45.385" lon="6.74178">
        <ele>1745</ele>
        <time>2020-03-16T08:46:09Z</time>
      </trkpt>
      <trkpt lat="45.38504" lon="6.74185">
        <ele>1746.2</ele>
        <time>2020-03-16T08:46:20Z</time>
      </trkpt>
      <trkpt lat="45.38507" lon="6.74186">
        <ele>1746.8</ele>
        <time>2020-03-16T08:46:26Z</time>
      </trkpt>
      <trkpt lat="45.38508" lon="6.7419">
        <ele>1747.4</ele>
        <time>2020-03-16T08:46:31Z</time>
      </trkpt>
      <trkpt lat="45.38509" lon="6.74192">
        <ele>1747.6</ele>
        <time>2020-03-16T08:46:33Z</time>
      </trkpt>
      <trkpt lat="45.38512" lon="6.74194">
        <ele>1748.1</ele>
        <time>2020-03-16T08:46:38Z</time>
      </trkpt>
      <trkpt lat="45.38512" lon="6.74194">
        <ele>1748.2</ele>
        <time>2020-03-16T08:46:39Z</time>
      </trkpt>
      <trkpt lat="45.38523" lon="6.742">
        <ele>1749</ele>
        <time>2020-03-16T08:46:46Z</time>
      </trkpt>
      <trkpt lat="45.38527" lon="6.74206">
        <ele>1749.7</ele>
        <time>2020-03-16T08:46:52Z</time>
      </trkpt>
      <trkpt lat="45.38528" lon="6.74207">
        <ele>1749.8</ele>
        <time>2020-03-16T08:46:53Z</time>
      </trkpt>
      <trkpt lat="45.38533" lon="6.7421">
        <ele>1750.2</ele>
        <time>2020-03-16T08:46:56Z</time>
      </trkpt>
      <trkpt lat="45.3854" lon="6.74211">
        <ele>1751.1</ele>
        <time>2020-03-16T08:47:03Z</time>
      </trkpt>
      <trkpt lat="45.38542" lon="6.74213">
        <ele>1751.4</ele>
        <time>2020-03-16T08:47:05Z</time>
      </trkpt>
      <trkpt lat="45.38543" lon="6.74214">
        <ele>1751.5</ele>
        <time>2020-03-16T08:47:06Z</time>
      </trkpt>
      <trkpt lat="45.38547" lon="6.74215">
        <ele>1752.5</ele>
        <time>2020-03-16T08:47:13Z</time>
      </trkpt>
      <trkpt lat="45.38555" lon="6.74219">
        <ele>1753.7</ele>
        <time>2020-03-16T08:47:21Z</time>
      </trkpt>
      <trkpt lat="45.38556" lon="6.74221">
        <ele>1754.1</ele>
        <time>2020-03-16T08:47:24Z</time>
      </trkpt>
      <trkpt lat="45.38558" lon="6.74222">
        <ele>1754.3</ele>
        <time>2020-03-16T08:47:25Z</time>
      </trkpt>
      <trkpt lat="45.38557" lon="6.74222">
        <ele>1754.4</ele>
        <time>2020-03-16T08:47:26Z</time>
      </trkpt>
      <trkpt lat="45.38555" lon="6.74228">
        <ele>1755.5</ele>
        <time>2020-03-16T08:47:34Z</time>
      </trkpt>
      <trkpt lat="45.38556" lon="6.74235">
        <ele>1757.2</ele>
        <time>2020-03-16T08:47:46Z</time>
      </trkpt>
      <trkpt lat="45.38563" lon="6.74239">
        <ele>1758.8</ele>
        <time>2020-03-16T08:48:08Z</time>
      </trkpt>
      <trkpt lat="45.38563" lon="6.74239">
        <ele>1758.8</ele>
        <time>2020-03-16T08:48:09Z</time>
      </trkpt>
      <trkpt lat="45.38567" lon="6.74238">
        <ele>1760.3</ele>
        <time>2020-03-16T08:48:20Z</time>
      </trkpt>
      <trkpt lat="45.3858" lon="6.74241">
        <ele>1761.1</ele>
        <time>2020-03-16T08:48:26Z</time>
      </trkpt>
      <trkpt lat="45.38581" lon="6.74241">
        <ele>1761.3</ele>
        <time>2020-03-16T08:48:27Z</time>
      </trkpt>
      <trkpt lat="45.38588" lon="6.74245">
        <ele>1762.3</ele>
        <time>2020-03-16T08:48:34Z</time>
      </trkpt>
      <trkpt lat="45.3859" lon="6.74243">
        <ele>1762.9</ele>
        <time>2020-03-16T08:48:39Z</time>
      </trkpt>
      <trkpt lat="45.38592" lon="6.74244">
        <ele>1763.5</ele>
        <time>2020-03-16T08:48:43Z</time>
      </trkpt>
      <trkpt lat="45.38592" lon="6.74241">
        <ele>1764.7</ele>
        <time>2020-03-16T08:48:51Z</time>
      </trkpt>
      <trkpt lat="45.38594" lon="6.74241">
        <ele>1764.8</ele>
        <time>2020-03-16T08:48:52Z</time>
      </trkpt>
      <trkpt lat="45.38596" lon="6.74243">
        <ele>1765</ele>
        <time>2020-03-16T08:48:53Z</time>
      </trkpt>
      <trkpt lat="45.38597" lon="6.74245">
        <ele>1765.1</ele>
        <time>2020-03-16T08:48:54Z</time>
      </trkpt>
      <trkpt lat="45.38599" lon="6.74251">
        <ele>1765.7</ele>
        <time>2020-03-16T08:48:58Z</time>
      </trkpt>
      <trkpt lat="45.38599" lon="6.74247">
        <ele>1765</ele>
        <time>2020-03-16T08:49:00Z</time>
      </trkpt>
      <trkpt lat="45.386" lon="6.74252">
        <ele>1766.1</ele>
        <time>2020-03-16T08:49:01Z</time>
      </trkpt>
      <trkpt lat="45.38602" lon="6.74248">
        <ele>1766.9</ele>
        <time>2020-03-16T08:49:06Z</time>
      </trkpt>
      <trkpt lat="45.38599" lon="6.74247">
        <ele>1767.1</ele>
        <time>2020-03-16T08:49:08Z</time>
      </trkpt>
      <trkpt lat="45.38602" lon="6.74253">
        <ele>1767.2</ele>
        <time>2020-03-16T08:49:09Z</time>
      </trkpt>
      <trkpt lat="45.38604" lon="6.74257">
        <ele>1767.4</ele>
        <time>2020-03-16T08:49:10Z</time>
      </trkpt>
      <trkpt lat="45.38605" lon="6.74262">
        <ele>1767.7</ele>
        <time>2020-03-16T08:49:12Z</time>
      </trkpt>
      <trkpt lat="45.38604" lon="6.74254">
        <ele>1768.1</ele>
        <time>2020-03-16T08:49:15Z</time>
      </trkpt>
      <trkpt lat="45.38605" lon="6.74252">
        <ele>1768.3</ele>
        <time>2020-03-16T08:49:16Z</time>
      </trkpt>
      <trkpt lat="45.3861" lon="6.74261">
        <ele>1768.8</ele>
        <time>2020-03-16T08:49:20Z</time>
      </trkpt>
      <trkpt lat="45.38611" lon="6.74261">
        <ele>1769</ele>
        <time>2020-03-16T08:49:21Z</time>
      </trkpt>
      <trkpt lat="45.38609" lon="6.74247">
        <ele>1769.4</ele>
        <time>2020-03-16T08:49:24Z</time>
      </trkpt>
      <trkpt lat="45.38612" lon="6.7426">
        <ele>1769.8</ele>
        <time>2020-03-16T08:49:27Z</time>
      </trkpt>
      <trkpt lat="45.38613" lon="6.74261">
        <ele>1770.9</ele>
        <time>2020-03-16T08:49:35Z</time>
      </trkpt>
      <trkpt lat="45.38615" lon="6.74266">
        <ele>1771.1</ele>
        <time>2020-03-16T08:49:37Z</time>
      </trkpt>
      <trkpt lat="45.38615" lon="6.74267">
        <ele>1771.2</ele>
        <time>2020-03-16T08:49:38Z</time>
      </trkpt>
      <trkpt lat="45.38615" lon="6.74268">
        <ele>1771.3</ele>
        <time>2020-03-16T08:49:39Z</time>
      </trkpt>
      <trkpt lat="45.3862" lon="6.74269">
        <ele>1772.5</ele>
        <time>2020-03-16T08:49:48Z</time>
      </trkpt>
      <trkpt lat="45.38623" lon="6.74273">
        <ele>1773.5</ele>
        <time>2020-03-16T08:49:56Z</time>
      </trkpt>
      <trkpt lat="45.38625" lon="6.74272">
        <ele>1773.9</ele>
        <time>2020-03-16T08:49:59Z</time>
      </trkpt>
      <trkpt lat="45.38625" lon="6.74269">
        <ele>1774.3</ele>
        <time>2020-03-16T08:50:02Z</time>
      </trkpt>
      <trkpt lat="45.38625" lon="6.74266">
        <ele>1774.6</ele>
        <time>2020-03-16T08:50:05Z</time>
      </trkpt>
      <trkpt lat="45.38623" lon="6.74266">
        <ele>1774.7</ele>
        <time>2020-03-16T08:50:06Z</time>
      </trkpt>
      <trkpt lat="45.38622" lon="6.74267">
        <ele>1774.9</ele>
        <time>2020-03-16T08:50:07Z</time>
      </trkpt>
      <trkpt lat="45.38622" lon="6.74269">
        <ele>1775</ele>
        <time>2020-03-16T08:50:08Z</time>
      </trkpt>
      <trkpt lat="45.38624" lon="6.74269">
        <ele>1775.1</ele>
        <time>2020-03-16T08:50:09Z</time>
      </trkpt>
      <trkpt lat="45.38625" lon="6.74271">
        <ele>1776.3</ele>
        <time>2020-03-16T08:50:17Z</time>
      </trkpt>
      <trkpt lat="45.3862" lon="6.74276">
        <ele>1776.4</ele>
        <time>2020-03-16T08:50:18Z</time>
      </trkpt>
      <trkpt lat="45.38613" lon="6.74281">
        <ele>1776.7</ele>
        <time>2020-03-16T08:50:20Z</time>
      </trkpt>
      <trkpt lat="45.38616" lon="6.74288">
        <ele>1779.4</ele>
        <time>2020-03-16T08:50:35Z</time>
      </trkpt>
      <trkpt lat="45.38616" lon="6.7429">
        <ele>1779.6</ele>
        <time>2020-03-16T08:50:36Z</time>
      </trkpt>
      <trkpt lat="45.38621" lon="6.74289">
        <ele>1781.6</ele>
        <time>2020-03-16T08:50:47Z</time>
      </trkpt>
      <trkpt lat="45.38626" lon="6.74294">
        <ele>1784.6</ele>
        <time>2020-03-16T08:51:01Z</time>
      </trkpt>
      <trkpt lat="45.38629" lon="6.743">
        <ele>1785.9</ele>
        <time>2020-03-16T08:51:07Z</time>
      </trkpt>
      <trkpt lat="45.3863" lon="6.743">
        <ele>1786.1</ele>
        <time>2020-03-16T08:51:08Z</time>
      </trkpt>
      <trkpt lat="45.38639" lon="6.74298">
        <ele>1786.8</ele>
        <time>2020-03-16T08:51:11Z</time>
      </trkpt>
      <trkpt lat="45.38642" lon="6.74298">
        <ele>1787.5</ele>
        <time>2020-03-16T08:51:14Z</time>
      </trkpt>
      <trkpt lat="45.38645" lon="6.74301">
        <ele>1788.4</ele>
        <time>2020-03-16T08:51:18Z</time>
      </trkpt>
      <trkpt lat="45.38646" lon="6.74304">
        <ele>1788.9</ele>
        <time>2020-03-16T08:51:20Z</time>
      </trkpt>
      <trkpt lat="45.38644" lon="6.74307">
        <ele>1789.2</ele>
        <time>2020-03-16T08:51:21Z</time>
      </trkpt>
      <trkpt lat="45.38643" lon="6.74312">
        <ele>1789.4</ele>
        <time>2020-03-16T08:51:22Z</time>
      </trkpt>
      <trkpt lat="45.38644" lon="6.74312">
        <ele>1789.6</ele>
        <time>2020-03-16T08:51:23Z</time>
      </trkpt>
      <trkpt lat="45.38642" lon="6.74314">
        <ele>1790.8</ele>
        <time>2020-03-16T08:51:28Z</time>
      </trkpt>
      <trkpt lat="45.38641" lon="6.74321">
        <ele>1795</ele>
        <time>2020-03-16T08:51:46Z</time>
      </trkpt>
      <trkpt lat="45.38644" lon="6.74327">
        <ele>1796.9</ele>
        <time>2020-03-16T08:51:55Z</time>
      </trkpt>
      <trkpt lat="45.38646" lon="6.74329">
        <ele>1797.6</ele>
        <time>2020-03-16T08:51:58Z</time>
      </trkpt>
      <trkpt lat="45.38647" lon="6.74333">
        <ele>1798.2</ele>
        <time>2020-03-16T08:52:01Z</time>
      </trkpt>
      <trkpt lat="45.38647" lon="6.74333">
        <ele>1798.4</ele>
        <time>2020-03-16T08:52:02Z</time>
      </trkpt>
      <trkpt lat="45.38654" lon="6.74349">
        <ele>1803.6</ele>
        <time>2020-03-16T08:52:30Z</time>
      </trkpt>
      <trkpt lat="45.38659" lon="6.7435">
        <ele>1805.3</ele>
        <time>2020-03-16T08:52:40Z</time>
      </trkpt>
      <trkpt lat="45.3866" lon="6.74351">
        <ele>1805.5</ele>
        <time>2020-03-16T08:52:41Z</time>
      </trkpt>
      <trkpt lat="45.38666" lon="6.74351">
        <ele>1806.4</ele>
        <time>2020-03-16T08:52:47Z</time>
      </trkpt>
      <trkpt lat="45.38668" lon="6.74353">
        <ele>1807.1</ele>
        <time>2020-03-16T08:52:51Z</time>
      </trkpt>
      <trkpt lat="45.38674" lon="6.74355">
        <ele>1807.7</ele>
        <time>2020-03-16T08:52:55Z</time>
      </trkpt>
      <trkpt lat="45.38676" lon="6.74357">
        <ele>1808</ele>
        <time>2020-03-16T08:52:57Z</time>
      </trkpt>
      <trkpt lat="45.38677" lon="6.74358">
        <ele>1808.2</ele>
        <time>2020-03-16T08:52:58Z</time>
      </trkpt>
      <trkpt lat="45.38681" lon="6.74361">
        <ele>1810.3</ele>
        <time>2020-03-16T08:53:11Z</time>
      </trkpt>
      <trkpt lat="45.38684" lon="6.74371">
        <ele>1810.8</ele>
        <time>2020-03-16T08:53:14Z</time>
      </trkpt>
      <trkpt lat="45.38682" lon="6.74366">
        <ele>1811.8</ele>
        <time>2020-03-16T08:53:20Z</time>
      </trkpt>
      <trkpt lat="45.38682" lon="6.74366">
        <ele>1812</ele>
        <time>2020-03-16T08:53:21Z</time>
      </trkpt>
      <trkpt lat="45.38682" lon="6.74365">
        <ele>1812</ele>
        <time>2020-03-16T08:53:22Z</time>
      </trkpt>
      <trkpt lat="45.38681" lon="6.74367">
        <ele>1812.6</ele>
        <time>2020-03-16T08:53:40Z</time>
      </trkpt>
      <trkpt lat="45.38683" lon="6.74368">
        <ele>1813</ele>
        <time>2020-03-16T08:53:42Z</time>
      </trkpt>
      <trkpt lat="45.38688" lon="6.74387">
        <ele>1814.9</ele>
        <time>2020-03-16T08:53:58Z</time>
      </trkpt>
      <trkpt lat="45.38688" lon="6.74387">
        <ele>1814.9</ele>
        <time>2020-03-16T08:53:59Z</time>
      </trkpt>
      <trkpt lat="45.38693" lon="6.74396">
        <ele>1815.9</ele>
        <time>2020-03-16T08:54:07Z</time>
      </trkpt>
      <trkpt lat="45.38696" lon="6.74407">
        <ele>1817</ele>
        <time>2020-03-16T08:54:13Z</time>
      </trkpt>
      <trkpt lat="45.38696" lon="6.74409">
        <ele>1817.2</ele>
        <time>2020-03-16T08:54:14Z</time>
      </trkpt>
      <trkpt lat="45.38697" lon="6.74415">
        <ele>1818.1</ele>
        <time>2020-03-16T08:54:20Z</time>
      </trkpt>
      <trkpt lat="45.38697" lon="6.74417">
        <ele>1818.4</ele>
        <time>2020-03-16T08:54:22Z</time>
      </trkpt>
      <trkpt lat="45.387" lon="6.74423">
        <ele>1819.6</ele>
        <time>2020-03-16T08:54:31Z</time>
      </trkpt>
      <trkpt lat="45.38701" lon="6.74429">
        <ele>1821</ele>
        <time>2020-03-16T08:54:42Z</time>
      </trkpt>
      <trkpt lat="45.38701" lon="6.7443">
        <ele>1821.1</ele>
        <time>2020-03-16T08:54:43Z</time>
      </trkpt>
      <trkpt lat="45.38701" lon="6.74435">
        <ele>1821.4</ele>
        <time>2020-03-16T08:54:46Z</time>
      </trkpt>
      <trkpt lat="45.38704" lon="6.74445">
        <ele>1822.6</ele>
        <time>2020-03-16T08:54:58Z</time>
      </trkpt>
      <trkpt lat="45.38705" lon="6.74453">
        <ele>1823.1</ele>
        <time>2020-03-16T08:55:04Z</time>
      </trkpt>
      <trkpt lat="45.38706" lon="6.74452">
        <ele>1823.2</ele>
        <time>2020-03-16T08:55:05Z</time>
      </trkpt>
      <trkpt lat="45.38707" lon="6.74458">
        <ele>1823.8</ele>
        <time>2020-03-16T08:55:12Z</time>
      </trkpt>
      <trkpt lat="45.38706" lon="6.74463">
        <ele>1824</ele>
        <time>2020-03-16T08:55:15Z</time>
      </trkpt>
      <trkpt lat="45.38704" lon="6.74461">
        <ele>1824.3</ele>
        <time>2020-03-16T08:55:25Z</time>
      </trkpt>
      <trkpt lat="45.38704" lon="6.74467">
        <ele>1825.1</ele>
        <time>2020-03-16T08:55:42Z</time>
      </trkpt>
      <trkpt lat="45.38706" lon="6.74471">
        <ele>1825.4</ele>
        <time>2020-03-16T08:55:46Z</time>
      </trkpt>
      <trkpt lat="45.38706" lon="6.74472">
        <ele>1825.5</ele>
        <time>2020-03-16T08:55:47Z</time>
      </trkpt>
      <trkpt lat="45.38706" lon="6.74484">
        <ele>1826.3</ele>
        <time>2020-03-16T08:55:57Z</time>
      </trkpt>
      <trkpt lat="45.38705" lon="6.7449">
        <ele>1826.7</ele>
        <time>2020-03-16T08:56:03Z</time>
      </trkpt>
      <trkpt lat="45.38706" lon="6.74498">
        <ele>1827.1</ele>
        <time>2020-03-16T08:56:09Z</time>
      </trkpt>
      <trkpt lat="45.38707" lon="6.74499">
        <ele>1827.2</ele>
        <time>2020-03-16T08:56:10Z</time>
      </trkpt>
      <trkpt lat="45.38707" lon="6.74498">
        <ele>1827.3</ele>
        <time>2020-03-16T08:56:11Z</time>
      </trkpt>
      <trkpt lat="45.38705" lon="6.745">
        <ele>1827.5</ele>
        <time>2020-03-16T08:56:14Z</time>
      </trkpt>
      <trkpt lat="45.38708" lon="6.74506">
        <ele>1827.9</ele>
        <time>2020-03-16T08:56:20Z</time>
      </trkpt>
      <trkpt lat="45.38707" lon="6.74509">
        <ele>1828</ele>
        <time>2020-03-16T08:56:22Z</time>
      </trkpt>
      <trkpt lat="45.38708" lon="6.7452">
        <ele>1828.8</ele>
        <time>2020-03-16T08:56:33Z</time>
      </trkpt>
      <trkpt lat="45.38709" lon="6.74521">
        <ele>1828.8</ele>
        <time>2020-03-16T08:56:34Z</time>
      </trkpt>
      <trkpt lat="45.38709" lon="6.74523">
        <ele>1828.9</ele>
        <time>2020-03-16T08:56:35Z</time>
      </trkpt>
      <trkpt lat="45.38709" lon="6.74528">
        <ele>1829.4</ele>
        <time>2020-03-16T08:56:42Z</time>
      </trkpt>
      <trkpt lat="45.38709" lon="6.74526">
        <ele>1829.5</ele>
        <time>2020-03-16T08:56:44Z</time>
      </trkpt>
      <trkpt lat="45.38705" lon="6.74523">
        <ele>1829.9</ele>
        <time>2020-03-16T08:57:15Z</time>
      </trkpt>
      <trkpt lat="45.38705" lon="6.74527">
        <ele>1830.4</ele>
        <time>2020-03-16T08:57:20Z</time>
      </trkpt>
      <trkpt lat="45.38708" lon="6.74533">
        <ele>1831.2</ele>
        <time>2020-03-16T08:57:27Z</time>
      </trkpt>
      <trkpt lat="45.38709" lon="6.74535">
        <ele>1831.3</ele>
        <time>2020-03-16T08:57:28Z</time>
      </trkpt>
      <trkpt lat="45.3871" lon="6.74537">
        <ele>1831.7</ele>
        <time>2020-03-16T08:57:32Z</time>
      </trkpt>
      <trkpt lat="45.38711" lon="6.74547">
        <ele>1833</ele>
        <time>2020-03-16T08:57:47Z</time>
      </trkpt>
      <trkpt lat="45.38708" lon="6.74545">
        <ele>1833.4</ele>
        <time>2020-03-16T08:57:50Z</time>
      </trkpt>
      <trkpt lat="45.3871" lon="6.74549">
        <ele>1834.1</ele>
        <time>2020-03-16T08:57:58Z</time>
      </trkpt>
      <trkpt lat="45.3871" lon="6.74549">
        <ele>1834.2</ele>
        <time>2020-03-16T08:57:59Z</time>
      </trkpt>
      <trkpt lat="45.3871" lon="6.74552">
        <ele>1834.3</ele>
        <time>2020-03-16T08:58:00Z</time>
      </trkpt>
      <trkpt lat="45.38713" lon="6.74561">
        <ele>1835.7</ele>
        <time>2020-03-16T08:58:13Z</time>
      </trkpt>
      <trkpt lat="45.38712" lon="6.74571">
        <ele>1836.7</ele>
        <time>2020-03-16T08:58:24Z</time>
      </trkpt>
      <trkpt lat="45.38712" lon="6.74572">
        <ele>1836.8</ele>
        <time>2020-03-16T08:58:25Z</time>
      </trkpt>
      <trkpt lat="45.38703" lon="6.74562">
        <ele>1837</ele>
        <time>2020-03-16T08:58:27Z</time>
      </trkpt>
      <trkpt lat="45.38699" lon="6.74552">
        <ele>1837.7</ele>
        <time>2020-03-16T08:58:33Z</time>
      </trkpt>
      <trkpt lat="45.38697" lon="6.7455">
        <ele>1838</ele>
        <time>2020-03-16T08:58:35Z</time>
      </trkpt>
      <trkpt lat="45.38695" lon="6.74547">
        <ele>1838.5</ele>
        <time>2020-03-16T08:58:40Z</time>
      </trkpt>
      <trkpt lat="45.38695" lon="6.74547">
        <ele>1838.6</ele>
        <time>2020-03-16T08:58:41Z</time>
      </trkpt>
      <trkpt lat="45.38697" lon="6.74564">
        <ele>1840</ele>
        <time>2020-03-16T08:58:58Z</time>
      </trkpt>
      <trkpt lat="45.387" lon="6.74573">
        <ele>1840.4</ele>
        <time>2020-03-16T08:59:00Z</time>
      </trkpt>
      <trkpt lat="45.38701" lon="6.74571">
        <ele>1841</ele>
        <time>2020-03-16T08:59:11Z</time>
      </trkpt>
      <trkpt lat="45.387" lon="6.74568">
        <ele>1841.4</ele>
        <time>2020-03-16T08:59:29Z</time>
      </trkpt>
      <trkpt lat="45.38698" lon="6.74569">
        <ele>1842.1</ele>
        <time>2020-03-16T08:59:45Z</time>
      </trkpt>
      <trkpt lat="45.38697" lon="6.74568">
        <ele>1842.2</ele>
        <time>2020-03-16T08:59:46Z</time>
      </trkpt>
      <trkpt lat="45.38698" lon="6.74569">
        <ele>1842.2</ele>
        <time>2020-03-16T08:59:47Z</time>
      </trkpt>
      <trkpt lat="45.38701" lon="6.74573">
        <ele>1846.5</ele>
        <time>2020-03-16T09:00:18Z</time>
      </trkpt>
      <trkpt lat="45.38699" lon="6.74574">
        <ele>1848.7</ele>
        <time>2020-03-16T09:00:27Z</time>
      </trkpt>
      <trkpt lat="45.38698" lon="6.74578">
        <ele>1849.3</ele>
        <time>2020-03-16T09:00:30Z</time>
      </trkpt>
      <trkpt lat="45.38699" lon="6.74589">
        <ele>1851.2</ele>
        <time>2020-03-16T09:00:39Z</time>
      </trkpt>
      <trkpt lat="45.38698" lon="6.74591">
        <ele>1851.4</ele>
        <time>2020-03-16T09:00:40Z</time>
      </trkpt>
      <trkpt lat="45.38704" lon="6.74611">
        <ele>1853.1</ele>
        <time>2020-03-16T09:00:48Z</time>
      </trkpt>
      <trkpt lat="45.38706" lon="6.74614">
        <ele>1853.4</ele>
        <time>2020-03-16T09:00:50Z</time>
      </trkpt>
      <trkpt lat="45.38707" lon="6.74616">
        <ele>1853.6</ele>
        <time>2020-03-16T09:00:51Z</time>
      </trkpt>
      <trkpt lat="45.38708" lon="6.74618">
        <ele>1853.8</ele>
        <time>2020-03-16T09:00:52Z</time>
      </trkpt>
      <trkpt lat="45.38707" lon="6.74615">
        <ele>1854.9</ele>
        <time>2020-03-16T09:01:27Z</time>
      </trkpt>
      <trkpt lat="45.38705" lon="6.74614">
        <ele>1855</ele>
        <time>2020-03-16T09:01:32Z</time>
      </trkpt>
      <trkpt lat="45.38704" lon="6.74617">
        <ele>1855.3</ele>
        <time>2020-03-16T09:01:33Z</time>
      </trkpt>
      <trkpt lat="45.38707" lon="6.74627">
        <ele>1858.1</ele>
        <time>2020-03-16T09:02:05Z</time>
      </trkpt>
      <trkpt lat="45.38707" lon="6.74628">
        <ele>1858.4</ele>
        <time>2020-03-16T09:02:06Z</time>
      </trkpt>
      <trkpt lat="45.38709" lon="6.74632">
        <ele>1859.1</ele>
        <time>2020-03-16T09:02:09Z</time>
      </trkpt>
      <trkpt lat="45.38714" lon="6.74649">
        <ele>1861.4</ele>
        <time>2020-03-16T09:02:21Z</time>
      </trkpt>
      <trkpt lat="45.38714" lon="6.7465">
        <ele>1861.6</ele>
        <time>2020-03-16T09:02:22Z</time>
      </trkpt>
      <trkpt lat="45.38717" lon="6.74663">
        <ele>1863.9</ele>
        <time>2020-03-16T09:02:37Z</time>
      </trkpt>
      <trkpt lat="45.38714" lon="6.74665">
        <ele>1864.7</ele>
        <time>2020-03-16T09:02:43Z</time>
      </trkpt>
      <trkpt lat="45.38713" lon="6.7467">
        <ele>1865.2</ele>
        <time>2020-03-16T09:02:47Z</time>
      </trkpt>
      <trkpt lat="45.38714" lon="6.74671">
        <ele>1865.4</ele>
        <time>2020-03-16T09:02:48Z</time>
      </trkpt>
      <trkpt lat="45.38715" lon="6.74674">
        <ele>1865.8</ele>
        <time>2020-03-16T09:02:52Z</time>
      </trkpt>
      <trkpt lat="45.38715" lon="6.74677">
        <ele>1866.2</ele>
        <time>2020-03-16T09:02:55Z</time>
      </trkpt>
      <trkpt lat="45.38714" lon="6.74681">
        <ele>1866.5</ele>
        <time>2020-03-16T09:02:58Z</time>
      </trkpt>
      <trkpt lat="45.38711" lon="6.74677">
        <ele>1866.6</ele>
        <time>2020-03-16T09:02:59Z</time>
      </trkpt>
      <trkpt lat="45.38711" lon="6.7468">
        <ele>1867.2</ele>
        <time>2020-03-16T09:03:04Z</time>
      </trkpt>
      <trkpt lat="45.38712" lon="6.74683">
        <ele>1867.5</ele>
        <time>2020-03-16T09:03:07Z</time>
      </trkpt>
      <trkpt lat="45.38712" lon="6.74685">
        <ele>1867.6</ele>
        <time>2020-03-16T09:03:08Z</time>
      </trkpt>
      <trkpt lat="45.38718" lon="6.74694">
        <ele>1868.3</ele>
        <time>2020-03-16T09:03:16Z</time>
      </trkpt>
      <trkpt lat="45.38717" lon="6.74698">
        <ele>1868.6</ele>
        <time>2020-03-16T09:03:19Z</time>
      </trkpt>
      <trkpt lat="45.38719" lon="6.74703">
        <ele>1869.1</ele>
        <time>2020-03-16T09:03:24Z</time>
      </trkpt>
      <trkpt lat="45.3872" lon="6.74704">
        <ele>1869.2</ele>
        <time>2020-03-16T09:03:25Z</time>
      </trkpt>
      <trkpt lat="45.38721" lon="6.74705">
        <ele>1869.3</ele>
        <time>2020-03-16T09:03:26Z</time>
      </trkpt>
      <trkpt lat="45.3872" lon="6.74708">
        <ele>1869.6</ele>
        <time>2020-03-16T09:03:29Z</time>
      </trkpt>
      <trkpt lat="45.38722" lon="6.74712">
        <ele>1870.4</ele>
        <time>2020-03-16T09:03:37Z</time>
      </trkpt>
      <trkpt lat="45.38722" lon="6.74713">
        <ele>1870.6</ele>
        <time>2020-03-16T09:03:40Z</time>
      </trkpt>
      <trkpt lat="45.38719" lon="6.7471">
        <ele>1870.7</ele>
        <time>2020-03-16T09:03:41Z</time>
      </trkpt>
      <trkpt lat="45.38721" lon="6.74718">
        <ele>1871.7</ele>
        <time>2020-03-16T09:03:51Z</time>
      </trkpt>
      <trkpt lat="45.38721" lon="6.74719">
        <ele>1871.8</ele>
        <time>2020-03-16T09:03:52Z</time>
      </trkpt>
      <trkpt lat="45.38726" lon="6.74729">
        <ele>1873</ele>
        <time>2020-03-16T09:04:04Z</time>
      </trkpt>
      <trkpt lat="45.38725" lon="6.74732">
        <ele>1873.1</ele>
        <time>2020-03-16T09:04:05Z</time>
      </trkpt>
      <trkpt lat="45.38726" lon="6.74738">
        <ele>1874.3</ele>
        <time>2020-03-16T09:04:16Z</time>
      </trkpt>
      <trkpt lat="45.38724" lon="6.74739">
        <ele>1874.5</ele>
        <time>2020-03-16T09:04:17Z</time>
      </trkpt>
      <trkpt lat="45.38726" lon="6.74741">
        <ele>1874.6</ele>
        <time>2020-03-16T09:04:18Z</time>
      </trkpt>
      <trkpt lat="45.38729" lon="6.74747">
        <ele>1875.7</ele>
        <time>2020-03-16T09:04:27Z</time>
      </trkpt>
      <trkpt lat="45.38729" lon="6.7475">
        <ele>1876.1</ele>
        <time>2020-03-16T09:04:30Z</time>
      </trkpt>
      <trkpt lat="45.38732" lon="6.74751">
        <ele>1876.7</ele>
        <time>2020-03-16T09:04:34Z</time>
      </trkpt>
      <trkpt lat="45.38734" lon="6.74754">
        <ele>1877.1</ele>
        <time>2020-03-16T09:04:37Z</time>
      </trkpt>
      <trkpt lat="45.38734" lon="6.74757">
        <ele>1877.6</ele>
        <time>2020-03-16T09:04:40Z</time>
      </trkpt>
      <trkpt lat="45.38732" lon="6.74759">
        <ele>1877.7</ele>
        <time>2020-03-16T09:04:41Z</time>
      </trkpt>
      <trkpt lat="45.3873" lon="6.74761">
        <ele>1877.9</ele>
        <time>2020-03-16T09:04:42Z</time>
      </trkpt>
      <trkpt lat="45.38728" lon="6.7475">
        <ele>1878.3</ele>
        <time>2020-03-16T09:05:07Z</time>
      </trkpt>
      <trkpt lat="45.38732" lon="6.74755">
        <ele>1880.9</ele>
        <time>2020-03-16T09:05:18Z</time>
      </trkpt>
      <trkpt lat="45.38731" lon="6.74762">
        <ele>1882.6</ele>
        <time>2020-03-16T09:05:25Z</time>
      </trkpt>
      <trkpt lat="45.38732" lon="6.74763">
        <ele>1882.9</ele>
        <time>2020-03-16T09:05:26Z</time>
      </trkpt>
      <trkpt lat="45.38734" lon="6.74767">
        <ele>1884</ele>
        <time>2020-03-16T09:05:31Z</time>
      </trkpt>
      <trkpt lat="45.38733" lon="6.7477">
        <ele>1884.7</ele>
        <time>2020-03-16T09:05:35Z</time>
      </trkpt>
      <trkpt lat="45.38739" lon="6.74786">
        <ele>1890.2</ele>
        <time>2020-03-16T09:06:06Z</time>
      </trkpt>
      <trkpt lat="45.3874" lon="6.74788">
        <ele>1890.4</ele>
        <time>2020-03-16T09:06:07Z</time>
      </trkpt>
      <trkpt lat="45.38746" lon="6.74796">
        <ele>1892</ele>
        <time>2020-03-16T09:06:16Z</time>
      </trkpt>
      <trkpt lat="45.38748" lon="6.74803">
        <ele>1894.1</ele>
        <time>2020-03-16T09:06:28Z</time>
      </trkpt>
      <trkpt lat="45.3875" lon="6.74806">
        <ele>1894.9</ele>
        <time>2020-03-16T09:06:34Z</time>
      </trkpt>
      <trkpt lat="45.3875" lon="6.74806">
        <ele>1895.1</ele>
        <time>2020-03-16T09:06:35Z</time>
      </trkpt>
      <trkpt lat="45.38755" lon="6.74811">
        <ele>1896.1</ele>
        <time>2020-03-16T09:06:41Z</time>
      </trkpt>
      <trkpt lat="45.3876" lon="6.7482">
        <ele>1897.7</ele>
        <time>2020-03-16T09:06:51Z</time>
      </trkpt>
      <trkpt lat="45.3876" lon="6.74824">
        <ele>1898.5</ele>
        <time>2020-03-16T09:06:57Z</time>
      </trkpt>
      <trkpt lat="45.3876" lon="6.74825">
        <ele>1898.7</ele>
        <time>2020-03-16T09:06:58Z</time>
      </trkpt>
      <trkpt lat="45.38761" lon="6.74829">
        <ele>1899.3</ele>
        <time>2020-03-16T09:07:02Z</time>
      </trkpt>
      <trkpt lat="45.38769" lon="6.74835">
        <ele>1901.3</ele>
        <time>2020-03-16T09:07:16Z</time>
      </trkpt>
      <trkpt lat="45.38767" lon="6.74839">
        <ele>1901.8</ele>
        <time>2020-03-16T09:07:20Z</time>
      </trkpt>
      <trkpt lat="45.38765" lon="6.74839">
        <ele>1901.9</ele>
        <time>2020-03-16T09:07:21Z</time>
      </trkpt>
      <trkpt lat="45.38765" lon="6.7484">
        <ele>1902</ele>
        <time>2020-03-16T09:07:22Z</time>
      </trkpt>
      <trkpt lat="45.38764" lon="6.7484">
        <ele>1902.2</ele>
        <time>2020-03-16T09:07:23Z</time>
      </trkpt>
      <trkpt lat="45.38766" lon="6.74842">
        <ele>1902.6</ele>
        <time>2020-03-16T09:07:26Z</time>
      </trkpt>
      <trkpt lat="45.38766" lon="6.74846">
        <ele>1903.1</ele>
        <time>2020-03-16T09:07:30Z</time>
      </trkpt>
      <trkpt lat="45.38768" lon="6.7485">
        <ele>1904</ele>
        <time>2020-03-16T09:07:36Z</time>
      </trkpt>
      <trkpt lat="45.38767" lon="6.74854">
        <ele>1904.7</ele>
        <time>2020-03-16T09:07:41Z</time>
      </trkpt>
      <trkpt lat="45.38771" lon="6.74859">
        <ele>1905.8</ele>
        <time>2020-03-16T09:07:48Z</time>
      </trkpt>
      <trkpt lat="45.38772" lon="6.74859">
        <ele>1905.9</ele>
        <time>2020-03-16T09:07:49Z</time>
      </trkpt>
      <trkpt lat="45.3878" lon="6.74862">
        <ele>1906.9</ele>
        <time>2020-03-16T09:07:55Z</time>
      </trkpt>
      <trkpt lat="45.38779" lon="6.74868">
        <ele>1908.1</ele>
        <time>2020-03-16T09:08:01Z</time>
      </trkpt>
      <trkpt lat="45.38776" lon="6.74871">
        <ele>1908.8</ele>
        <time>2020-03-16T09:08:05Z</time>
      </trkpt>
      <trkpt lat="45.38779" lon="6.74871">
        <ele>1909</ele>
        <time>2020-03-16T09:08:06Z</time>
      </trkpt>
      <trkpt lat="45.38781" lon="6.74873">
        <ele>1909.6</ele>
        <time>2020-03-16T09:08:09Z</time>
      </trkpt>
      <trkpt lat="45.38782" lon="6.74876">
        <ele>1912.5</ele>
        <time>2020-03-16T09:08:22Z</time>
      </trkpt>
      <trkpt lat="45.38781" lon="6.74878">
        <ele>1913.6</ele>
        <time>2020-03-16T09:08:27Z</time>
      </trkpt>
      <trkpt lat="45.38781" lon="6.74882">
        <ele>1914.8</ele>
        <time>2020-03-16T09:08:32Z</time>
      </trkpt>
      <trkpt lat="45.38783" lon="6.74884">
        <ele>1915.2</ele>
        <time>2020-03-16T09:08:34Z</time>
      </trkpt>
      <trkpt lat="45.38784" lon="6.74887">
        <ele>1916.3</ele>
        <time>2020-03-16T09:08:39Z</time>
      </trkpt>
      <trkpt lat="45.38785" lon="6.74888">
        <ele>1916.6</ele>
        <time>2020-03-16T09:08:40Z</time>
      </trkpt>
      <trkpt lat="45.38789" lon="6.749">
        <ele>1920.7</ele>
        <time>2020-03-16T09:08:59Z</time>
      </trkpt>
      <trkpt lat="45.38789" lon="6.74904">
        <ele>1921.6</ele>
        <time>2020-03-16T09:09:03Z</time>
      </trkpt>
      <trkpt lat="45.38793" lon="6.74909">
        <ele>1923.4</ele>
        <time>2020-03-16T09:09:11Z</time>
      </trkpt>
      <trkpt lat="45.38792" lon="6.74909">
        <ele>1923.7</ele>
        <time>2020-03-16T09:09:12Z</time>
      </trkpt>
      <trkpt lat="45.3879" lon="6.74912">
        <ele>1925.6</ele>
        <time>2020-03-16T09:09:20Z</time>
      </trkpt>
      <trkpt lat="45.3879" lon="6.74915">
        <ele>1926.9</ele>
        <time>2020-03-16T09:09:25Z</time>
      </trkpt>
      <trkpt lat="45.38795" lon="6.74921">
        <ele>1928.9</ele>
        <time>2020-03-16T09:09:33Z</time>
      </trkpt>
      <trkpt lat="45.388" lon="6.74923">
        <ele>1929.7</ele>
        <time>2020-03-16T09:09:36Z</time>
      </trkpt>
      <trkpt lat="45.38801" lon="6.74924">
        <ele>1929.9</ele>
        <time>2020-03-16T09:09:37Z</time>
      </trkpt>
      <trkpt lat="45.38802" lon="6.74924">
        <ele>1930.2</ele>
        <time>2020-03-16T09:09:38Z</time>
      </trkpt>
      <trkpt lat="45.38807" lon="6.7493">
        <ele>1931.4</ele>
        <time>2020-03-16T09:09:43Z</time>
      </trkpt>
      <trkpt lat="45.38814" lon="6.74941">
        <ele>1933.9</ele>
        <time>2020-03-16T09:09:54Z</time>
      </trkpt>
      <trkpt lat="45.38815" lon="6.74941">
        <ele>1934.1</ele>
        <time>2020-03-16T09:09:55Z</time>
      </trkpt>
      <trkpt lat="45.38816" lon="6.74944">
        <ele>1934.7</ele>
        <time>2020-03-16T09:09:59Z</time>
      </trkpt>
      <trkpt lat="45.38818" lon="6.74945">
        <ele>1935.1</ele>
        <time>2020-03-16T09:10:01Z</time>
      </trkpt>
      <trkpt lat="45.38819" lon="6.74945">
        <ele>1935.3</ele>
        <time>2020-03-16T09:10:02Z</time>
      </trkpt>
      <trkpt lat="45.38823" lon="6.74947">
        <ele>1936.3</ele>
        <time>2020-03-16T09:10:07Z</time>
      </trkpt>
      <trkpt lat="45.38824" lon="6.74949">
        <ele>1936.5</ele>
        <time>2020-03-16T09:10:08Z</time>
      </trkpt>
      <trkpt lat="45.38824" lon="6.74954">
        <ele>1936.9</ele>
        <time>2020-03-16T09:10:11Z</time>
      </trkpt>
      <trkpt lat="45.38823" lon="6.74953">
        <ele>1937.1</ele>
        <time>2020-03-16T09:10:12Z</time>
      </trkpt>
      <trkpt lat="45.38824" lon="6.74954">
        <ele>1938</ele>
        <time>2020-03-16T09:10:17Z</time>
      </trkpt>
      <trkpt lat="45.38825" lon="6.74957">
        <ele>1939</ele>
        <time>2020-03-16T09:10:23Z</time>
      </trkpt>
      <trkpt lat="45.38826" lon="6.74959">
        <ele>1939.3</ele>
        <time>2020-03-16T09:10:25Z</time>
      </trkpt>
      <trkpt lat="45.38824" lon="6.74961">
        <ele>1941.3</ele>
        <time>2020-03-16T09:10:37Z</time>
      </trkpt>
      <trkpt lat="45.38824" lon="6.74965">
        <ele>1943.1</ele>
        <time>2020-03-16T09:10:47Z</time>
      </trkpt>
      <trkpt lat="45.38825" lon="6.74968">
        <ele>1943.8</ele>
        <time>2020-03-16T09:10:51Z</time>
      </trkpt>
      <trkpt lat="45.38827" lon="6.74971">
        <ele>1944.4</ele>
        <time>2020-03-16T09:10:54Z</time>
      </trkpt>
      <trkpt lat="45.38827" lon="6.74972">
        <ele>1944.5</ele>
        <time>2020-03-16T09:10:55Z</time>
      </trkpt>
      <trkpt lat="45.38831" lon="6.74985">
        <ele>1948.6</ele>
        <time>2020-03-16T09:11:19Z</time>
      </trkpt>
      <trkpt lat="45.38837" lon="6.74992">
        <ele>1950.3</ele>
        <time>2020-03-16T09:11:30Z</time>
      </trkpt>
      <trkpt lat="45.38837" lon="6.74993">
        <ele>1950.5</ele>
        <time>2020-03-16T09:11:31Z</time>
      </trkpt>
      <trkpt lat="45.38839" lon="6.74998">
        <ele>1951.6</ele>
        <time>2020-03-16T09:11:39Z</time>
      </trkpt>
      <trkpt lat="45.38841" lon="6.75">
        <ele>1952.1</ele>
        <time>2020-03-16T09:11:42Z</time>
      </trkpt>
      <trkpt lat="45.38844" lon="6.74999">
        <ele>1952.6</ele>
        <time>2020-03-16T09:11:46Z</time>
      </trkpt>
      <trkpt lat="45.38847" lon="6.75003">
        <ele>1952.9</ele>
        <time>2020-03-16T09:11:49Z</time>
      </trkpt>
      <trkpt lat="45.38847" lon="6.75008">
        <ele>1953.1</ele>
        <time>2020-03-16T09:11:51Z</time>
      </trkpt>
      <trkpt lat="45.38846" lon="6.75008">
        <ele>1953.3</ele>
        <time>2020-03-16T09:11:52Z</time>
      </trkpt>
      <trkpt lat="45.38846" lon="6.75012">
        <ele>1953.7</ele>
        <time>2020-03-16T09:11:55Z</time>
      </trkpt>
      <trkpt lat="45.3885" lon="6.75017">
        <ele>1954.1</ele>
        <time>2020-03-16T09:11:58Z</time>
      </trkpt>
      <trkpt lat="45.38851" lon="6.75024">
        <ele>1956.3</ele>
        <time>2020-03-16T09:12:17Z</time>
      </trkpt>
      <trkpt lat="45.38853" lon="6.75027">
        <ele>1956.8</ele>
        <time>2020-03-16T09:12:21Z</time>
      </trkpt>
      <trkpt lat="45.38854" lon="6.75027">
        <ele>1956.9</ele>
        <time>2020-03-16T09:12:22Z</time>
      </trkpt>
      <trkpt lat="45.38858" lon="6.75032">
        <ele>1957.7</ele>
        <time>2020-03-16T09:12:30Z</time>
      </trkpt>
      <trkpt lat="45.38858" lon="6.75043">
        <ele>1959.5</ele>
        <time>2020-03-16T09:12:51Z</time>
      </trkpt>
      <trkpt lat="45.38861" lon="6.7505">
        <ele>1960.3</ele>
        <time>2020-03-16T09:13:01Z</time>
      </trkpt>
      <trkpt lat="45.38861" lon="6.75051">
        <ele>1960.4</ele>
        <time>2020-03-16T09:13:02Z</time>
      </trkpt>
      <trkpt lat="45.38874" lon="6.75064">
        <ele>1961.9</ele>
        <time>2020-03-16T09:13:22Z</time>
      </trkpt>
      <trkpt lat="45.38874" lon="6.75064">
        <ele>1962</ele>
        <time>2020-03-16T09:13:23Z</time>
      </trkpt>
      <trkpt lat="45.38879" lon="6.75072">
        <ele>1962.6</ele>
        <time>2020-03-16T09:13:32Z</time>
      </trkpt>
      <trkpt lat="45.38883" lon="6.75076">
        <ele>1963.3</ele>
        <time>2020-03-16T09:13:41Z</time>
      </trkpt>
      <trkpt lat="45.38885" lon="6.75083">
        <ele>1963.9</ele>
        <time>2020-03-16T09:13:50Z</time>
      </trkpt>
      <trkpt lat="45.38885" lon="6.75084">
        <ele>1963.9</ele>
        <time>2020-03-16T09:13:51Z</time>
      </trkpt>
      <trkpt lat="45.38886" lon="6.75087">
        <ele>1964.6</ele>
        <time>2020-03-16T09:14:00Z</time>
      </trkpt>
      <trkpt lat="45.38892" lon="6.75104">
        <ele>1965.9</ele>
        <time>2020-03-16T09:14:17Z</time>
      </trkpt>
      <trkpt lat="45.38893" lon="6.75105">
        <ele>1966</ele>
        <time>2020-03-16T09:14:18Z</time>
      </trkpt>
      <trkpt lat="45.38902" lon="6.75128">
        <ele>1968.1</ele>
        <time>2020-03-16T09:14:46Z</time>
      </trkpt>
      <trkpt lat="45.38902" lon="6.75129">
        <ele>1968.2</ele>
        <time>2020-03-16T09:14:47Z</time>
      </trkpt>
      <trkpt lat="45.3891" lon="6.75149">
        <ele>1969.7</ele>
        <time>2020-03-16T09:15:06Z</time>
      </trkpt>
      <trkpt lat="45.38911" lon="6.7515">
        <ele>1969.7</ele>
        <time>2020-03-16T09:15:07Z</time>
      </trkpt>
      <trkpt lat="45.38917" lon="6.75162">
        <ele>1970.7</ele>
        <time>2020-03-16T09:15:18Z</time>
      </trkpt>
      <trkpt lat="45.38916" lon="6.75165">
        <ele>1971.3</ele>
        <time>2020-03-16T09:15:24Z</time>
      </trkpt>
      <trkpt lat="45.38918" lon="6.75172">
        <ele>1971.9</ele>
        <time>2020-03-16T09:15:30Z</time>
      </trkpt>
      <trkpt lat="45.38919" lon="6.75174">
        <ele>1972</ele>
        <time>2020-03-16T09:15:31Z</time>
      </trkpt>
      <trkpt lat="45.38924" lon="6.75183">
        <ele>1973.1</ele>
        <time>2020-03-16T09:15:41Z</time>
      </trkpt>
      <trkpt lat="45.38926" lon="6.75192">
        <ele>1974.4</ele>
        <time>2020-03-16T09:15:51Z</time>
      </trkpt>
      <trkpt lat="45.38927" lon="6.75195">
        <ele>1974.9</ele>
        <time>2020-03-16T09:15:55Z</time>
      </trkpt>
      <trkpt lat="45.38927" lon="6.75196">
        <ele>1975.1</ele>
        <time>2020-03-16T09:15:56Z</time>
      </trkpt>
      <trkpt lat="45.38931" lon="6.75202">
        <ele>1976.6</ele>
        <time>2020-03-16T09:16:06Z</time>
      </trkpt>
      <trkpt lat="45.38935" lon="6.75216">
        <ele>1979.1</ele>
        <time>2020-03-16T09:16:22Z</time>
      </trkpt>
      <trkpt lat="45.38936" lon="6.75217">
        <ele>1979.3</ele>
        <time>2020-03-16T09:16:23Z</time>
      </trkpt>
      <trkpt lat="45.3894" lon="6.7523">
        <ele>1981.5</ele>
        <time>2020-03-16T09:16:36Z</time>
      </trkpt>
      <trkpt lat="45.38945" lon="6.75239">
        <ele>1983.6</ele>
        <time>2020-03-16T09:16:49Z</time>
      </trkpt>
      <trkpt lat="45.38946" lon="6.7524">
        <ele>1983.8</ele>
        <time>2020-03-16T09:16:50Z</time>
      </trkpt>
      <trkpt lat="45.38956" lon="6.75259">
        <ele>1987.1</ele>
        <time>2020-03-16T09:17:12Z</time>
      </trkpt>
      <trkpt lat="45.38956" lon="6.75261">
        <ele>1987.2</ele>
        <time>2020-03-16T09:17:13Z</time>
      </trkpt>
      <trkpt lat="45.38959" lon="6.75271">
        <ele>1988.8</ele>
        <time>2020-03-16T09:17:24Z</time>
      </trkpt>
      <trkpt lat="45.38957" lon="6.75274">
        <ele>1990</ele>
        <time>2020-03-16T09:17:33Z</time>
      </trkpt>
      <trkpt lat="45.38957" lon="6.75278">
        <ele>1990.8</ele>
        <time>2020-03-16T09:17:39Z</time>
      </trkpt>
      <trkpt lat="45.38961" lon="6.75284">
        <ele>1991.5</ele>
        <time>2020-03-16T09:17:45Z</time>
      </trkpt>
      <trkpt lat="45.38961" lon="6.75285">
        <ele>1991.5</ele>
        <time>2020-03-16T09:17:46Z</time>
      </trkpt>
      <trkpt lat="45.38963" lon="6.75288">
        <ele>1991.9</ele>
        <time>2020-03-16T09:17:49Z</time>
      </trkpt>
      <trkpt lat="45.38962" lon="6.75292">
        <ele>1992.2</ele>
        <time>2020-03-16T09:17:52Z</time>
      </trkpt>
      <trkpt lat="45.38964" lon="6.75297">
        <ele>1992.8</ele>
        <time>2020-03-16T09:17:57Z</time>
      </trkpt>
      <trkpt lat="45.38967" lon="6.75299">
        <ele>1993.5</ele>
        <time>2020-03-16T09:18:12Z</time>
      </trkpt>
      <trkpt lat="45.38968" lon="6.75299">
        <ele>1994.8</ele>
        <time>2020-03-16T09:18:24Z</time>
      </trkpt>
      <trkpt lat="45.38971" lon="6.75302">
        <ele>1995.1</ele>
        <time>2020-03-16T09:18:28Z</time>
      </trkpt>
      <trkpt lat="45.3897" lon="6.75303">
        <ele>1995.2</ele>
        <time>2020-03-16T09:18:29Z</time>
      </trkpt>
      <trkpt lat="45.38974" lon="6.75307">
        <ele>1996.4</ele>
        <time>2020-03-16T09:19:13Z</time>
      </trkpt>
      <trkpt lat="45.38973" lon="6.75309">
        <ele>1998</ele>
        <time>2020-03-16T09:19:35Z</time>
      </trkpt>
      <trkpt lat="45.38971" lon="6.7531">
        <ele>1998.1</ele>
        <time>2020-03-16T09:19:37Z</time>
      </trkpt>
      <trkpt lat="45.38967" lon="6.75307">
        <ele>1998.4</ele>
        <time>2020-03-16T09:19:40Z</time>
      </trkpt>
      <trkpt lat="45.38964" lon="6.75308">
        <ele>1998.8</ele>
        <time>2020-03-16T09:19:50Z</time>
      </trkpt>
      <trkpt lat="45.38964" lon="6.75308">
        <ele>1998.8</ele>
        <time>2020-03-16T09:19:51Z</time>
      </trkpt>
      <trkpt lat="45.38963" lon="6.75305">
        <ele>2000.1</ele>
        <time>2020-03-16T09:20:42Z</time>
      </trkpt>
      <trkpt lat="45.38965" lon="6.75303">
        <ele>2000.7</ele>
        <time>2020-03-16T09:21:20Z</time>
      </trkpt>
      <trkpt lat="45.38968" lon="6.75297">
        <ele>2002.5</ele>
        <time>2020-03-16T09:22:16Z</time>
      </trkpt>
      <trkpt lat="45.3897" lon="6.753">
        <ele>2003</ele>
        <time>2020-03-16T09:22:24Z</time>
      </trkpt>
      <trkpt lat="45.3897" lon="6.75297">
        <ele>2004.6</ele>
        <time>2020-03-16T09:23:06Z</time>
      </trkpt>
      <trkpt lat="45.38971" lon="6.75299">
        <ele>2005.1</ele>
        <time>2020-03-16T09:23:15Z</time>
      </trkpt>
      <trkpt lat="45.38971" lon="6.75301">
        <ele>2005.1</ele>
        <time>2020-03-16T09:23:16Z</time>
      </trkpt>
      <trkpt lat="45.38971" lon="6.75302">
        <ele>2005.2</ele>
        <time>2020-03-16T09:23:17Z</time>
      </trkpt>
      <trkpt lat="45.38971" lon="6.75305">
        <ele>2005.3</ele>
        <time>2020-03-16T09:23:19Z</time>
      </trkpt>
      <trkpt lat="45.38974" lon="6.75316">
        <ele>2005.7</ele>
        <time>2020-03-16T09:23:26Z</time>
      </trkpt>
      <trkpt lat="45.38974" lon="6.75321">
        <ele>2005.9</ele>
        <time>2020-03-16T09:23:29Z</time>
      </trkpt>
      <trkpt lat="45.38974" lon="6.75323">
        <ele>2006</ele>
        <time>2020-03-16T09:23:30Z</time>
      </trkpt>
      <trkpt lat="45.38976" lon="6.75325">
        <ele>2006.1</ele>
        <time>2020-03-16T09:23:33Z</time>
      </trkpt>
      <trkpt lat="45.38978" lon="6.75341">
        <ele>2006.5</ele>
        <time>2020-03-16T09:23:41Z</time>
      </trkpt>
      <trkpt lat="45.38979" lon="6.75343">
        <ele>2006.5</ele>
        <time>2020-03-16T09:23:42Z</time>
      </trkpt>
      <trkpt lat="45.38979" lon="6.75343">
        <ele>2006.6</ele>
        <time>2020-03-16T09:23:43Z</time>
      </trkpt>
      <trkpt lat="45.38983" lon="6.75352">
        <ele>2007</ele>
        <time>2020-03-16T09:23:52Z</time>
      </trkpt>
      <trkpt lat="45.38982" lon="6.75355">
        <ele>2007.1</ele>
        <time>2020-03-16T09:23:55Z</time>
      </trkpt>
      <trkpt lat="45.38982" lon="6.75364">
        <ele>2007.3</ele>
        <time>2020-03-16T09:24:01Z</time>
      </trkpt>
      <trkpt lat="45.38982" lon="6.75365">
        <ele>2007.3</ele>
        <time>2020-03-16T09:24:02Z</time>
      </trkpt>
      <trkpt lat="45.38979" lon="6.75371">
        <ele>2007.8</ele>
        <time>2020-03-16T09:24:21Z</time>
      </trkpt>
      <trkpt lat="45.38979" lon="6.75373">
        <ele>2007.8</ele>
        <time>2020-03-16T09:24:22Z</time>
      </trkpt>
      <trkpt lat="45.38979" lon="6.7537">
        <ele>2008</ele>
        <time>2020-03-16T09:24:34Z</time>
      </trkpt>
      <trkpt lat="45.38983" lon="6.75365">
        <ele>2008.2</ele>
        <time>2020-03-16T09:24:39Z</time>
      </trkpt>
      <trkpt lat="45.38982" lon="6.75369">
        <ele>2008.3</ele>
        <time>2020-03-16T09:24:51Z</time>
      </trkpt>
      <trkpt lat="45.38983" lon="6.7537">
        <ele>2008.3</ele>
        <time>2020-03-16T09:24:52Z</time>
      </trkpt>
      <trkpt lat="45.38982" lon="6.75373">
        <ele>2008.4</ele>
        <time>2020-03-16T09:24:59Z</time>
      </trkpt>
      <trkpt lat="45.3898" lon="6.75375">
        <ele>2008.5</ele>
        <time>2020-03-16T09:25:02Z</time>
      </trkpt>
      <trkpt lat="45.38977" lon="6.75375">
        <ele>2009</ele>
        <time>2020-03-16T09:25:30Z</time>
      </trkpt>
      <trkpt lat="45.3898" lon="6.75381">
        <ele>2009.3</ele>
        <time>2020-03-16T09:25:57Z</time>
      </trkpt>
      <trkpt lat="45.38979" lon="6.75379">
        <ele>2009.5</ele>
        <time>2020-03-16T09:26:12Z</time>
      </trkpt>
      <trkpt lat="45.38977" lon="6.75382">
        <ele>2009.6</ele>
        <time>2020-03-16T09:26:25Z</time>
      </trkpt>
      <trkpt lat="45.38976" lon="6.75382">
        <ele>2009.7</ele>
        <time>2020-03-16T09:26:26Z</time>
      </trkpt>
      <trkpt lat="45.38974" lon="6.75386">
        <ele>2009.7</ele>
        <time>2020-03-16T09:26:32Z</time>
      </trkpt>
      <trkpt lat="45.38974" lon="6.75389">
        <ele>2009.7</ele>
        <time>2020-03-16T09:26:33Z</time>
      </trkpt>
      <trkpt lat="45.38976" lon="6.75391">
        <ele>2010.1</ele>
        <time>2020-03-16T09:27:11Z</time>
      </trkpt>
      <trkpt lat="45.38975" lon="6.75393">
        <ele>2010.3</ele>
        <time>2020-03-16T09:27:22Z</time>
      </trkpt>
      <trkpt lat="45.38976" lon="6.75399">
        <ele>2010.3</ele>
        <time>2020-03-16T09:27:26Z</time>
      </trkpt>
      <trkpt lat="45.38977" lon="6.754">
        <ele>2010.3</ele>
        <time>2020-03-16T09:27:27Z</time>
      </trkpt>
      <trkpt lat="45.38977" lon="6.75404">
        <ele>2010.5</ele>
        <time>2020-03-16T09:27:45Z</time>
      </trkpt>
      <trkpt lat="45.38981" lon="6.75401">
        <ele>2010.7</ele>
        <time>2020-03-16T09:27:58Z</time>
      </trkpt>
      <trkpt lat="45.38985" lon="6.75413">
        <ele>2011.4</ele>
        <time>2020-03-16T09:28:34Z</time>
      </trkpt>
      <trkpt lat="45.38985" lon="6.75414">
        <ele>2011.4</ele>
        <time>2020-03-16T09:28:35Z</time>
      </trkpt>
      <trkpt lat="45.38984" lon="6.75425">
        <ele>2011.7</ele>
        <time>2020-03-16T09:28:44Z</time>
      </trkpt>
      <trkpt lat="45.38983" lon="6.75431">
        <ele>2011.9</ele>
        <time>2020-03-16T09:28:51Z</time>
      </trkpt>
      <trkpt lat="45.38984" lon="6.75435">
        <ele>2012</ele>
        <time>2020-03-16T09:28:54Z</time>
      </trkpt>
      <trkpt lat="45.38984" lon="6.75437">
        <ele>2012</ele>
        <time>2020-03-16T09:28:55Z</time>
      </trkpt>
      <trkpt lat="45.38983" lon="6.75439">
        <ele>2012</ele>
        <time>2020-03-16T09:28:56Z</time>
      </trkpt>
      <trkpt lat="45.38985" lon="6.7545">
        <ele>2012.3</ele>
        <time>2020-03-16T09:29:05Z</time>
      </trkpt>
      <trkpt lat="45.38984" lon="6.75453">
        <ele>2012.3</ele>
        <time>2020-03-16T09:29:07Z</time>
      </trkpt>
      <trkpt lat="45.38986" lon="6.75464">
        <ele>2012.6</ele>
        <time>2020-03-16T09:29:15Z</time>
      </trkpt>
      <trkpt lat="45.38986" lon="6.75465">
        <ele>2012.6</ele>
        <time>2020-03-16T09:29:16Z</time>
      </trkpt>
      <trkpt lat="45.38989" lon="6.75485">
        <ele>2013.1</ele>
        <time>2020-03-16T09:29:32Z</time>
      </trkpt>
      <trkpt lat="45.3899" lon="6.75487">
        <ele>2013.1</ele>
        <time>2020-03-16T09:29:34Z</time>
      </trkpt>
      <trkpt lat="45.38989" lon="6.75489">
        <ele>2013.2</ele>
        <time>2020-03-16T09:29:35Z</time>
      </trkpt>
      <trkpt lat="45.3899" lon="6.75491">
        <ele>2013.2</ele>
        <time>2020-03-16T09:29:36Z</time>
      </trkpt>
      <trkpt lat="45.38991" lon="6.75492">
        <ele>2013.2</ele>
        <time>2020-03-16T09:29:37Z</time>
      </trkpt>
      <trkpt lat="45.38993" lon="6.75499">
        <ele>2013.4</ele>
        <time>2020-03-16T09:29:44Z</time>
      </trkpt>
      <trkpt lat="45.38996" lon="6.75504">
        <ele>2013.5</ele>
        <time>2020-03-16T09:29:48Z</time>
      </trkpt>
      <trkpt lat="45.38998" lon="6.75512">
        <ele>2013.7</ele>
        <time>2020-03-16T09:29:53Z</time>
      </trkpt>
      <trkpt lat="45.38998" lon="6.75514">
        <ele>2013.7</ele>
        <time>2020-03-16T09:29:54Z</time>
      </trkpt>
      <trkpt lat="45.38999" lon="6.75515">
        <ele>2013.7</ele>
        <time>2020-03-16T09:29:55Z</time>
      </trkpt>
      <trkpt lat="45.39001" lon="6.75532">
        <ele>2014.2</ele>
        <time>2020-03-16T09:30:12Z</time>
      </trkpt>
      <trkpt lat="45.39002" lon="6.75535">
        <ele>2014.3</ele>
        <time>2020-03-16T09:30:15Z</time>
      </trkpt>
      <trkpt lat="45.39002" lon="6.75536">
        <ele>2014.3</ele>
        <time>2020-03-16T09:30:16Z</time>
      </trkpt>
      <trkpt lat="45.39002" lon="6.75537">
        <ele>2014.3</ele>
        <time>2020-03-16T09:30:17Z</time>
      </trkpt>
      <trkpt lat="45.39007" lon="6.75557">
        <ele>2014.7</ele>
        <time>2020-03-16T09:30:30Z</time>
      </trkpt>
      <trkpt lat="45.39007" lon="6.75558">
        <ele>2014.7</ele>
        <time>2020-03-16T09:30:31Z</time>
      </trkpt>
      <trkpt lat="45.39009" lon="6.75561">
        <ele>2014.9</ele>
        <time>2020-03-16T09:30:35Z</time>
      </trkpt>
      <trkpt lat="45.39011" lon="6.75566">
        <ele>2015.1</ele>
        <time>2020-03-16T09:30:41Z</time>
      </trkpt>
      <trkpt lat="45.39013" lon="6.75574">
        <ele>2015.3</ele>
        <time>2020-03-16T09:30:48Z</time>
      </trkpt>
      <trkpt lat="45.39013" lon="6.75578">
        <ele>2015.4</ele>
        <time>2020-03-16T09:30:50Z</time>
      </trkpt>
      <trkpt lat="45.39013" lon="6.75578">
        <ele>2015.5</ele>
        <time>2020-03-16T09:30:51Z</time>
      </trkpt>
      <trkpt lat="45.39016" lon="6.75595">
        <ele>2016</ele>
        <time>2020-03-16T09:31:04Z</time>
      </trkpt>
      <trkpt lat="45.3902" lon="6.75601">
        <ele>2016.3</ele>
        <time>2020-03-16T09:31:09Z</time>
      </trkpt>
      <trkpt lat="45.3902" lon="6.75601">
        <ele>2016.3</ele>
        <time>2020-03-16T09:31:10Z</time>
      </trkpt>
      <trkpt lat="45.39022" lon="6.75609">
        <ele>2016.5</ele>
        <time>2020-03-16T09:31:14Z</time>
      </trkpt>
      <trkpt lat="45.39022" lon="6.75619">
        <ele>2017.2</ele>
        <time>2020-03-16T09:31:25Z</time>
      </trkpt>
      <trkpt lat="45.39024" lon="6.75623">
        <ele>2017.4</ele>
        <time>2020-03-16T09:31:28Z</time>
      </trkpt>
      <trkpt lat="45.39023" lon="6.75621">
        <ele>2017.4</ele>
        <time>2020-03-16T09:31:29Z</time>
      </trkpt>
      <trkpt lat="45.39023" lon="6.75619">
        <ele>2017.4</ele>
        <time>2020-03-16T09:31:30Z</time>
      </trkpt>
      <trkpt lat="45.39023" lon="6.75623">
        <ele>2018.4</ele>
        <time>2020-03-16T09:31:45Z</time>
      </trkpt>
      <trkpt lat="45.39024" lon="6.75625">
        <ele>2018.5</ele>
        <time>2020-03-16T09:31:47Z</time>
      </trkpt>
      <trkpt lat="45.39026" lon="6.75626">
        <ele>2018.6</ele>
        <time>2020-03-16T09:31:48Z</time>
      </trkpt>
      <trkpt lat="45.39027" lon="6.75628">
        <ele>2018.8</ele>
        <time>2020-03-16T09:31:50Z</time>
      </trkpt>
      <trkpt lat="45.39025" lon="6.75631">
        <ele>2019</ele>
        <time>2020-03-16T09:32:03Z</time>
      </trkpt>
      <trkpt lat="45.39026" lon="6.75636">
        <ele>2020.4</ele>
        <time>2020-03-16T09:32:07Z</time>
      </trkpt>
      <trkpt lat="45.39026" lon="6.75638">
        <ele>2020.5</ele>
        <time>2020-03-16T09:32:08Z</time>
      </trkpt>
      <trkpt lat="45.39033" lon="6.75653">
        <ele>2021.6</ele>
        <time>2020-03-16T09:32:18Z</time>
      </trkpt>
      <trkpt lat="45.39032" lon="6.75656">
        <ele>2022.1</ele>
        <time>2020-03-16T09:32:22Z</time>
      </trkpt>
      <trkpt lat="45.39034" lon="6.75661">
        <ele>2022.4</ele>
        <time>2020-03-16T09:32:24Z</time>
      </trkpt>
      <trkpt lat="45.39034" lon="6.75661">
        <ele>2022.5</ele>
        <time>2020-03-16T09:32:25Z</time>
      </trkpt>
      <trkpt lat="45.39037" lon="6.75668">
        <ele>2023.5</ele>
        <time>2020-03-16T09:32:33Z</time>
      </trkpt>
      <trkpt lat="45.3904" lon="6.75672">
        <ele>2024</ele>
        <time>2020-03-16T09:32:37Z</time>
      </trkpt>
      <trkpt lat="45.39041" lon="6.75677">
        <ele>2024.3</ele>
        <time>2020-03-16T09:32:39Z</time>
      </trkpt>
      <trkpt lat="45.39044" lon="6.75683">
        <ele>2024.5</ele>
        <time>2020-03-16T09:32:41Z</time>
      </trkpt>
      <trkpt lat="45.39044" lon="6.75683">
        <ele>2024.6</ele>
        <time>2020-03-16T09:32:42Z</time>
      </trkpt>
      <trkpt lat="45.39044" lon="6.75692">
        <ele>2026.3</ele>
        <time>2020-03-16T09:32:56Z</time>
      </trkpt>
      <trkpt lat="45.39046" lon="6.75697">
        <ele>2026.8</ele>
        <time>2020-03-16T09:33:00Z</time>
      </trkpt>
      <trkpt lat="45.39046" lon="6.75703">
        <ele>2027.7</ele>
        <time>2020-03-16T09:33:07Z</time>
      </trkpt>
      <trkpt lat="45.39046" lon="6.75708">
        <ele>2028.2</ele>
        <time>2020-03-16T09:33:11Z</time>
      </trkpt>
      <trkpt lat="45.39045" lon="6.7571">
        <ele>2028.4</ele>
        <time>2020-03-16T09:33:12Z</time>
      </trkpt>
      <trkpt lat="45.39048" lon="6.75723">
        <ele>2029.6</ele>
        <time>2020-03-16T09:33:21Z</time>
      </trkpt>
      <trkpt lat="45.39051" lon="6.75725">
        <ele>2029.9</ele>
        <time>2020-03-16T09:33:23Z</time>
      </trkpt>
      <trkpt lat="45.39052" lon="6.75728">
        <ele>2030</ele>
        <time>2020-03-16T09:33:24Z</time>
      </trkpt>
      <trkpt lat="45.39053" lon="6.75729">
        <ele>2030.1</ele>
        <time>2020-03-16T09:33:25Z</time>
      </trkpt>
      <trkpt lat="45.39056" lon="6.75735">
        <ele>2031.4</ele>
        <time>2020-03-16T09:33:36Z</time>
      </trkpt>
      <trkpt lat="45.39058" lon="6.7574">
        <ele>2031.8</ele>
        <time>2020-03-16T09:33:40Z</time>
      </trkpt>
      <trkpt lat="45.39061" lon="6.75743">
        <ele>2033</ele>
        <time>2020-03-16T09:33:51Z</time>
      </trkpt>
      <trkpt lat="45.39062" lon="6.75749">
        <ele>2033.2</ele>
        <time>2020-03-16T09:33:53Z</time>
      </trkpt>
      <trkpt lat="45.39062" lon="6.7575">
        <ele>2033.3</ele>
        <time>2020-03-16T09:33:54Z</time>
      </trkpt>
      <trkpt lat="45.39062" lon="6.75759">
        <ele>2034.4</ele>
        <time>2020-03-16T09:34:04Z</time>
      </trkpt>
      <trkpt lat="45.39064" lon="6.75763">
        <ele>2035.3</ele>
        <time>2020-03-16T09:34:13Z</time>
      </trkpt>
      <trkpt lat="45.39065" lon="6.75772">
        <ele>2036.2</ele>
        <time>2020-03-16T09:34:21Z</time>
      </trkpt>
      <trkpt lat="45.39065" lon="6.75772">
        <ele>2036.3</ele>
        <time>2020-03-16T09:34:22Z</time>
      </trkpt>
      <trkpt lat="45.39068" lon="6.75779">
        <ele>2037.5</ele>
        <time>2020-03-16T09:34:34Z</time>
      </trkpt>
      <trkpt lat="45.39072" lon="6.75782">
        <ele>2038</ele>
        <time>2020-03-16T09:34:38Z</time>
      </trkpt>
      <trkpt lat="45.39074" lon="6.75787">
        <ele>2038.7</ele>
        <time>2020-03-16T09:34:45Z</time>
      </trkpt>
      <trkpt lat="45.39075" lon="6.75792">
        <ele>2039.1</ele>
        <time>2020-03-16T09:34:49Z</time>
      </trkpt>
      <trkpt lat="45.39075" lon="6.75793">
        <ele>2039.2</ele>
        <time>2020-03-16T09:34:50Z</time>
      </trkpt>
      <trkpt lat="45.39079" lon="6.75808">
        <ele>2041.2</ele>
        <time>2020-03-16T09:35:11Z</time>
      </trkpt>
      <trkpt lat="45.39081" lon="6.7581">
        <ele>2041.4</ele>
        <time>2020-03-16T09:35:13Z</time>
      </trkpt>
      <trkpt lat="45.39082" lon="6.75814">
        <ele>2041.5</ele>
        <time>2020-03-16T09:35:14Z</time>
      </trkpt>
      <trkpt lat="45.39083" lon="6.75815">
        <ele>2041.6</ele>
        <time>2020-03-16T09:35:15Z</time>
      </trkpt>
      <trkpt lat="45.39086" lon="6.75822">
        <ele>2042</ele>
        <time>2020-03-16T09:35:20Z</time>
      </trkpt>
      <trkpt lat="45.39087" lon="6.75822">
        <ele>2042.3</ele>
        <time>2020-03-16T09:35:23Z</time>
      </trkpt>
      <trkpt lat="45.39094" lon="6.75831">
        <ele>2043</ele>
        <time>2020-03-16T09:35:30Z</time>
      </trkpt>
      <trkpt lat="45.39095" lon="6.75833">
        <ele>2043.1</ele>
        <time>2020-03-16T09:35:31Z</time>
      </trkpt>
      <trkpt lat="45.39094" lon="6.75833">
        <ele>2043.1</ele>
        <time>2020-03-16T09:35:32Z</time>
      </trkpt>
      <trkpt lat="45.39096" lon="6.75835">
        <ele>2044.2</ele>
        <time>2020-03-16T09:35:43Z</time>
      </trkpt>
      <trkpt lat="45.39097" lon="6.75832">
        <ele>2044.5</ele>
        <time>2020-03-16T09:35:53Z</time>
      </trkpt>
      <trkpt lat="45.391" lon="6.75834">
        <ele>2045</ele>
        <time>2020-03-16T09:36:00Z</time>
      </trkpt>
      <trkpt lat="45.39102" lon="6.75838">
        <ele>2045.8</ele>
        <time>2020-03-16T09:36:06Z</time>
      </trkpt>
      <trkpt lat="45.39103" lon="6.75847">
        <ele>2047.3</ele>
        <time>2020-03-16T09:36:19Z</time>
      </trkpt>
      <trkpt lat="45.39102" lon="6.75849">
        <ele>2047.4</ele>
        <time>2020-03-16T09:36:20Z</time>
      </trkpt>
      <trkpt lat="45.39101" lon="6.75854">
        <ele>2047.8</ele>
        <time>2020-03-16T09:36:23Z</time>
      </trkpt>
      <trkpt lat="45.39105" lon="6.75863">
        <ele>2049.5</ele>
        <time>2020-03-16T09:36:38Z</time>
      </trkpt>
      <trkpt lat="45.39108" lon="6.75873">
        <ele>2050.2</ele>
        <time>2020-03-16T09:36:46Z</time>
      </trkpt>
      <trkpt lat="45.39108" lon="6.75875">
        <ele>2050.3</ele>
        <time>2020-03-16T09:36:47Z</time>
      </trkpt>
      <trkpt lat="45.39111" lon="6.75885">
        <ele>2051.2</ele>
        <time>2020-03-16T09:36:56Z</time>
      </trkpt>
      <trkpt lat="45.39113" lon="6.75897">
        <ele>2052.2</ele>
        <time>2020-03-16T09:37:08Z</time>
      </trkpt>
      <trkpt lat="45.39114" lon="6.75898">
        <ele>2052.3</ele>
        <time>2020-03-16T09:37:09Z</time>
      </trkpt>
      <trkpt lat="45.39117" lon="6.75905">
        <ele>2052.7</ele>
        <time>2020-03-16T09:37:13Z</time>
      </trkpt>
      <trkpt lat="45.39116" lon="6.75912">
        <ele>2053</ele>
        <time>2020-03-16T09:37:18Z</time>
      </trkpt>
      <trkpt lat="45.39118" lon="6.75918">
        <ele>2053.5</ele>
        <time>2020-03-16T09:37:24Z</time>
      </trkpt>
      <trkpt lat="45.39118" lon="6.75918">
        <ele>2053.5</ele>
        <time>2020-03-16T09:37:25Z</time>
      </trkpt>
      <trkpt lat="45.39117" lon="6.75921">
        <ele>2054</ele>
        <time>2020-03-16T09:37:31Z</time>
      </trkpt>
      <trkpt lat="45.39121" lon="6.75931">
        <ele>2055</ele>
        <time>2020-03-16T09:37:42Z</time>
      </trkpt>
      <trkpt lat="45.3912" lon="6.75939">
        <ele>2055.9</ele>
        <time>2020-03-16T09:37:51Z</time>
      </trkpt>
      <trkpt lat="45.3912" lon="6.7594">
        <ele>2056</ele>
        <time>2020-03-16T09:37:52Z</time>
      </trkpt>
      <trkpt lat="45.39121" lon="6.75945">
        <ele>2056.3</ele>
        <time>2020-03-16T09:37:55Z</time>
      </trkpt>
      <trkpt lat="45.39121" lon="6.75951">
        <ele>2057.5</ele>
        <time>2020-03-16T09:38:09Z</time>
      </trkpt>
      <trkpt lat="45.39125" lon="6.75956">
        <ele>2058.5</ele>
        <time>2020-03-16T09:38:19Z</time>
      </trkpt>
      <trkpt lat="45.39126" lon="6.7596">
        <ele>2058.8</ele>
        <time>2020-03-16T09:38:21Z</time>
      </trkpt>
      <trkpt lat="45.39127" lon="6.75961">
        <ele>2058.9</ele>
        <time>2020-03-16T09:38:22Z</time>
      </trkpt>
      <trkpt lat="45.39129" lon="6.75961">
        <ele>2059.1</ele>
        <time>2020-03-16T09:38:24Z</time>
      </trkpt>
      <trkpt lat="45.39133" lon="6.75965">
        <ele>2059.5</ele>
        <time>2020-03-16T09:38:28Z</time>
      </trkpt>
      <trkpt lat="45.39134" lon="6.75963">
        <ele>2060.7</ele>
        <time>2020-03-16T09:38:38Z</time>
      </trkpt>
      <trkpt lat="45.39138" lon="6.75965">
        <ele>2061.1</ele>
        <time>2020-03-16T09:38:41Z</time>
      </trkpt>
      <trkpt lat="45.39135" lon="6.75964">
        <ele>2061.9</ele>
        <time>2020-03-16T09:38:47Z</time>
      </trkpt>
      <trkpt lat="45.39135" lon="6.75966">
        <ele>2062</ele>
        <time>2020-03-16T09:38:48Z</time>
      </trkpt>
      <trkpt lat="45.39139" lon="6.75973">
        <ele>2064.2</ele>
        <time>2020-03-16T09:39:10Z</time>
      </trkpt>
      <trkpt lat="45.39145" lon="6.75978">
        <ele>2066.5</ele>
        <time>2020-03-16T09:39:30Z</time>
      </trkpt>
      <trkpt lat="45.39147" lon="6.75982">
        <ele>2067</ele>
        <time>2020-03-16T09:39:33Z</time>
      </trkpt>
      <trkpt lat="45.39147" lon="6.75982">
        <ele>2067.1</ele>
        <time>2020-03-16T09:39:34Z</time>
      </trkpt>
      <trkpt lat="45.3915" lon="6.75986">
        <ele>2069</ele>
        <time>2020-03-16T09:39:50Z</time>
      </trkpt>
      <trkpt lat="45.39152" lon="6.75986">
        <ele>2069.4</ele>
        <time>2020-03-16T09:39:55Z</time>
      </trkpt>
      <trkpt lat="45.39153" lon="6.75992">
        <ele>2069.6</ele>
        <time>2020-03-16T09:39:57Z</time>
      </trkpt>
      <trkpt lat="45.39158" lon="6.75998">
        <ele>2071.1</ele>
        <time>2020-03-16T09:40:11Z</time>
      </trkpt>
      <trkpt lat="45.39158" lon="6.75998">
        <ele>2071.2</ele>
        <time>2020-03-16T09:40:12Z</time>
      </trkpt>
      <trkpt lat="45.39157" lon="6.75998">
        <ele>2071.3</ele>
        <time>2020-03-16T09:40:13Z</time>
      </trkpt>
      <trkpt lat="45.39158" lon="6.76">
        <ele>2071.9</ele>
        <time>2020-03-16T09:40:19Z</time>
      </trkpt>
      <trkpt lat="45.39161" lon="6.76002">
        <ele>2072.3</ele>
        <time>2020-03-16T09:40:24Z</time>
      </trkpt>
      <trkpt lat="45.39162" lon="6.76006">
        <ele>2072.6</ele>
        <time>2020-03-16T09:40:27Z</time>
      </trkpt>
      <trkpt lat="45.39164" lon="6.76006">
        <ele>2072.7</ele>
        <time>2020-03-16T09:40:28Z</time>
      </trkpt>
      <trkpt lat="45.39165" lon="6.76008">
        <ele>2072.8</ele>
        <time>2020-03-16T09:40:29Z</time>
      </trkpt>
      <trkpt lat="45.39168" lon="6.76009">
        <ele>2073</ele>
        <time>2020-03-16T09:40:31Z</time>
      </trkpt>
      <trkpt lat="45.39169" lon="6.76009">
        <ele>2073.1</ele>
        <time>2020-03-16T09:40:32Z</time>
      </trkpt>
      <trkpt lat="45.39171" lon="6.76017">
        <ele>2074.4</ele>
        <time>2020-03-16T09:40:47Z</time>
      </trkpt>
      <trkpt lat="45.39176" lon="6.76024">
        <ele>2075.7</ele>
        <time>2020-03-16T09:41:00Z</time>
      </trkpt>
      <trkpt lat="45.3918" lon="6.76026">
        <ele>2076.2</ele>
        <time>2020-03-16T09:41:05Z</time>
      </trkpt>
      <trkpt lat="45.3918" lon="6.76027">
        <ele>2076.3</ele>
        <time>2020-03-16T09:41:06Z</time>
      </trkpt>
      <trkpt lat="45.39184" lon="6.76037">
        <ele>2077.6</ele>
        <time>2020-03-16T09:41:20Z</time>
      </trkpt>
      <trkpt lat="45.39185" lon="6.76046">
        <ele>2078.2</ele>
        <time>2020-03-16T09:41:25Z</time>
      </trkpt>
      <trkpt lat="45.39184" lon="6.76049">
        <ele>2078.8</ele>
        <time>2020-03-16T09:41:31Z</time>
      </trkpt>
      <trkpt lat="45.39184" lon="6.7605">
        <ele>2078.9</ele>
        <time>2020-03-16T09:41:32Z</time>
      </trkpt>
      <trkpt lat="45.39183" lon="6.76055">
        <ele>2079.9</ele>
        <time>2020-03-16T09:41:42Z</time>
      </trkpt>
      <trkpt lat="45.39185" lon="6.7606">
        <ele>2080.2</ele>
        <time>2020-03-16T09:41:46Z</time>
      </trkpt>
      <trkpt lat="45.39184" lon="6.76067">
        <ele>2080.8</ele>
        <time>2020-03-16T09:41:54Z</time>
      </trkpt>
      <trkpt lat="45.39185" lon="6.76071">
        <ele>2081.1</ele>
        <time>2020-03-16T09:41:58Z</time>
      </trkpt>
      <trkpt lat="45.39186" lon="6.76071">
        <ele>2081.2</ele>
        <time>2020-03-16T09:41:59Z</time>
      </trkpt>
      <trkpt lat="45.39186" lon="6.76079">
        <ele>2081.7</ele>
        <time>2020-03-16T09:42:08Z</time>
      </trkpt>
      <trkpt lat="45.39184" lon="6.76089">
        <ele>2082.3</ele>
        <time>2020-03-16T09:42:19Z</time>
      </trkpt>
      <trkpt lat="45.39188" lon="6.76094">
        <ele>2082.8</ele>
        <time>2020-03-16T09:42:29Z</time>
      </trkpt>
      <trkpt lat="45.39188" lon="6.76094">
        <ele>2082.8</ele>
        <time>2020-03-16T09:42:30Z</time>
      </trkpt>
      <trkpt lat="45.39194" lon="6.76098">
        <ele>2083.3</ele>
        <time>2020-03-16T09:42:43Z</time>
      </trkpt>
      <trkpt lat="45.39199" lon="6.76103">
        <ele>2084.3</ele>
        <time>2020-03-16T09:43:08Z</time>
      </trkpt>
      <trkpt lat="45.39205" lon="6.76105">
        <ele>2084.8</ele>
        <time>2020-03-16T09:43:20Z</time>
      </trkpt>
      <trkpt lat="45.39205" lon="6.76105">
        <ele>2084.8</ele>
        <time>2020-03-16T09:43:21Z</time>
      </trkpt>
      <trkpt lat="45.39204" lon="6.76104">
        <ele>2085.2</ele>
        <time>2020-03-16T09:43:30Z</time>
      </trkpt>
      <trkpt lat="45.39203" lon="6.76107">
        <ele>2085.6</ele>
        <time>2020-03-16T09:43:39Z</time>
      </trkpt>
      <trkpt lat="45.39214" lon="6.76116">
        <ele>2086.7</ele>
        <time>2020-03-16T09:44:06Z</time>
      </trkpt>
      <trkpt lat="45.39214" lon="6.76116">
        <ele>2086.7</ele>
        <time>2020-03-16T09:44:07Z</time>
      </trkpt>
      <trkpt lat="45.39217" lon="6.7612">
        <ele>2087.2</ele>
        <time>2020-03-16T09:44:14Z</time>
      </trkpt>
      <trkpt lat="45.39215" lon="6.76122">
        <ele>2087.6</ele>
        <time>2020-03-16T09:44:21Z</time>
      </trkpt>
      <trkpt lat="45.39216" lon="6.76129">
        <ele>2087.9</ele>
        <time>2020-03-16T09:44:27Z</time>
      </trkpt>
      <trkpt lat="45.39215" lon="6.76134">
        <ele>2088.6</ele>
        <time>2020-03-16T09:44:41Z</time>
      </trkpt>
      <trkpt lat="45.39216" lon="6.7614">
        <ele>2088.7</ele>
        <time>2020-03-16T09:44:43Z</time>
      </trkpt>
      <trkpt lat="45.39218" lon="6.7614">
        <ele>2088.8</ele>
        <time>2020-03-16T09:44:44Z</time>
      </trkpt>
      <trkpt lat="45.39219" lon="6.76139">
        <ele>2088.8</ele>
        <time>2020-03-16T09:44:45Z</time>
      </trkpt>
      <trkpt lat="45.39223" lon="6.76143">
        <ele>2089</ele>
        <time>2020-03-16T09:44:49Z</time>
      </trkpt>
      <trkpt lat="45.39224" lon="6.76145">
        <ele>2089.2</ele>
        <time>2020-03-16T09:44:57Z</time>
      </trkpt>
      <trkpt lat="45.39231" lon="6.76148">
        <ele>2089.4</ele>
        <time>2020-03-16T09:45:02Z</time>
      </trkpt>
      <trkpt lat="45.39232" lon="6.7615">
        <ele>2089.5</ele>
        <time>2020-03-16T09:45:03Z</time>
      </trkpt>
      <trkpt lat="45.39234" lon="6.76149">
        <ele>2089.9</ele>
        <time>2020-03-16T09:45:10Z</time>
      </trkpt>
      <trkpt lat="45.39241" lon="6.76157">
        <ele>2091.3</ele>
        <time>2020-03-16T09:45:38Z</time>
      </trkpt>
      <trkpt lat="45.39246" lon="6.7616">
        <ele>2091.8</ele>
        <time>2020-03-16T09:45:50Z</time>
      </trkpt>
      <trkpt lat="45.39246" lon="6.7616">
        <ele>2091.9</ele>
        <time>2020-03-16T09:45:51Z</time>
      </trkpt>
      <trkpt lat="45.39249" lon="6.7616">
        <ele>2092.3</ele>
        <time>2020-03-16T09:46:03Z</time>
      </trkpt>
      <trkpt lat="45.39247" lon="6.76158">
        <ele>2092.6</ele>
        <time>2020-03-16T09:46:17Z</time>
      </trkpt>
      <trkpt lat="45.39256" lon="6.76165">
        <ele>2093.4</ele>
        <time>2020-03-16T09:46:44Z</time>
      </trkpt>
      <trkpt lat="45.39258" lon="6.76167">
        <ele>2093.8</ele>
        <time>2020-03-16T09:46:52Z</time>
      </trkpt>
      <trkpt lat="45.39258" lon="6.76166">
        <ele>2093.8</ele>
        <time>2020-03-16T09:46:53Z</time>
      </trkpt>
      <trkpt lat="45.39259" lon="6.76168">
        <ele>2095</ele>
        <time>2020-03-16T09:47:11Z</time>
      </trkpt>
      <trkpt lat="45.39258" lon="6.76164">
        <ele>2095</ele>
        <time>2020-03-16T09:47:12Z</time>
      </trkpt>
      <trkpt lat="45.39261" lon="6.7617">
        <ele>2095.3</ele>
        <time>2020-03-16T09:47:20Z</time>
      </trkpt>
      <trkpt lat="45.39257" lon="6.76164">
        <ele>2095.7</ele>
        <time>2020-03-16T09:47:29Z</time>
      </trkpt>
      <trkpt lat="45.39257" lon="6.76165">
        <ele>2095.8</ele>
        <time>2020-03-16T09:47:30Z</time>
      </trkpt>
      <trkpt lat="45.39259" lon="6.76174">
        <ele>2096.3</ele>
        <time>2020-03-16T09:47:42Z</time>
      </trkpt>
      <trkpt lat="45.39261" lon="6.76176">
        <ele>2096.4</ele>
        <time>2020-03-16T09:47:44Z</time>
      </trkpt>
      <trkpt lat="45.39265" lon="6.76174">
        <ele>2096.5</ele>
        <time>2020-03-16T09:47:46Z</time>
      </trkpt>
      <trkpt lat="45.39262" lon="6.76171">
        <ele>2096.5</ele>
        <time>2020-03-16T09:47:47Z</time>
      </trkpt>
      <trkpt lat="45.39262" lon="6.7617">
        <ele>2096.6</ele>
        <time>2020-03-16T09:47:48Z</time>
      </trkpt>
      <trkpt lat="45.39261" lon="6.76169">
        <ele>2096.6</ele>
        <time>2020-03-16T09:47:49Z</time>
      </trkpt>
      <trkpt lat="45.3926" lon="6.7617">
        <ele>2096.7</ele>
        <time>2020-03-16T09:47:50Z</time>
      </trkpt>
      <trkpt lat="45.39262" lon="6.7618">
        <ele>2096.9</ele>
        <time>2020-03-16T09:47:58Z</time>
      </trkpt>
      <trkpt lat="45.39265" lon="6.76184">
        <ele>2097.1</ele>
        <time>2020-03-16T09:48:02Z</time>
      </trkpt>
      <trkpt lat="45.39265" lon="6.76179">
        <ele>2097.2</ele>
        <time>2020-03-16T09:48:04Z</time>
      </trkpt>
      <trkpt lat="45.39264" lon="6.76181">
        <ele>2097.2</ele>
        <time>2020-03-16T09:48:05Z</time>
      </trkpt>
      <trkpt lat="45.39265" lon="6.7618">
        <ele>2097.6</ele>
        <time>2020-03-16T09:48:14Z</time>
      </trkpt>
      <trkpt lat="45.39268" lon="6.7618">
        <ele>2097.7</ele>
        <time>2020-03-16T09:48:15Z</time>
      </trkpt>
      <trkpt lat="45.39269" lon="6.76178">
        <ele>2097.8</ele>
        <time>2020-03-16T09:48:17Z</time>
      </trkpt>
      <trkpt lat="45.39272" lon="6.76177">
        <ele>2098</ele>
        <time>2020-03-16T09:48:21Z</time>
      </trkpt>
      <trkpt lat="45.39269" lon="6.76174">
        <ele>2098.1</ele>
        <time>2020-03-16T09:48:22Z</time>
      </trkpt>
      <trkpt lat="45.39272" lon="6.76178">
        <ele>2098.5</ele>
        <time>2020-03-16T09:48:28Z</time>
      </trkpt>
      <trkpt lat="45.39273" lon="6.76179">
        <ele>2098.5</ele>
        <time>2020-03-16T09:48:29Z</time>
      </trkpt>
      <trkpt lat="45.39271" lon="6.76179">
        <ele>2098.9</ele>
        <time>2020-03-16T09:48:34Z</time>
      </trkpt>
      <trkpt lat="45.39271" lon="6.76181">
        <ele>2099.1</ele>
        <time>2020-03-16T09:48:38Z</time>
      </trkpt>
      <trkpt lat="45.3928" lon="6.76191">
        <ele>2099.7</ele>
        <time>2020-03-16T09:48:46Z</time>
      </trkpt>
      <trkpt lat="45.39281" lon="6.76193">
        <ele>2099.8</ele>
        <time>2020-03-16T09:48:47Z</time>
      </trkpt>
      <trkpt lat="45.39285" lon="6.76198">
        <ele>2100.1</ele>
        <time>2020-03-16T09:48:52Z</time>
      </trkpt>
      <trkpt lat="45.39293" lon="6.76212">
        <ele>2102.3</ele>
        <time>2020-03-16T09:49:23Z</time>
      </trkpt>
      <trkpt lat="45.39293" lon="6.76212">
        <ele>2102.3</ele>
        <time>2020-03-16T09:49:24Z</time>
      </trkpt>
      <trkpt lat="45.39298" lon="6.76221">
        <ele>2103</ele>
        <time>2020-03-16T09:49:33Z</time>
      </trkpt>
      <trkpt lat="45.39301" lon="6.76225">
        <ele>2103.3</ele>
        <time>2020-03-16T09:49:38Z</time>
      </trkpt>
      <trkpt lat="45.39302" lon="6.76228">
        <ele>2103.9</ele>
        <time>2020-03-16T09:49:47Z</time>
      </trkpt>
      <trkpt lat="45.39304" lon="6.76231">
        <ele>2104.2</ele>
        <time>2020-03-16T09:49:52Z</time>
      </trkpt>
      <trkpt lat="45.39304" lon="6.76231">
        <ele>2104.3</ele>
        <time>2020-03-16T09:49:53Z</time>
      </trkpt>
      <trkpt lat="45.39305" lon="6.76236">
        <ele>2104.8</ele>
        <time>2020-03-16T09:50:05Z</time>
      </trkpt>
      <trkpt lat="45.39309" lon="6.76242">
        <ele>2105.2</ele>
        <time>2020-03-16T09:50:12Z</time>
      </trkpt>
      <trkpt lat="45.39311" lon="6.76241">
        <ele>2105.9</ele>
        <time>2020-03-16T09:50:29Z</time>
      </trkpt>
      <trkpt lat="45.39314" lon="6.76243">
        <ele>2106.2</ele>
        <time>2020-03-16T09:50:33Z</time>
      </trkpt>
      <trkpt lat="45.39314" lon="6.76243">
        <ele>2106.2</ele>
        <time>2020-03-16T09:50:34Z</time>
      </trkpt>
      <trkpt lat="45.39317" lon="6.76252">
        <ele>2106.8</ele>
        <time>2020-03-16T09:50:45Z</time>
      </trkpt>
      <trkpt lat="45.39321" lon="6.76255">
        <ele>2107.2</ele>
        <time>2020-03-16T09:50:58Z</time>
      </trkpt>
      <trkpt lat="45.39322" lon="6.76258">
        <ele>2107.3</ele>
        <time>2020-03-16T09:51:00Z</time>
      </trkpt>
      <trkpt lat="45.3932" lon="6.76255">
        <ele>2107.9</ele>
        <time>2020-03-16T09:51:15Z</time>
      </trkpt>
      <trkpt lat="45.3932" lon="6.76255">
        <ele>2108</ele>
        <time>2020-03-16T09:51:16Z</time>
      </trkpt>
      <trkpt lat="45.39321" lon="6.76258">
        <ele>2108.4</ele>
        <time>2020-03-16T09:51:28Z</time>
      </trkpt>
      <trkpt lat="45.39323" lon="6.76262">
        <ele>2108.6</ele>
        <time>2020-03-16T09:51:34Z</time>
      </trkpt>
      <trkpt lat="45.39325" lon="6.76262">
        <ele>2108.7</ele>
        <time>2020-03-16T09:51:38Z</time>
      </trkpt>
      <trkpt lat="45.39331" lon="6.76268">
        <ele>2109.1</ele>
        <time>2020-03-16T09:51:46Z</time>
      </trkpt>
      <trkpt lat="45.39331" lon="6.76266">
        <ele>2109.1</ele>
        <time>2020-03-16T09:51:47Z</time>
      </trkpt>
      <trkpt lat="45.39332" lon="6.76268">
        <ele>2109.7</ele>
        <time>2020-03-16T09:52:03Z</time>
      </trkpt>
      <trkpt lat="45.39338" lon="6.76268">
        <ele>2110.5</ele>
        <time>2020-03-16T09:52:29Z</time>
      </trkpt>
      <trkpt lat="45.39342" lon="6.76269">
        <ele>2111.1</ele>
        <time>2020-03-16T09:52:49Z</time>
      </trkpt>
      <trkpt lat="45.39347" lon="6.76275">
        <ele>2111.4</ele>
        <time>2020-03-16T09:53:00Z</time>
      </trkpt>
      <trkpt lat="45.39348" lon="6.76276">
        <ele>2111.4</ele>
        <time>2020-03-16T09:53:01Z</time>
      </trkpt>
      <trkpt lat="45.39352" lon="6.76283">
        <ele>2112.4</ele>
        <time>2020-03-16T09:53:23Z</time>
      </trkpt>
      <trkpt lat="45.39348" lon="6.76288">
        <ele>2113.7</ele>
        <time>2020-03-16T09:53:56Z</time>
      </trkpt>
      <trkpt lat="45.39343" lon="6.76284">
        <ele>2114.2</ele>
        <time>2020-03-16T09:54:05Z</time>
      </trkpt>
      <trkpt lat="45.39343" lon="6.76284">
        <ele>2114.2</ele>
        <time>2020-03-16T09:54:06Z</time>
      </trkpt>
      <trkpt lat="45.39349" lon="6.76292">
        <ele>2115.3</ele>
        <time>2020-03-16T09:54:39Z</time>
      </trkpt>
      <trkpt lat="45.39349" lon="6.76295">
        <ele>2115.9</ele>
        <time>2020-03-16T09:54:55Z</time>
      </trkpt>
      <trkpt lat="45.39352" lon="6.76301">
        <ele>2116.3</ele>
        <time>2020-03-16T09:55:04Z</time>
      </trkpt>
      <trkpt lat="45.39353" lon="6.76302">
        <ele>2116.3</ele>
        <time>2020-03-16T09:55:05Z</time>
      </trkpt>
      <trkpt lat="45.39354" lon="6.76306">
        <ele>2116.6</ele>
        <time>2020-03-16T09:55:24Z</time>
      </trkpt>
      <trkpt lat="45.39355" lon="6.76315">
        <ele>2117.4</ele>
        <time>2020-03-16T09:55:43Z</time>
      </trkpt>
      <trkpt lat="45.3936" lon="6.76322">
        <ele>2118.3</ele>
        <time>2020-03-16T09:56:05Z</time>
      </trkpt>
      <trkpt lat="45.3936" lon="6.76322">
        <ele>2118.3</ele>
        <time>2020-03-16T09:56:06Z</time>
      </trkpt>
      <trkpt lat="45.39362" lon="6.76329">
        <ele>2118.7</ele>
        <time>2020-03-16T09:56:15Z</time>
      </trkpt>
      <trkpt lat="45.39365" lon="6.76333">
        <ele>2118.9</ele>
        <time>2020-03-16T09:56:21Z</time>
      </trkpt>
      <trkpt lat="45.39372" lon="6.76338">
        <ele>2119.4</ele>
        <time>2020-03-16T09:56:32Z</time>
      </trkpt>
      <trkpt lat="45.39374" lon="6.7634">
        <ele>2119.4</ele>
        <time>2020-03-16T09:56:33Z</time>
      </trkpt>
      <trkpt lat="45.39375" lon="6.7634">
        <ele>2119.5</ele>
        <time>2020-03-16T09:56:34Z</time>
      </trkpt>
      <trkpt lat="45.39378" lon="6.76348">
        <ele>2120.2</ele>
        <time>2020-03-16T09:56:50Z</time>
      </trkpt>
      <trkpt lat="45.39383" lon="6.76355">
        <ele>2120.7</ele>
        <time>2020-03-16T09:57:01Z</time>
      </trkpt>
      <trkpt lat="45.39383" lon="6.76358">
        <ele>2121</ele>
        <time>2020-03-16T09:57:08Z</time>
      </trkpt>
      <trkpt lat="45.39383" lon="6.76359">
        <ele>2121</ele>
        <time>2020-03-16T09:57:09Z</time>
      </trkpt>
      <trkpt lat="45.39383" lon="6.76368">
        <ele>2121.3</ele>
        <time>2020-03-16T09:57:19Z</time>
      </trkpt>
      <trkpt lat="45.39385" lon="6.76374">
        <ele>2121.8</ele>
        <time>2020-03-16T09:57:32Z</time>
      </trkpt>
      <trkpt lat="45.39387" lon="6.76374">
        <ele>2121.9</ele>
        <time>2020-03-16T09:57:35Z</time>
      </trkpt>
      <trkpt lat="45.39388" lon="6.76378">
        <ele>2121.9</ele>
        <time>2020-03-16T09:57:37Z</time>
      </trkpt>
      <trkpt lat="45.39389" lon="6.76378">
        <ele>2122</ele>
        <time>2020-03-16T09:57:38Z</time>
      </trkpt>
      <trkpt lat="45.39391" lon="6.76379">
        <ele>2122.2</ele>
        <time>2020-03-16T09:57:44Z</time>
      </trkpt>
      <trkpt lat="45.39392" lon="6.76386">
        <ele>2122.4</ele>
        <time>2020-03-16T09:57:53Z</time>
      </trkpt>
      <trkpt lat="45.39394" lon="6.76388">
        <ele>2122.6</ele>
        <time>2020-03-16T09:58:00Z</time>
      </trkpt>
      <trkpt lat="45.39398" lon="6.76384">
        <ele>2122.8</ele>
        <time>2020-03-16T09:58:19Z</time>
      </trkpt>
      <trkpt lat="45.39401" lon="6.76386">
        <ele>2122.8</ele>
        <time>2020-03-16T09:58:23Z</time>
      </trkpt>
      <trkpt lat="45.39401" lon="6.76388">
        <ele>2122.9</ele>
        <time>2020-03-16T09:58:24Z</time>
      </trkpt>
      <trkpt lat="45.39403" lon="6.76394">
        <ele>2123.1</ele>
        <time>2020-03-16T09:58:30Z</time>
      </trkpt>
      <trkpt lat="45.39403" lon="6.76401">
        <ele>2123.3</ele>
        <time>2020-03-16T09:58:37Z</time>
      </trkpt>
      <trkpt lat="45.39406" lon="6.7641">
        <ele>2124.1</ele>
        <time>2020-03-16T09:58:55Z</time>
      </trkpt>
      <trkpt lat="45.39407" lon="6.7641">
        <ele>2124.1</ele>
        <time>2020-03-16T09:58:56Z</time>
      </trkpt>
      <trkpt lat="45.39406" lon="6.76419">
        <ele>2125.3</ele>
        <time>2020-03-16T09:59:10Z</time>
      </trkpt>
      <trkpt lat="45.39411" lon="6.76425">
        <ele>2126.9</ele>
        <time>2020-03-16T09:59:25Z</time>
      </trkpt>
      <trkpt lat="45.3941" lon="6.76429">
        <ele>2127.4</ele>
        <time>2020-03-16T09:59:30Z</time>
      </trkpt>
      <trkpt lat="45.39411" lon="6.76434">
        <ele>2128.2</ele>
        <time>2020-03-16T09:59:37Z</time>
      </trkpt>
      <trkpt lat="45.39412" lon="6.76434">
        <ele>2128.3</ele>
        <time>2020-03-16T09:59:38Z</time>
      </trkpt>
      <trkpt lat="45.39413" lon="6.76438">
        <ele>2128.9</ele>
        <time>2020-03-16T09:59:43Z</time>
      </trkpt>
      <trkpt lat="45.39413" lon="6.76444">
        <ele>2130.2</ele>
        <time>2020-03-16T09:59:53Z</time>
      </trkpt>
      <trkpt lat="45.39415" lon="6.76449">
        <ele>2130.9</ele>
        <time>2020-03-16T09:59:59Z</time>
      </trkpt>
      <trkpt lat="45.39419" lon="6.76454">
        <ele>2132</ele>
        <time>2020-03-16T10:00:09Z</time>
      </trkpt>
      <trkpt lat="45.3942" lon="6.76454">
        <ele>2132</ele>
        <time>2020-03-16T10:00:10Z</time>
      </trkpt>
      <trkpt lat="45.39423" lon="6.76458">
        <ele>2133.1</ele>
        <time>2020-03-16T10:00:18Z</time>
      </trkpt>
      <trkpt lat="45.39424" lon="6.76461">
        <ele>2134</ele>
        <time>2020-03-16T10:00:25Z</time>
      </trkpt>
      <trkpt lat="45.39424" lon="6.76467">
        <ele>2134.5</ele>
        <time>2020-03-16T10:00:29Z</time>
      </trkpt>
      <trkpt lat="45.39426" lon="6.76473">
        <ele>2135.3</ele>
        <time>2020-03-16T10:00:35Z</time>
      </trkpt>
      <trkpt lat="45.39427" lon="6.76473">
        <ele>2135.4</ele>
        <time>2020-03-16T10:00:36Z</time>
      </trkpt>
      <trkpt lat="45.39426" lon="6.76477">
        <ele>2136.2</ele>
        <time>2020-03-16T10:00:42Z</time>
      </trkpt>
      <trkpt lat="45.3942" lon="6.76476">
        <ele>2137.1</ele>
        <time>2020-03-16T10:00:49Z</time>
      </trkpt>
      <trkpt lat="45.39419" lon="6.76483">
        <ele>2137.4</ele>
        <time>2020-03-16T10:00:51Z</time>
      </trkpt>
      <trkpt lat="45.3942" lon="6.76489">
        <ele>2137.7</ele>
        <time>2020-03-16T10:00:53Z</time>
      </trkpt>
      <trkpt lat="45.3942" lon="6.7649">
        <ele>2137.8</ele>
        <time>2020-03-16T10:00:54Z</time>
      </trkpt>
      <trkpt lat="45.39419" lon="6.76491">
        <ele>2137.9</ele>
        <time>2020-03-16T10:00:55Z</time>
      </trkpt>
      <trkpt lat="45.3942" lon="6.76489">
        <ele>2138.2</ele>
        <time>2020-03-16T10:00:57Z</time>
      </trkpt>
      <trkpt lat="45.39423" lon="6.76488">
        <ele>2138.6</ele>
        <time>2020-03-16T10:01:00Z</time>
      </trkpt>
      <trkpt lat="45.39424" lon="6.7649">
        <ele>2138.8</ele>
        <time>2020-03-16T10:01:01Z</time>
      </trkpt>
      <trkpt lat="45.39425" lon="6.76493">
        <ele>2139.7</ele>
        <time>2020-03-16T10:01:08Z</time>
      </trkpt>
      <trkpt lat="45.39423" lon="6.76494">
        <ele>2140</ele>
        <time>2020-03-16T10:01:10Z</time>
      </trkpt>
      <trkpt lat="45.39422" lon="6.76502">
        <ele>2140.4</ele>
        <time>2020-03-16T10:01:13Z</time>
      </trkpt>
      <trkpt lat="45.39422" lon="6.76507">
        <ele>2140.7</ele>
        <time>2020-03-16T10:01:15Z</time>
      </trkpt>
      <trkpt lat="45.39422" lon="6.76506">
        <ele>2140.9</ele>
        <time>2020-03-16T10:01:16Z</time>
      </trkpt>
      <trkpt lat="45.39426" lon="6.76509">
        <ele>2144.8</ele>
        <time>2020-03-16T10:01:42Z</time>
      </trkpt>
      <trkpt lat="45.39426" lon="6.76512">
        <ele>2145.5</ele>
        <time>2020-03-16T10:01:46Z</time>
      </trkpt>
      <trkpt lat="45.39427" lon="6.76515">
        <ele>2145.8</ele>
        <time>2020-03-16T10:01:48Z</time>
      </trkpt>
      <trkpt lat="45.39426" lon="6.76518">
        <ele>2147.1</ele>
        <time>2020-03-16T10:01:56Z</time>
      </trkpt>
      <trkpt lat="45.39425" lon="6.7652">
        <ele>2147.6</ele>
        <time>2020-03-16T10:02:00Z</time>
      </trkpt>
      <trkpt lat="45.39425" lon="6.76524">
        <ele>2148.4</ele>
        <time>2020-03-16T10:02:05Z</time>
      </trkpt>
      <trkpt lat="45.39425" lon="6.76528">
        <ele>2148.5</ele>
        <time>2020-03-16T10:02:06Z</time>
      </trkpt>
      <trkpt lat="45.39426" lon="6.76527">
        <ele>2148.7</ele>
        <time>2020-03-16T10:02:07Z</time>
      </trkpt>
      <trkpt lat="45.39427" lon="6.76529">
        <ele>2149.5</ele>
        <time>2020-03-16T10:02:12Z</time>
      </trkpt>
      <trkpt lat="45.39428" lon="6.7653">
        <ele>2150</ele>
        <time>2020-03-16T10:02:15Z</time>
      </trkpt>
      <trkpt lat="45.39431" lon="6.76536">
        <ele>2151.1</ele>
        <time>2020-03-16T10:02:22Z</time>
      </trkpt>
      <trkpt lat="45.39436" lon="6.76541">
        <ele>2151.8</ele>
        <time>2020-03-16T10:02:29Z</time>
      </trkpt>
      <trkpt lat="45.39437" lon="6.7654">
        <ele>2152</ele>
        <time>2020-03-16T10:02:30Z</time>
      </trkpt>
      <trkpt lat="45.39438" lon="6.76543">
        <ele>2152.2</ele>
        <time>2020-03-16T10:02:31Z</time>
      </trkpt>
      <trkpt lat="45.3944" lon="6.76543">
        <ele>2152.3</ele>
        <time>2020-03-16T10:02:32Z</time>
      </trkpt>
      <trkpt lat="45.3944" lon="6.76551">
        <ele>2153.6</ele>
        <time>2020-03-16T10:02:40Z</time>
      </trkpt>
      <trkpt lat="45.39442" lon="6.76555">
        <ele>2155</ele>
        <time>2020-03-16T10:02:49Z</time>
      </trkpt>
      <trkpt lat="45.39446" lon="6.76557">
        <ele>2155.7</ele>
        <time>2020-03-16T10:02:54Z</time>
      </trkpt>
      <trkpt lat="45.39448" lon="6.76561">
        <ele>2156.7</ele>
        <time>2020-03-16T10:03:01Z</time>
      </trkpt>
      <trkpt lat="45.39448" lon="6.76563">
        <ele>2156.8</ele>
        <time>2020-03-16T10:03:02Z</time>
      </trkpt>
      <trkpt lat="45.39451" lon="6.7657">
        <ele>2157.5</ele>
        <time>2020-03-16T10:03:07Z</time>
      </trkpt>
      <trkpt lat="45.39456" lon="6.76573">
        <ele>2158.7</ele>
        <time>2020-03-16T10:03:15Z</time>
      </trkpt>
      <trkpt lat="45.3946" lon="6.76581">
        <ele>2161.2</ele>
        <time>2020-03-16T10:03:31Z</time>
      </trkpt>
      <trkpt lat="45.3946" lon="6.76582">
        <ele>2161.3</ele>
        <time>2020-03-16T10:03:32Z</time>
      </trkpt>
      <trkpt lat="45.39461" lon="6.76584">
        <ele>2161.5</ele>
        <time>2020-03-16T10:03:33Z</time>
      </trkpt>
      <trkpt lat="45.39461" lon="6.76591">
        <ele>2165</ele>
        <time>2020-03-16T10:03:58Z</time>
      </trkpt>
      <trkpt lat="45.39456" lon="6.76599">
        <ele>2168.2</ele>
        <time>2020-03-16T10:04:16Z</time>
      </trkpt>
      <trkpt lat="45.39454" lon="6.76605">
        <ele>2169.2</ele>
        <time>2020-03-16T10:04:21Z</time>
      </trkpt>
      <trkpt lat="45.39454" lon="6.76606">
        <ele>2169.4</ele>
        <time>2020-03-16T10:04:22Z</time>
      </trkpt>
      <trkpt lat="45.39452" lon="6.76609">
        <ele>2171.3</ele>
        <time>2020-03-16T10:04:31Z</time>
      </trkpt>
      <trkpt lat="45.39452" lon="6.7663">
        <ele>2176.2</ele>
        <time>2020-03-16T10:05:02Z</time>
      </trkpt>
      <trkpt lat="45.39452" lon="6.7663">
        <ele>2176.4</ele>
        <time>2020-03-16T10:05:03Z</time>
      </trkpt>
      <trkpt lat="45.39453" lon="6.76634">
        <ele>2177.6</ele>
        <time>2020-03-16T10:05:12Z</time>
      </trkpt>
      <trkpt lat="45.39458" lon="6.76644">
        <ele>2179.4</ele>
        <time>2020-03-16T10:05:27Z</time>
      </trkpt>
      <trkpt lat="45.3946" lon="6.76651">
        <ele>2181.6</ele>
        <time>2020-03-16T10:05:55Z</time>
      </trkpt>
      <trkpt lat="45.3946" lon="6.76652">
        <ele>2181.8</ele>
        <time>2020-03-16T10:05:56Z</time>
      </trkpt>
      <trkpt lat="45.39461" lon="6.76656">
        <ele>2183</ele>
        <time>2020-03-16T10:06:05Z</time>
      </trkpt>
      <trkpt lat="45.39461" lon="6.76659">
        <ele>2183.8</ele>
        <time>2020-03-16T10:06:12Z</time>
      </trkpt>
      <trkpt lat="45.39466" lon="6.7667">
        <ele>2185.6</ele>
        <time>2020-03-16T10:06:28Z</time>
      </trkpt>
      <trkpt lat="45.39465" lon="6.76673">
        <ele>2186.9</ele>
        <time>2020-03-16T10:07:13Z</time>
      </trkpt>
      <trkpt lat="45.39465" lon="6.76673">
        <ele>2187</ele>
        <time>2020-03-16T10:07:14Z</time>
      </trkpt>
      <trkpt lat="45.39463" lon="6.76675">
        <ele>2188.3</ele>
        <time>2020-03-16T10:07:57Z</time>
      </trkpt>
      <trkpt lat="45.39458" lon="6.76675">
        <ele>2188.8</ele>
        <time>2020-03-16T10:08:06Z</time>
      </trkpt>
      <trkpt lat="45.39456" lon="6.76676">
        <ele>2189.6</ele>
        <time>2020-03-16T10:08:28Z</time>
      </trkpt>
      <trkpt lat="45.39458" lon="6.76684">
        <ele>2190.4</ele>
        <time>2020-03-16T10:08:38Z</time>
      </trkpt>
      <trkpt lat="45.39459" lon="6.76684">
        <ele>2190.5</ele>
        <time>2020-03-16T10:08:39Z</time>
      </trkpt>
      <trkpt lat="45.39461" lon="6.76695">
        <ele>2191.3</ele>
        <time>2020-03-16T10:08:49Z</time>
      </trkpt>
      <trkpt lat="45.39463" lon="6.76696">
        <ele>2192.5</ele>
        <time>2020-03-16T10:09:05Z</time>
      </trkpt>
      <trkpt lat="45.39466" lon="6.76696">
        <ele>2193.2</ele>
        <time>2020-03-16T10:09:20Z</time>
      </trkpt>
      <trkpt lat="45.39469" lon="6.76698">
        <ele>2193.4</ele>
        <time>2020-03-16T10:09:24Z</time>
      </trkpt>
      <trkpt lat="45.39469" lon="6.76699">
        <ele>2193.4</ele>
        <time>2020-03-16T10:09:25Z</time>
      </trkpt>
      <trkpt lat="45.3947" lon="6.76701">
        <ele>2193.4</ele>
        <time>2020-03-16T10:09:26Z</time>
      </trkpt>
      <trkpt lat="45.39475" lon="6.767">
        <ele>2194.4</ele>
        <time>2020-03-16T10:09:47Z</time>
      </trkpt>
      <trkpt lat="45.39475" lon="6.76703">
        <ele>2194.5</ele>
        <time>2020-03-16T10:09:49Z</time>
      </trkpt>
      <trkpt lat="45.39477" lon="6.76708">
        <ele>2195.1</ele>
        <time>2020-03-16T10:10:02Z</time>
      </trkpt>
      <trkpt lat="45.39479" lon="6.76709">
        <ele>2195.8</ele>
        <time>2020-03-16T10:10:15Z</time>
      </trkpt>
      <trkpt lat="45.39482" lon="6.76712">
        <ele>2196.6</ele>
        <time>2020-03-16T10:10:41Z</time>
      </trkpt>
      <trkpt lat="45.39483" lon="6.76712">
        <ele>2196.7</ele>
        <time>2020-03-16T10:10:42Z</time>
      </trkpt>
      <trkpt lat="45.39485" lon="6.76711">
        <ele>2197.3</ele>
        <time>2020-03-16T10:11:09Z</time>
      </trkpt>
      <trkpt lat="45.39487" lon="6.76713">
        <ele>2197.8</ele>
        <time>2020-03-16T10:11:18Z</time>
      </trkpt>
      <trkpt lat="45.39486" lon="6.76707">
        <ele>2198.9</ele>
        <time>2020-03-16T10:11:47Z</time>
      </trkpt>
      <trkpt lat="45.39485" lon="6.76713">
        <ele>2200</ele>
        <time>2020-03-16T10:12:20Z</time>
      </trkpt>
      <trkpt lat="45.39486" lon="6.76716">
        <ele>2200.4</ele>
        <time>2020-03-16T10:12:27Z</time>
      </trkpt>
      <trkpt lat="45.39487" lon="6.76718">
        <ele>2200.5</ele>
        <time>2020-03-16T10:12:28Z</time>
      </trkpt>
      <trkpt lat="45.39491" lon="6.76738">
        <ele>2202.2</ele>
        <time>2020-03-16T10:13:15Z</time>
      </trkpt>
      <trkpt lat="45.39491" lon="6.7674">
        <ele>2202.3</ele>
        <time>2020-03-16T10:13:16Z</time>
      </trkpt>
      <trkpt lat="45.39494" lon="6.76745">
        <ele>2202.9</ele>
        <time>2020-03-16T10:13:23Z</time>
      </trkpt>
      <trkpt lat="45.39493" lon="6.76749">
        <ele>2205</ele>
        <time>2020-03-16T10:14:31Z</time>
      </trkpt>
      <trkpt lat="45.39495" lon="6.76747">
        <ele>2206</ele>
        <time>2020-03-16T10:14:58Z</time>
      </trkpt>
      <trkpt lat="45.39498" lon="6.76753">
        <ele>2206.7</ele>
        <time>2020-03-16T10:15:06Z</time>
      </trkpt>
      <trkpt lat="45.39498" lon="6.76761">
        <ele>2207.8</ele>
        <time>2020-03-16T10:15:17Z</time>
      </trkpt>
      <trkpt lat="45.39498" lon="6.7676">
        <ele>2207.9</ele>
        <time>2020-03-16T10:15:18Z</time>
      </trkpt>
      <trkpt lat="45.39497" lon="6.76764">
        <ele>2208.6</ele>
        <time>2020-03-16T10:15:27Z</time>
      </trkpt>
      <trkpt lat="45.39498" lon="6.7677">
        <ele>2209.4</ele>
        <time>2020-03-16T10:15:41Z</time>
      </trkpt>
      <trkpt lat="45.39497" lon="6.76772">
        <ele>2209.7</ele>
        <time>2020-03-16T10:15:44Z</time>
      </trkpt>
      <trkpt lat="45.39498" lon="6.76784">
        <ele>2210.4</ele>
        <time>2020-03-16T10:15:53Z</time>
      </trkpt>
      <trkpt lat="45.39499" lon="6.76785">
        <ele>2210.5</ele>
        <time>2020-03-16T10:15:54Z</time>
      </trkpt>
      <trkpt lat="45.395" lon="6.76789">
        <ele>2211.3</ele>
        <time>2020-03-16T10:16:06Z</time>
      </trkpt>
      <trkpt lat="45.39502" lon="6.76803">
        <ele>2212.4</ele>
        <time>2020-03-16T10:16:23Z</time>
      </trkpt>
      <trkpt lat="45.39501" lon="6.76811">
        <ele>2213.2</ele>
        <time>2020-03-16T10:16:36Z</time>
      </trkpt>
      <trkpt lat="45.39501" lon="6.76811">
        <ele>2213.2</ele>
        <time>2020-03-16T10:16:37Z</time>
      </trkpt>
      <trkpt lat="45.395" lon="6.7681">
        <ele>2213.3</ele>
        <time>2020-03-16T10:16:38Z</time>
      </trkpt>
      <trkpt lat="45.39499" lon="6.76811">
        <ele>2213.5</ele>
        <time>2020-03-16T10:16:43Z</time>
      </trkpt>
      <trkpt lat="45.39499" lon="6.76814">
        <ele>2213.8</ele>
        <time>2020-03-16T10:16:48Z</time>
      </trkpt>
      <trkpt lat="45.395" lon="6.76817">
        <ele>2214</ele>
        <time>2020-03-16T10:16:52Z</time>
      </trkpt>
      <trkpt lat="45.395" lon="6.76821">
        <ele>2214.2</ele>
        <time>2020-03-16T10:16:54Z</time>
      </trkpt>
      <trkpt lat="45.39502" lon="6.76828">
        <ele>2214.7</ele>
        <time>2020-03-16T10:17:03Z</time>
      </trkpt>
      <trkpt lat="45.39502" lon="6.76828">
        <ele>2214.8</ele>
        <time>2020-03-16T10:17:04Z</time>
      </trkpt>
      <trkpt lat="45.39502" lon="6.76835">
        <ele>2215.3</ele>
        <time>2020-03-16T10:17:13Z</time>
      </trkpt>
      <trkpt lat="45.39506" lon="6.76842">
        <ele>2216.3</ele>
        <time>2020-03-16T10:17:31Z</time>
      </trkpt>
      <trkpt lat="45.39506" lon="6.76849">
        <ele>2216.6</ele>
        <time>2020-03-16T10:17:36Z</time>
      </trkpt>
      <trkpt lat="45.39507" lon="6.7685">
        <ele>2216.6</ele>
        <time>2020-03-16T10:17:37Z</time>
      </trkpt>
      <trkpt lat="45.39509" lon="6.76859">
        <ele>2217.1</ele>
        <time>2020-03-16T10:17:46Z</time>
      </trkpt>
      <trkpt lat="45.39509" lon="6.7687">
        <ele>2217.6</ele>
        <time>2020-03-16T10:17:53Z</time>
      </trkpt>
      <trkpt lat="45.39509" lon="6.76873">
        <ele>2217.6</ele>
        <time>2020-03-16T10:17:54Z</time>
      </trkpt>
      <trkpt lat="45.39507" lon="6.76877">
        <ele>2218</ele>
        <time>2020-03-16T10:17:59Z</time>
      </trkpt>
      <trkpt lat="45.39508" lon="6.7688">
        <ele>2218.2</ele>
        <time>2020-03-16T10:18:02Z</time>
      </trkpt>
      <trkpt lat="45.39508" lon="6.76886">
        <ele>2219.6</ele>
        <time>2020-03-16T10:18:24Z</time>
      </trkpt>
      <trkpt lat="45.39511" lon="6.76896">
        <ele>2220.2</ele>
        <time>2020-03-16T10:18:34Z</time>
      </trkpt>
      <trkpt lat="45.39511" lon="6.76896">
        <ele>2220.3</ele>
        <time>2020-03-16T10:18:35Z</time>
      </trkpt>
      <trkpt lat="45.39513" lon="6.7691">
        <ele>2221.4</ele>
        <time>2020-03-16T10:18:51Z</time>
      </trkpt>
      <trkpt lat="45.39515" lon="6.76912">
        <ele>2221.7</ele>
        <time>2020-03-16T10:18:55Z</time>
      </trkpt>
      <trkpt lat="45.39516" lon="6.76915">
        <ele>2221.9</ele>
        <time>2020-03-16T10:18:57Z</time>
      </trkpt>
      <trkpt lat="45.39518" lon="6.76917">
        <ele>2222.4</ele>
        <time>2020-03-16T10:19:03Z</time>
      </trkpt>
      <trkpt lat="45.39519" lon="6.76917">
        <ele>2222.5</ele>
        <time>2020-03-16T10:19:04Z</time>
      </trkpt>
      <trkpt lat="45.39519" lon="6.76923">
        <ele>2222.8</ele>
        <time>2020-03-16T10:19:07Z</time>
      </trkpt>
      <trkpt lat="45.39522" lon="6.76928">
        <ele>2223.3</ele>
        <time>2020-03-16T10:19:13Z</time>
      </trkpt>
      <trkpt lat="45.39524" lon="6.76926">
        <ele>2224.2</ele>
        <time>2020-03-16T10:19:23Z</time>
      </trkpt>
      <trkpt lat="45.39525" lon="6.76929">
        <ele>2224.3</ele>
        <time>2020-03-16T10:19:26Z</time>
      </trkpt>
      <trkpt lat="45.39527" lon="6.76929">
        <ele>2224.5</ele>
        <time>2020-03-16T10:19:30Z</time>
      </trkpt>
      <trkpt lat="45.39529" lon="6.76935">
        <ele>2224.8</ele>
        <time>2020-03-16T10:19:32Z</time>
      </trkpt>
      <trkpt lat="45.3953" lon="6.76936">
        <ele>2224.9</ele>
        <time>2020-03-16T10:19:33Z</time>
      </trkpt>
      <trkpt lat="45.39531" lon="6.7696">
        <ele>2227.5</ele>
        <time>2020-03-16T10:19:53Z</time>
      </trkpt>
      <trkpt lat="45.39531" lon="6.7696">
        <ele>2227.7</ele>
        <time>2020-03-16T10:19:54Z</time>
      </trkpt>
      <trkpt lat="45.3953" lon="6.76969">
        <ele>2229.9</ele>
        <time>2020-03-16T10:20:10Z</time>
      </trkpt>
      <trkpt lat="45.39534" lon="6.76975">
        <ele>2230.6</ele>
        <time>2020-03-16T10:20:14Z</time>
      </trkpt>
      <trkpt lat="45.39535" lon="6.7698">
        <ele>2231.6</ele>
        <time>2020-03-16T10:20:20Z</time>
      </trkpt>
      <trkpt lat="45.39535" lon="6.76981">
        <ele>2231.8</ele>
        <time>2020-03-16T10:20:21Z</time>
      </trkpt>
      <trkpt lat="45.39539" lon="6.76986">
        <ele>2232.6</ele>
        <time>2020-03-16T10:20:26Z</time>
      </trkpt>
      <trkpt lat="45.3954" lon="6.76993">
        <ele>2234.1</ele>
        <time>2020-03-16T10:20:35Z</time>
      </trkpt>
      <trkpt lat="45.39542" lon="6.76994">
        <ele>2235.4</ele>
        <time>2020-03-16T10:20:44Z</time>
      </trkpt>
      <trkpt lat="45.39541" lon="6.77002">
        <ele>2237.3</ele>
        <time>2020-03-16T10:20:54Z</time>
      </trkpt>
      <trkpt lat="45.39541" lon="6.77002">
        <ele>2237.4</ele>
        <time>2020-03-16T10:20:55Z</time>
      </trkpt>
      <trkpt lat="45.39542" lon="6.77008">
        <ele>2241.2</ele>
        <time>2020-03-16T10:21:32Z</time>
      </trkpt>
      <trkpt lat="45.39546" lon="6.77013">
        <ele>2245.5</ele>
        <time>2020-03-16T10:22:29Z</time>
      </trkpt>
      <trkpt lat="45.39547" lon="6.77018">
        <ele>2246.3</ele>
        <time>2020-03-16T10:22:35Z</time>
      </trkpt>
      <trkpt lat="45.3955" lon="6.7702">
        <ele>2249.1</ele>
        <time>2020-03-16T10:23:10Z</time>
      </trkpt>
      <trkpt lat="45.3955" lon="6.7702">
        <ele>2249.3</ele>
        <time>2020-03-16T10:23:11Z</time>
      </trkpt>
      <trkpt lat="45.39555" lon="6.77044">
        <ele>2253.5</ele>
        <time>2020-03-16T10:23:40Z</time>
      </trkpt>
      <trkpt lat="45.39556" lon="6.77045">
        <ele>2253.6</ele>
        <time>2020-03-16T10:23:41Z</time>
      </trkpt>
      <trkpt lat="45.39558" lon="6.77055">
        <ele>2255.7</ele>
        <time>2020-03-16T10:23:57Z</time>
      </trkpt>
      <trkpt lat="45.39561" lon="6.77069">
        <ele>2257.2</ele>
        <time>2020-03-16T10:24:10Z</time>
      </trkpt>
      <trkpt lat="45.39561" lon="6.77069">
        <ele>2257.3</ele>
        <time>2020-03-16T10:24:11Z</time>
      </trkpt>
      <trkpt lat="45.39564" lon="6.77071">
        <ele>2258.7</ele>
        <time>2020-03-16T10:24:23Z</time>
      </trkpt>
      <trkpt lat="45.39566" lon="6.77074">
        <ele>2259</ele>
        <time>2020-03-16T10:24:25Z</time>
      </trkpt>
      <trkpt lat="45.39569" lon="6.77085">
        <ele>2260.4</ele>
        <time>2020-03-16T10:24:38Z</time>
      </trkpt>
      <trkpt lat="45.39568" lon="6.77089">
        <ele>2261</ele>
        <time>2020-03-16T10:24:44Z</time>
      </trkpt>
      <trkpt lat="45.39568" lon="6.77089">
        <ele>2261.1</ele>
        <time>2020-03-16T10:24:45Z</time>
      </trkpt>
      <trkpt lat="45.39567" lon="6.77092">
        <ele>2261.5</ele>
        <time>2020-03-16T10:24:49Z</time>
      </trkpt>
      <trkpt lat="45.39568" lon="6.77097">
        <ele>2261.7</ele>
        <time>2020-03-16T10:24:51Z</time>
      </trkpt>
      <trkpt lat="45.39567" lon="6.7711">
        <ele>2262.8</ele>
        <time>2020-03-16T10:25:03Z</time>
      </trkpt>
      <trkpt lat="45.39567" lon="6.77111">
        <ele>2262.9</ele>
        <time>2020-03-16T10:25:04Z</time>
      </trkpt>
      <trkpt lat="45.39571" lon="6.77119">
        <ele>2264.3</ele>
        <time>2020-03-16T10:25:18Z</time>
      </trkpt>
      <trkpt lat="45.39574" lon="6.77133">
        <ele>2265.4</ele>
        <time>2020-03-16T10:25:29Z</time>
      </trkpt>
      <trkpt lat="45.39574" lon="6.77135">
        <ele>2265.5</ele>
        <time>2020-03-16T10:25:30Z</time>
      </trkpt>
      <trkpt lat="45.39575" lon="6.7714">
        <ele>2266</ele>
        <time>2020-03-16T10:25:35Z</time>
      </trkpt>
      <trkpt lat="45.39577" lon="6.77142">
        <ele>2266.6</ele>
        <time>2020-03-16T10:25:41Z</time>
      </trkpt>
      <trkpt lat="45.39578" lon="6.77147">
        <ele>2267.8</ele>
        <time>2020-03-16T10:25:53Z</time>
      </trkpt>
      <trkpt lat="45.39579" lon="6.77149">
        <ele>2268.1</ele>
        <time>2020-03-16T10:25:56Z</time>
      </trkpt>
      <trkpt lat="45.39582" lon="6.7715">
        <ele>2268.3</ele>
        <time>2020-03-16T10:25:58Z</time>
      </trkpt>
      <trkpt lat="45.39583" lon="6.77154">
        <ele>2268.5</ele>
        <time>2020-03-16T10:26:00Z</time>
      </trkpt>
      <trkpt lat="45.39584" lon="6.77155">
        <ele>2268.6</ele>
        <time>2020-03-16T10:26:01Z</time>
      </trkpt>
      <trkpt lat="45.39587" lon="6.77157">
        <ele>2269.1</ele>
        <time>2020-03-16T10:26:06Z</time>
      </trkpt>
      <trkpt lat="45.39588" lon="6.7716">
        <ele>2269.4</ele>
        <time>2020-03-16T10:26:09Z</time>
      </trkpt>
      <trkpt lat="45.39593" lon="6.77167">
        <ele>2270.8</ele>
        <time>2020-03-16T10:26:23Z</time>
      </trkpt>
      <trkpt lat="45.39597" lon="6.77171">
        <ele>2271.3</ele>
        <time>2020-03-16T10:26:28Z</time>
      </trkpt>
      <trkpt lat="45.39597" lon="6.77171">
        <ele>2271.4</ele>
        <time>2020-03-16T10:26:29Z</time>
      </trkpt>
      <trkpt lat="45.39597" lon="6.7717">
        <ele>2271.5</ele>
        <time>2020-03-16T10:26:30Z</time>
      </trkpt>
      <trkpt lat="45.39599" lon="6.77172">
        <ele>2271.9</ele>
        <time>2020-03-16T10:26:33Z</time>
      </trkpt>
      <trkpt lat="45.39605" lon="6.77184">
        <ele>2273.8</ele>
        <time>2020-03-16T10:26:52Z</time>
      </trkpt>
      <trkpt lat="45.39608" lon="6.77185">
        <ele>2274.1</ele>
        <time>2020-03-16T10:26:54Z</time>
      </trkpt>
      <trkpt lat="45.39609" lon="6.77185">
        <ele>2274.2</ele>
        <time>2020-03-16T10:26:55Z</time>
      </trkpt>
      <trkpt lat="45.39609" lon="6.77192">
        <ele>2275</ele>
        <time>2020-03-16T10:27:03Z</time>
      </trkpt>
      <trkpt lat="45.39614" lon="6.77194">
        <ele>2275.9</ele>
        <time>2020-03-16T10:27:11Z</time>
      </trkpt>
      <trkpt lat="45.39617" lon="6.77202">
        <ele>2276.6</ele>
        <time>2020-03-16T10:27:16Z</time>
      </trkpt>
      <trkpt lat="45.39618" lon="6.77203">
        <ele>2276.7</ele>
        <time>2020-03-16T10:27:17Z</time>
      </trkpt>
      <trkpt lat="45.3962" lon="6.77208">
        <ele>2277.7</ele>
        <time>2020-03-16T10:27:24Z</time>
      </trkpt>
      <trkpt lat="45.39623" lon="6.77209">
        <ele>2278.2</ele>
        <time>2020-03-16T10:27:27Z</time>
      </trkpt>
      <trkpt lat="45.39626" lon="6.77213">
        <ele>2278.7</ele>
        <time>2020-03-16T10:27:31Z</time>
      </trkpt>
      <trkpt lat="45.39629" lon="6.77223">
        <ele>2279.6</ele>
        <time>2020-03-16T10:27:44Z</time>
      </trkpt>
      <trkpt lat="45.39629" lon="6.77223">
        <ele>2279.6</ele>
        <time>2020-03-16T10:27:45Z</time>
      </trkpt>
      <trkpt lat="45.39631" lon="6.77233">
        <ele>2282.4</ele>
        <time>2020-03-16T10:28:17Z</time>
      </trkpt>
      <trkpt lat="45.39632" lon="6.7723">
        <ele>2282.6</ele>
        <time>2020-03-16T10:28:18Z</time>
      </trkpt>
      <trkpt lat="45.3963" lon="6.77232">
        <ele>2284</ele>
        <time>2020-03-16T10:28:39Z</time>
      </trkpt>
      <trkpt lat="45.39627" lon="6.77233">
        <ele>2284.2</ele>
        <time>2020-03-16T10:28:41Z</time>
      </trkpt>
      <trkpt lat="45.39626" lon="6.77234">
        <ele>2284.5</ele>
        <time>2020-03-16T10:28:42Z</time>
      </trkpt>
      <trkpt lat="45.39624" lon="6.77236">
        <ele>2285.4</ele>
        <time>2020-03-16T10:28:50Z</time>
      </trkpt>
      <trkpt lat="45.39622" lon="6.77234">
        <ele>2285.9</ele>
        <time>2020-03-16T10:29:00Z</time>
      </trkpt>
      <trkpt lat="45.39623" lon="6.77229">
        <ele>2286.3</ele>
        <time>2020-03-16T10:29:02Z</time>
      </trkpt>
      <trkpt lat="45.39623" lon="6.77232">
        <ele>2287.3</ele>
        <time>2020-03-16T10:29:14Z</time>
      </trkpt>
      <trkpt lat="45.39624" lon="6.77229">
        <ele>2288.1</ele>
        <time>2020-03-16T10:29:25Z</time>
      </trkpt>
      <trkpt lat="45.39627" lon="6.77229">
        <ele>2291.7</ele>
        <time>2020-03-16T10:30:46Z</time>
      </trkpt>
      <trkpt lat="45.39627" lon="6.77229">
        <ele>2291.7</ele>
        <time>2020-03-16T10:30:47Z</time>
      </trkpt>
      <trkpt lat="45.39628" lon="6.77225">
        <ele>2297.4</ele>
        <time>2020-03-16T10:31:49Z</time>
      </trkpt>
      <trkpt lat="45.39629" lon="6.77229">
        <ele>2301.5</ele>
        <time>2020-03-16T10:32:18Z</time>
      </trkpt>
      <trkpt lat="45.39628" lon="6.77232">
        <ele>2303.8</ele>
        <time>2020-03-16T10:33:02Z</time>
      </trkpt>
      <trkpt lat="45.39632" lon="6.77233">
        <ele>2306.5</ele>
        <time>2020-03-16T10:33:46Z</time>
      </trkpt>
      <trkpt lat="45.39637" lon="6.77237">
        <ele>2307.1</ele>
        <time>2020-03-16T10:33:51Z</time>
      </trkpt>
      <trkpt lat="45.39638" lon="6.77237">
        <ele>2307.2</ele>
        <time>2020-03-16T10:33:52Z</time>
      </trkpt>
      <trkpt lat="45.39644" lon="6.77238">
        <ele>2308.4</ele>
        <time>2020-03-16T10:34:04Z</time>
      </trkpt>
      <trkpt lat="45.39647" lon="6.77243">
        <ele>2309.2</ele>
        <time>2020-03-16T10:34:12Z</time>
      </trkpt>
      <trkpt lat="45.39648" lon="6.7725">
        <ele>2309.6</ele>
        <time>2020-03-16T10:34:17Z</time>
      </trkpt>
      <trkpt lat="45.39648" lon="6.77251">
        <ele>2309.7</ele>
        <time>2020-03-16T10:34:18Z</time>
      </trkpt>
      <trkpt lat="45.39648" lon="6.7725">
        <ele>2309.8</ele>
        <time>2020-03-16T10:34:19Z</time>
      </trkpt>
      <trkpt lat="45.3965" lon="6.77254">
        <ele>2310.2</ele>
        <time>2020-03-16T10:34:24Z</time>
      </trkpt>
      <trkpt lat="45.3965" lon="6.77258">
        <ele>2310.3</ele>
        <time>2020-03-16T10:34:26Z</time>
      </trkpt>
      <trkpt lat="45.39654" lon="6.7727">
        <ele>2311</ele>
        <time>2020-03-16T10:34:35Z</time>
      </trkpt>
      <trkpt lat="45.39654" lon="6.77271">
        <ele>2311.1</ele>
        <time>2020-03-16T10:34:36Z</time>
      </trkpt>
      <trkpt lat="45.39661" lon="6.77284">
        <ele>2311.5</ele>
        <time>2020-03-16T10:34:42Z</time>
      </trkpt>
      <trkpt lat="45.39664" lon="6.77292">
        <ele>2311.7</ele>
        <time>2020-03-16T10:34:45Z</time>
      </trkpt>
      <trkpt lat="45.39665" lon="6.77292">
        <ele>2311.8</ele>
        <time>2020-03-16T10:34:46Z</time>
      </trkpt>
      <trkpt lat="45.39665" lon="6.77292">
        <ele>2311.8</ele>
        <time>2020-03-16T10:34:47Z</time>
      </trkpt>
      <trkpt lat="45.39669" lon="6.77299">
        <ele>2312.4</ele>
        <time>2020-03-16T10:34:56Z</time>
      </trkpt>
      <trkpt lat="45.39673" lon="6.7731">
        <ele>2312.8</ele>
        <time>2020-03-16T10:35:03Z</time>
      </trkpt>
      <trkpt lat="45.39673" lon="6.77311">
        <ele>2312.9</ele>
        <time>2020-03-16T10:35:04Z</time>
      </trkpt>
      <trkpt lat="45.39674" lon="6.77309">
        <ele>2312.9</ele>
        <time>2020-03-16T10:35:05Z</time>
      </trkpt>
      <trkpt lat="45.39681" lon="6.77329">
        <ele>2313.8</ele>
        <time>2020-03-16T10:35:20Z</time>
      </trkpt>
      <trkpt lat="45.39681" lon="6.77331">
        <ele>2313.8</ele>
        <time>2020-03-16T10:35:21Z</time>
      </trkpt>
      <trkpt lat="45.39686" lon="6.77348">
        <ele>2314.6</ele>
        <time>2020-03-16T10:35:36Z</time>
      </trkpt>
      <trkpt lat="45.39688" lon="6.77351">
        <ele>2314.8</ele>
        <time>2020-03-16T10:35:40Z</time>
      </trkpt>
      <trkpt lat="45.39688" lon="6.77351">
        <ele>2314.9</ele>
        <time>2020-03-16T10:35:41Z</time>
      </trkpt>
      <trkpt lat="45.3969" lon="6.77362">
        <ele>2315.6</ele>
        <time>2020-03-16T10:35:54Z</time>
      </trkpt>
      <trkpt lat="45.39687" lon="6.77368">
        <ele>2315.8</ele>
        <time>2020-03-16T10:35:59Z</time>
      </trkpt>
      <trkpt lat="45.39692" lon="6.77373">
        <ele>2316.4</ele>
        <time>2020-03-16T10:36:09Z</time>
      </trkpt>
      <trkpt lat="45.39693" lon="6.77374">
        <ele>2316.4</ele>
        <time>2020-03-16T10:36:10Z</time>
      </trkpt>
      <trkpt lat="45.39695" lon="6.77379">
        <ele>2316.6</ele>
        <time>2020-03-16T10:36:14Z</time>
      </trkpt>
      <trkpt lat="45.39703" lon="6.77391">
        <ele>2317.2</ele>
        <time>2020-03-16T10:36:24Z</time>
      </trkpt>
      <trkpt lat="45.39704" lon="6.77392">
        <ele>2317.3</ele>
        <time>2020-03-16T10:36:25Z</time>
      </trkpt>
      <trkpt lat="45.39711" lon="6.77407">
        <ele>2318.4</ele>
        <time>2020-03-16T10:36:43Z</time>
      </trkpt>
      <trkpt lat="45.39712" lon="6.77411">
        <ele>2318.7</ele>
        <time>2020-03-16T10:36:48Z</time>
      </trkpt>
      <trkpt lat="45.39712" lon="6.77411">
        <ele>2318.7</ele>
        <time>2020-03-16T10:36:49Z</time>
      </trkpt>
      <trkpt lat="45.39714" lon="6.77417">
        <ele>2319</ele>
        <time>2020-03-16T10:36:53Z</time>
      </trkpt>
      <trkpt lat="45.39717" lon="6.77422">
        <ele>2319.3</ele>
        <time>2020-03-16T10:36:59Z</time>
      </trkpt>
      <trkpt lat="45.39722" lon="6.77435">
        <ele>2320.5</ele>
        <time>2020-03-16T10:37:20Z</time>
      </trkpt>
      <trkpt lat="45.39722" lon="6.77436">
        <ele>2320.6</ele>
        <time>2020-03-16T10:37:21Z</time>
      </trkpt>
      <trkpt lat="45.39723" lon="6.77435">
        <ele>2320.6</ele>
        <time>2020-03-16T10:37:22Z</time>
      </trkpt>
      <trkpt lat="45.39729" lon="6.77452">
        <ele>2321.5</ele>
        <time>2020-03-16T10:37:36Z</time>
      </trkpt>
      <trkpt lat="45.39732" lon="6.77456">
        <ele>2322.8</ele>
        <time>2020-03-16T10:38:44Z</time>
      </trkpt>
      <trkpt lat="45.39733" lon="6.77456">
        <ele>2322.8</ele>
        <time>2020-03-16T10:38:45Z</time>
      </trkpt>
      <trkpt lat="45.39732" lon="6.77459">
        <ele>2323.5</ele>
        <time>2020-03-16T10:39:07Z</time>
      </trkpt>
      <trkpt lat="45.39732" lon="6.77454">
        <ele>2325.8</ele>
        <time>2020-03-16T10:40:09Z</time>
      </trkpt>
      <trkpt lat="45.39729" lon="6.77445">
        <ele>2326.5</ele>
        <time>2020-03-16T10:40:19Z</time>
      </trkpt>
      <trkpt lat="45.39729" lon="6.77445">
        <ele>2326.5</ele>
        <time>2020-03-16T10:40:20Z</time>
      </trkpt>
      <trkpt lat="45.39725" lon="6.77439">
        <ele>2326.8</ele>
        <time>2020-03-16T10:40:26Z</time>
      </trkpt>
      <trkpt lat="45.3972" lon="6.77423">
        <ele>2327.4</ele>
        <time>2020-03-16T10:40:39Z</time>
      </trkpt>
      <trkpt lat="45.39719" lon="6.77422">
        <ele>2327.5</ele>
        <time>2020-03-16T10:40:40Z</time>
      </trkpt>
      <trkpt lat="45.39715" lon="6.77413">
        <ele>2327.8</ele>
        <time>2020-03-16T10:40:50Z</time>
      </trkpt>
      <trkpt lat="45.39713" lon="6.77406">
        <ele>2328.1</ele>
        <time>2020-03-16T10:41:02Z</time>
      </trkpt>
      <trkpt lat="45.39714" lon="6.7741">
        <ele>2328.4</ele>
        <time>2020-03-16T10:41:23Z</time>
      </trkpt>
      <trkpt lat="45.39711" lon="6.77409">
        <ele>2328.6</ele>
        <time>2020-03-16T10:41:44Z</time>
      </trkpt>
      <trkpt lat="45.39711" lon="6.77409">
        <ele>2328.6</ele>
        <time>2020-03-16T10:41:45Z</time>
      </trkpt>
      <trkpt lat="45.39708" lon="6.77409">
        <ele>2329</ele>
        <time>2020-03-16T10:42:27Z</time>
      </trkpt>
      <trkpt lat="45.3971" lon="6.77406">
        <ele>2329.3</ele>
        <time>2020-03-16T10:43:04Z</time>
      </trkpt>
      <trkpt lat="45.39712" lon="6.77406">
        <ele>2329.3</ele>
        <time>2020-03-16T10:43:07Z</time>
      </trkpt>
      <trkpt lat="45.39714" lon="6.77398">
        <ele>2329.6</ele>
        <time>2020-03-16T10:43:50Z</time>
      </trkpt>
      <trkpt lat="45.39712" lon="6.774">
        <ele>2329.8</ele>
        <time>2020-03-16T10:44:20Z</time>
      </trkpt>
      <trkpt lat="45.39711" lon="6.77401">
        <ele>2329.8</ele>
        <time>2020-03-16T10:44:21Z</time>
      </trkpt>
      <trkpt lat="45.39711" lon="6.77406">
        <ele>2330.4</ele>
        <time>2020-03-16T10:45:56Z</time>
      </trkpt>
      <trkpt lat="45.39713" lon="6.77403">
        <ele>2330.7</ele>
        <time>2020-03-16T10:47:03Z</time>
      </trkpt>
      <trkpt lat="45.39715" lon="6.77405">
        <ele>2330.8</ele>
        <time>2020-03-16T10:47:35Z</time>
      </trkpt>
      <trkpt lat="45.39713" lon="6.77408">
        <ele>2330.9</ele>
        <time>2020-03-16T10:47:51Z</time>
      </trkpt>
      <trkpt lat="45.39712" lon="6.77406">
        <ele>2331.2</ele>
        <time>2020-03-16T10:48:42Z</time>
      </trkpt>
      <trkpt lat="45.39713" lon="6.77397">
        <ele>2331.5</ele>
        <time>2020-03-16T10:49:04Z</time>
      </trkpt>
      <trkpt lat="45.39713" lon="6.77396">
        <ele>2331.6</ele>
        <time>2020-03-16T10:49:05Z</time>
      </trkpt>
      <trkpt lat="45.39714" lon="6.77373">
        <ele>2331.9</ele>
        <time>2020-03-16T10:49:57Z</time>
      </trkpt>
      <trkpt lat="45.39714" lon="6.77373">
        <ele>2331.9</ele>
        <time>2020-03-16T10:49:58Z</time>
      </trkpt>
      <trkpt lat="45.39715" lon="6.77368">
        <ele>2332</ele>
        <time>2020-03-16T10:50:04Z</time>
      </trkpt>
      <trkpt lat="45.39713" lon="6.77365">
        <ele>2332</ele>
        <time>2020-03-16T10:54:07Z</time>
      </trkpt>
      <trkpt lat="45.3971" lon="6.77351">
        <ele>2332</ele>
        <time>2020-03-16T10:54:12Z</time>
      </trkpt>
      <trkpt lat="45.39709" lon="6.77348">
        <ele>2332</ele>
        <time>2020-03-16T10:54:13Z</time>
      </trkpt>
      <trkpt lat="45.39704" lon="6.77323">
        <ele>2332</ele>
        <time>2020-03-16T10:54:22Z</time>
      </trkpt>
      <trkpt lat="45.39704" lon="6.7732">
        <ele>2332</ele>
        <time>2020-03-16T10:54:23Z</time>
      </trkpt>
      <trkpt lat="45.39702" lon="6.77315">
        <ele>2332</ele>
        <time>2020-03-16T10:54:25Z</time>
      </trkpt>
      <trkpt lat="45.39696" lon="6.77292">
        <ele>2331.9</ele>
        <time>2020-03-16T10:54:32Z</time>
      </trkpt>
      <trkpt lat="45.39695" lon="6.77287">
        <ele>2331.9</ele>
        <time>2020-03-16T10:54:33Z</time>
      </trkpt>
      <trkpt lat="45.39686" lon="6.77259">
        <ele>2331.9</ele>
        <time>2020-03-16T10:54:39Z</time>
      </trkpt>
      <trkpt lat="45.39685" lon="6.77252">
        <ele>2331.9</ele>
        <time>2020-03-16T10:54:41Z</time>
      </trkpt>
      <trkpt lat="45.39685" lon="6.7725">
        <ele>2331.9</ele>
        <time>2020-03-16T10:54:42Z</time>
      </trkpt>
      <trkpt lat="45.39684" lon="6.77241">
        <ele>2331.9</ele>
        <time>2020-03-16T10:54:47Z</time>
      </trkpt>
      <trkpt lat="45.3969" lon="6.77228">
        <ele>2331.8</ele>
        <time>2020-03-16T10:54:55Z</time>
      </trkpt>
      <trkpt lat="45.39691" lon="6.77225">
        <ele>2331.8</ele>
        <time>2020-03-16T10:54:56Z</time>
      </trkpt>
      <trkpt lat="45.39692" lon="6.77213">
        <ele>2331.8</ele>
        <time>2020-03-16T10:55:00Z</time>
      </trkpt>
      <trkpt lat="45.39689" lon="6.77192">
        <ele>2331.7</ele>
        <time>2020-03-16T10:55:05Z</time>
      </trkpt>
      <trkpt lat="45.39688" lon="6.77187">
        <ele>2331.7</ele>
        <time>2020-03-16T10:55:06Z</time>
      </trkpt>
      <trkpt lat="45.39685" lon="6.77176">
        <ele>2331.6</ele>
        <time>2020-03-16T10:55:08Z</time>
      </trkpt>
      <trkpt lat="45.39685" lon="6.77171">
        <ele>2331.6</ele>
        <time>2020-03-16T10:55:09Z</time>
      </trkpt>
      <trkpt lat="45.39688" lon="6.77168">
        <ele>2331.6</ele>
        <time>2020-03-16T10:55:10Z</time>
      </trkpt>
      <trkpt lat="45.39692" lon="6.77163">
        <ele>2331.6</ele>
        <time>2020-03-16T10:55:11Z</time>
      </trkpt>
      <trkpt lat="45.39691" lon="6.77156">
        <ele>2331.6</ele>
        <time>2020-03-16T10:55:12Z</time>
      </trkpt>
      <trkpt lat="45.39686" lon="6.77148">
        <ele>2331.5</ele>
        <time>2020-03-16T10:55:14Z</time>
      </trkpt>
      <trkpt lat="45.39687" lon="6.7714">
        <ele>2331.5</ele>
        <time>2020-03-16T10:55:16Z</time>
      </trkpt>
      <trkpt lat="45.3969" lon="6.77138">
        <ele>2331.5</ele>
        <time>2020-03-16T10:55:17Z</time>
      </trkpt>
      <trkpt lat="45.39692" lon="6.77135">
        <ele>2331.5</ele>
        <time>2020-03-16T10:55:18Z</time>
      </trkpt>
      <trkpt lat="45.39692" lon="6.7713">
        <ele>2331.5</ele>
        <time>2020-03-16T10:55:19Z</time>
      </trkpt>
      <trkpt lat="45.3969" lon="6.77126">
        <ele>2331.5</ele>
        <time>2020-03-16T10:55:20Z</time>
      </trkpt>
      <trkpt lat="45.39683" lon="6.7712">
        <ele>2331.5</ele>
        <time>2020-03-16T10:55:23Z</time>
      </trkpt>
      <trkpt lat="45.3968" lon="6.77113">
        <ele>2331.5</ele>
        <time>2020-03-16T10:55:25Z</time>
      </trkpt>
      <trkpt lat="45.3968" lon="6.77108">
        <ele>2331.5</ele>
        <time>2020-03-16T10:55:26Z</time>
      </trkpt>
      <trkpt lat="45.39681" lon="6.77104">
        <ele>2331.5</ele>
        <time>2020-03-16T10:55:27Z</time>
      </trkpt>
      <trkpt lat="45.39684" lon="6.77104">
        <ele>2331.5</ele>
        <time>2020-03-16T10:55:28Z</time>
      </trkpt>
      <trkpt lat="45.39686" lon="6.771">
        <ele>2331.4</ele>
        <time>2020-03-16T10:55:29Z</time>
      </trkpt>
      <trkpt lat="45.39682" lon="6.77091">
        <ele>2331.4</ele>
        <time>2020-03-16T10:55:31Z</time>
      </trkpt>
      <trkpt lat="45.39679" lon="6.77089">
        <ele>2331.4</ele>
        <time>2020-03-16T10:55:32Z</time>
      </trkpt>
      <trkpt lat="45.39677" lon="6.77084">
        <ele>2331.4</ele>
        <time>2020-03-16T10:55:33Z</time>
      </trkpt>
      <trkpt lat="45.39678" lon="6.77081">
        <ele>2331.4</ele>
        <time>2020-03-16T10:55:34Z</time>
      </trkpt>
      <trkpt lat="45.3968" lon="6.77077">
        <ele>2331.3</ele>
        <time>2020-03-16T10:55:35Z</time>
      </trkpt>
      <trkpt lat="45.3968" lon="6.77069">
        <ele>2331.3</ele>
        <time>2020-03-16T10:55:36Z</time>
      </trkpt>
      <trkpt lat="45.39679" lon="6.77063">
        <ele>2331.2</ele>
        <time>2020-03-16T10:55:37Z</time>
      </trkpt>
      <trkpt lat="45.39677" lon="6.77059">
        <ele>2331.2</ele>
        <time>2020-03-16T10:55:38Z</time>
      </trkpt>
      <trkpt lat="45.39666" lon="6.77053">
        <ele>2331.2</ele>
        <time>2020-03-16T10:55:43Z</time>
      </trkpt>
      <trkpt lat="45.3966" lon="6.77047">
        <ele>2331.2</ele>
        <time>2020-03-16T10:55:46Z</time>
      </trkpt>
      <trkpt lat="45.39658" lon="6.77045">
        <ele>2331.2</ele>
        <time>2020-03-16T10:55:47Z</time>
      </trkpt>
      <trkpt lat="45.39654" lon="6.77042">
        <ele>2331.2</ele>
        <time>2020-03-16T10:55:49Z</time>
      </trkpt>
      <trkpt lat="45.39651" lon="6.77038">
        <ele>2331.2</ele>
        <time>2020-03-16T10:55:50Z</time>
      </trkpt>
      <trkpt lat="45.3965" lon="6.77033">
        <ele>2331.1</ele>
        <time>2020-03-16T10:55:51Z</time>
      </trkpt>
      <trkpt lat="45.39651" lon="6.77026">
        <ele>2331.1</ele>
        <time>2020-03-16T10:55:52Z</time>
      </trkpt>
      <trkpt lat="45.39653" lon="6.77019">
        <ele>2331</ele>
        <time>2020-03-16T10:55:53Z</time>
      </trkpt>
      <trkpt lat="45.39654" lon="6.77013">
        <ele>2331</ele>
        <time>2020-03-16T10:55:54Z</time>
      </trkpt>
      <trkpt lat="45.39648" lon="6.77004">
        <ele>2330.9</ele>
        <time>2020-03-16T10:55:56Z</time>
      </trkpt>
      <trkpt lat="45.39645" lon="6.76998">
        <ele>2330.9</ele>
        <time>2020-03-16T10:55:57Z</time>
      </trkpt>
      <trkpt lat="45.39634" lon="6.76988">
        <ele>2330.9</ele>
        <time>2020-03-16T10:56:01Z</time>
      </trkpt>
      <trkpt lat="45.39627" lon="6.76983">
        <ele>2330.9</ele>
        <time>2020-03-16T10:56:04Z</time>
      </trkpt>
      <trkpt lat="45.39623" lon="6.76982">
        <ele>2330.8</ele>
        <time>2020-03-16T10:56:06Z</time>
      </trkpt>
      <trkpt lat="45.39621" lon="6.7698">
        <ele>2330.8</ele>
        <time>2020-03-16T10:56:07Z</time>
      </trkpt>
      <trkpt lat="45.39614" lon="6.76977">
        <ele>2330.8</ele>
        <time>2020-03-16T10:56:20Z</time>
      </trkpt>
      <trkpt lat="45.39612" lon="6.76979">
        <ele>2330.5</ele>
        <time>2020-03-16T10:56:48Z</time>
      </trkpt>
      <trkpt lat="45.3961" lon="6.76976">
        <ele>2330.4</ele>
        <time>2020-03-16T10:56:50Z</time>
      </trkpt>
      <trkpt lat="45.39612" lon="6.76972">
        <ele>2330.4</ele>
        <time>2020-03-16T10:56:51Z</time>
      </trkpt>
      <trkpt lat="45.39615" lon="6.7697">
        <ele>2330.3</ele>
        <time>2020-03-16T10:56:52Z</time>
      </trkpt>
      <trkpt lat="45.39619" lon="6.76971">
        <ele>2330.3</ele>
        <time>2020-03-16T10:56:53Z</time>
      </trkpt>
      <trkpt lat="45.39622" lon="6.76969">
        <ele>2330.2</ele>
        <time>2020-03-16T10:56:54Z</time>
      </trkpt>
      <trkpt lat="45.39622" lon="6.76964">
        <ele>2330.2</ele>
        <time>2020-03-16T10:56:55Z</time>
      </trkpt>
      <trkpt lat="45.39619" lon="6.76955">
        <ele>2330.2</ele>
        <time>2020-03-16T10:56:57Z</time>
      </trkpt>
      <trkpt lat="45.3962" lon="6.76952">
        <ele>2330.1</ele>
        <time>2020-03-16T10:56:58Z</time>
      </trkpt>
      <trkpt lat="45.39623" lon="6.76951">
        <ele>2330</ele>
        <time>2020-03-16T10:56:59Z</time>
      </trkpt>
      <trkpt lat="45.39626" lon="6.76946">
        <ele>2329.4</ele>
        <time>2020-03-16T10:57:00Z</time>
      </trkpt>
      <trkpt lat="45.39626" lon="6.76938">
        <ele>2328.5</ele>
        <time>2020-03-16T10:57:01Z</time>
      </trkpt>
      <trkpt lat="45.39623" lon="6.76932">
        <ele>2327.5</ele>
        <time>2020-03-16T10:57:02Z</time>
      </trkpt>
      <trkpt lat="45.39619" lon="6.76928">
        <ele>2326.4</ele>
        <time>2020-03-16T10:57:03Z</time>
      </trkpt>
      <trkpt lat="45.39616" lon="6.76923">
        <ele>2325.4</ele>
        <time>2020-03-16T10:57:04Z</time>
      </trkpt>
      <trkpt lat="45.39614" lon="6.76917">
        <ele>2324.5</ele>
        <time>2020-03-16T10:57:05Z</time>
      </trkpt>
      <trkpt lat="45.39622" lon="6.76907">
        <ele>2324.6</ele>
        <time>2020-03-16T10:57:07Z</time>
      </trkpt>
      <trkpt lat="45.39623" lon="6.76897">
        <ele>2323.6</ele>
        <time>2020-03-16T10:57:08Z</time>
      </trkpt>
      <trkpt lat="45.3962" lon="6.7689">
        <ele>2322.5</ele>
        <time>2020-03-16T10:57:09Z</time>
      </trkpt>
      <trkpt lat="45.39616" lon="6.76885">
        <ele>2320.8</ele>
        <time>2020-03-16T10:57:10Z</time>
      </trkpt>
      <trkpt lat="45.39616" lon="6.76879">
        <ele>2320.7</ele>
        <time>2020-03-16T10:57:11Z</time>
      </trkpt>
      <trkpt lat="45.39615" lon="6.76873">
        <ele>2319.5</ele>
        <time>2020-03-16T10:57:12Z</time>
      </trkpt>
      <trkpt lat="45.3961" lon="6.76867">
        <ele>2318.6</ele>
        <time>2020-03-16T10:57:13Z</time>
      </trkpt>
      <trkpt lat="45.39606" lon="6.76862">
        <ele>2318.5</ele>
        <time>2020-03-16T10:57:14Z</time>
      </trkpt>
      <trkpt lat="45.39606" lon="6.76858">
        <ele>2318.4</ele>
        <time>2020-03-16T10:57:15Z</time>
      </trkpt>
      <trkpt lat="45.39608" lon="6.76854">
        <ele>2316.6</ele>
        <time>2020-03-16T10:57:16Z</time>
      </trkpt>
      <trkpt lat="45.39602" lon="6.76842">
        <ele>2314.7</ele>
        <time>2020-03-16T10:57:18Z</time>
      </trkpt>
      <trkpt lat="45.39599" lon="6.7684">
        <ele>2314.5</ele>
        <time>2020-03-16T10:57:19Z</time>
      </trkpt>
      <trkpt lat="45.39597" lon="6.76835">
        <ele>2313.2</ele>
        <time>2020-03-16T10:57:20Z</time>
      </trkpt>
      <trkpt lat="45.39604" lon="6.76815">
        <ele>2312.8</ele>
        <time>2020-03-16T10:57:23Z</time>
      </trkpt>
      <trkpt lat="45.39602" lon="6.76812">
        <ele>2312.6</ele>
        <time>2020-03-16T10:57:24Z</time>
      </trkpt>
      <trkpt lat="45.39595" lon="6.76809">
        <ele>2310.5</ele>
        <time>2020-03-16T10:57:26Z</time>
      </trkpt>
      <trkpt lat="45.39587" lon="6.7681">
        <ele>2310.1</ele>
        <time>2020-03-16T10:57:28Z</time>
      </trkpt>
      <trkpt lat="45.39584" lon="6.76807">
        <ele>2307.7</ele>
        <time>2020-03-16T10:57:29Z</time>
      </trkpt>
      <trkpt lat="45.39583" lon="6.768">
        <ele>2307.5</ele>
        <time>2020-03-16T10:57:30Z</time>
      </trkpt>
      <trkpt lat="45.39583" lon="6.76794">
        <ele>2307.3</ele>
        <time>2020-03-16T10:57:31Z</time>
      </trkpt>
      <trkpt lat="45.39585" lon="6.7679">
        <ele>2306.8</ele>
        <time>2020-03-16T10:57:33Z</time>
      </trkpt>
      <trkpt lat="45.39585" lon="6.76789">
        <ele>2306.5</ele>
        <time>2020-03-16T10:57:34Z</time>
      </trkpt>
      <trkpt lat="45.39586" lon="6.76783">
        <ele>2304.8</ele>
        <time>2020-03-16T10:57:40Z</time>
      </trkpt>
      <trkpt lat="45.39584" lon="6.76778">
        <ele>2301.8</ele>
        <time>2020-03-16T10:57:41Z</time>
      </trkpt>
      <trkpt lat="45.39583" lon="6.76772">
        <ele>2301.5</ele>
        <time>2020-03-16T10:57:42Z</time>
      </trkpt>
      <trkpt lat="45.39584" lon="6.76769">
        <ele>2301.3</ele>
        <time>2020-03-16T10:57:43Z</time>
      </trkpt>
      <trkpt lat="45.39584" lon="6.76767">
        <ele>2301</ele>
        <time>2020-03-16T10:57:44Z</time>
      </trkpt>
      <trkpt lat="45.39579" lon="6.7676">
        <ele>2297.8</ele>
        <time>2020-03-16T10:57:46Z</time>
      </trkpt>
      <trkpt lat="45.39579" lon="6.76756">
        <ele>2297.5</ele>
        <time>2020-03-16T10:57:47Z</time>
      </trkpt>
      <trkpt lat="45.39579" lon="6.76752">
        <ele>2297.2</ele>
        <time>2020-03-16T10:57:48Z</time>
      </trkpt>
      <trkpt lat="45.39573" lon="6.76745">
        <ele>2294.6</ele>
        <time>2020-03-16T10:57:55Z</time>
      </trkpt>
      <trkpt lat="45.39567" lon="6.76744">
        <ele>2293.6</ele>
        <time>2020-03-16T10:57:57Z</time>
      </trkpt>
      <trkpt lat="45.3956" lon="6.76745">
        <ele>2292.6</ele>
        <time>2020-03-16T10:57:59Z</time>
      </trkpt>
      <trkpt lat="45.39557" lon="6.76747">
        <ele>2292</ele>
        <time>2020-03-16T10:58:00Z</time>
      </trkpt>
      <trkpt lat="45.39546" lon="6.76758">
        <ele>2289.2</ele>
        <time>2020-03-16T10:58:05Z</time>
      </trkpt>
      <trkpt lat="45.39536" lon="6.76763">
        <ele>2278</ele>
        <time>2020-03-16T10:58:08Z</time>
      </trkpt>
      <trkpt lat="45.39533" lon="6.76766">
        <ele>2277.6</ele>
        <time>2020-03-16T10:58:09Z</time>
      </trkpt>
      <trkpt lat="45.39531" lon="6.76767">
        <ele>2277.2</ele>
        <time>2020-03-16T10:58:10Z</time>
      </trkpt>
      <trkpt lat="45.39529" lon="6.76765">
        <ele>2276.8</ele>
        <time>2020-03-16T10:58:11Z</time>
      </trkpt>
      <trkpt lat="45.39529" lon="6.76759">
        <ele>2274.5</ele>
        <time>2020-03-16T10:58:17Z</time>
      </trkpt>
      <trkpt lat="45.39532" lon="6.76749">
        <ele>2267.3</ele>
        <time>2020-03-16T10:59:00Z</time>
      </trkpt>
      <trkpt lat="45.39526" lon="6.76738">
        <ele>2262.3</ele>
        <time>2020-03-16T10:59:03Z</time>
      </trkpt>
      <trkpt lat="45.39525" lon="6.76737">
        <ele>2262</ele>
        <time>2020-03-16T10:59:04Z</time>
      </trkpt>
      <trkpt lat="45.39519" lon="6.7672">
        <ele>2258.2</ele>
        <time>2020-03-16T10:59:17Z</time>
      </trkpt>
      <trkpt lat="45.3952" lon="6.76724">
        <ele>2249.5</ele>
        <time>2020-03-16T10:59:59Z</time>
      </trkpt>
      <trkpt lat="45.3952" lon="6.76724">
        <ele>2249.2</ele>
        <time>2020-03-16T11:00:00Z</time>
      </trkpt>
      <trkpt lat="45.39514" lon="6.76708">
        <ele>2246</ele>
        <time>2020-03-16T11:00:18Z</time>
      </trkpt>
      <trkpt lat="45.39514" lon="6.76706">
        <ele>2245.8</ele>
        <time>2020-03-16T11:00:19Z</time>
      </trkpt>
      <trkpt lat="45.39509" lon="6.76696">
        <ele>2245</ele>
        <time>2020-03-16T11:00:23Z</time>
      </trkpt>
      <trkpt lat="45.39509" lon="6.76689">
        <ele>2242.2</ele>
        <time>2020-03-16T11:00:42Z</time>
      </trkpt>
      <trkpt lat="45.39508" lon="6.76682">
        <ele>2240.6</ele>
        <time>2020-03-16T11:00:54Z</time>
      </trkpt>
      <trkpt lat="45.39508" lon="6.76681">
        <ele>2240.5</ele>
        <time>2020-03-16T11:00:55Z</time>
      </trkpt>
      <trkpt lat="45.39502" lon="6.76662">
        <ele>2239.2</ele>
        <time>2020-03-16T11:01:05Z</time>
      </trkpt>
      <trkpt lat="45.39501" lon="6.76661">
        <ele>2239.1</ele>
        <time>2020-03-16T11:01:06Z</time>
      </trkpt>
      <trkpt lat="45.395" lon="6.76655">
        <ele>2238.7</ele>
        <time>2020-03-16T11:01:09Z</time>
      </trkpt>
      <trkpt lat="45.39494" lon="6.76638">
        <ele>2238.1</ele>
        <time>2020-03-16T11:01:15Z</time>
      </trkpt>
      <trkpt lat="45.39493" lon="6.76637">
        <ele>2238</ele>
        <time>2020-03-16T11:01:16Z</time>
      </trkpt>
      <trkpt lat="45.3949" lon="6.76628">
        <ele>2235.5</ele>
        <time>2020-03-16T11:01:46Z</time>
      </trkpt>
      <trkpt lat="45.3949" lon="6.76616">
        <ele>2234.7</ele>
        <time>2020-03-16T11:01:53Z</time>
      </trkpt>
      <trkpt lat="45.3949" lon="6.76616">
        <ele>2234.6</ele>
        <time>2020-03-16T11:01:54Z</time>
      </trkpt>
      <trkpt lat="45.39486" lon="6.76594">
        <ele>2232.7</ele>
        <time>2020-03-16T11:02:14Z</time>
      </trkpt>
      <trkpt lat="45.39485" lon="6.76591">
        <ele>2232.6</ele>
        <time>2020-03-16T11:02:15Z</time>
      </trkpt>
      <trkpt lat="45.39477" lon="6.76565">
        <ele>2229.6</ele>
        <time>2020-03-16T11:02:40Z</time>
      </trkpt>
      <trkpt lat="45.39477" lon="6.76564">
        <ele>2229.5</ele>
        <time>2020-03-16T11:02:41Z</time>
      </trkpt>
      <trkpt lat="45.39476" lon="6.76562">
        <ele>2229.4</ele>
        <time>2020-03-16T11:02:42Z</time>
      </trkpt>
      <trkpt lat="45.39477" lon="6.76559">
        <ele>2227.2</ele>
        <time>2020-03-16T11:03:09Z</time>
      </trkpt>
      <trkpt lat="45.39467" lon="6.76536">
        <ele>2226.3</ele>
        <time>2020-03-16T11:03:16Z</time>
      </trkpt>
      <trkpt lat="45.39465" lon="6.76534">
        <ele>2226.1</ele>
        <time>2020-03-16T11:03:17Z</time>
      </trkpt>
      <trkpt lat="45.39463" lon="6.7653">
        <ele>2225.2</ele>
        <time>2020-03-16T11:03:23Z</time>
      </trkpt>
      <trkpt lat="45.39462" lon="6.76524">
        <ele>2224.7</ele>
        <time>2020-03-16T11:03:26Z</time>
      </trkpt>
      <trkpt lat="45.39462" lon="6.76514">
        <ele>2222.9</ele>
        <time>2020-03-16T11:03:36Z</time>
      </trkpt>
      <trkpt lat="45.39464" lon="6.76512">
        <ele>2222.2</ele>
        <time>2020-03-16T11:03:40Z</time>
      </trkpt>
      <trkpt lat="45.39464" lon="6.76509">
        <ele>2222</ele>
        <time>2020-03-16T11:03:41Z</time>
      </trkpt>
      <trkpt lat="45.39464" lon="6.76505">
        <ele>2221.8</ele>
        <time>2020-03-16T11:03:42Z</time>
      </trkpt>
      <trkpt lat="45.39463" lon="6.76503">
        <ele>2221.6</ele>
        <time>2020-03-16T11:03:43Z</time>
      </trkpt>
      <trkpt lat="45.39463" lon="6.76495">
        <ele>2219.8</ele>
        <time>2020-03-16T11:03:58Z</time>
      </trkpt>
      <trkpt lat="45.39459" lon="6.76479">
        <ele>2218.8</ele>
        <time>2020-03-16T11:04:03Z</time>
      </trkpt>
      <trkpt lat="45.39457" lon="6.76477">
        <ele>2218.6</ele>
        <time>2020-03-16T11:04:04Z</time>
      </trkpt>
      <trkpt lat="45.3945" lon="6.76462">
        <ele>2216.9</ele>
        <time>2020-03-16T11:04:13Z</time>
      </trkpt>
      <trkpt lat="45.39446" lon="6.7646">
        <ele>2213.6</ele>
        <time>2020-03-16T11:04:35Z</time>
      </trkpt>
      <trkpt lat="45.39444" lon="6.76456">
        <ele>2213.2</ele>
        <time>2020-03-16T11:04:37Z</time>
      </trkpt>
      <trkpt lat="45.39444" lon="6.76455">
        <ele>2213</ele>
        <time>2020-03-16T11:04:38Z</time>
      </trkpt>
      <trkpt lat="45.39434" lon="6.76438">
        <ele>2210</ele>
        <time>2020-03-16T11:04:46Z</time>
      </trkpt>
      <trkpt lat="45.39429" lon="6.76427">
        <ele>2209.4</ele>
        <time>2020-03-16T11:04:49Z</time>
      </trkpt>
      <trkpt lat="45.39426" lon="6.76422">
        <ele>2207.7</ele>
        <time>2020-03-16T11:04:50Z</time>
      </trkpt>
      <trkpt lat="45.39424" lon="6.76415">
        <ele>2206</ele>
        <time>2020-03-16T11:04:51Z</time>
      </trkpt>
      <trkpt lat="45.39413" lon="6.76393">
        <ele>2200.2</ele>
        <time>2020-03-16T11:05:01Z</time>
      </trkpt>
      <trkpt lat="45.39407" lon="6.76383">
        <ele>2198.5</ele>
        <time>2020-03-16T11:05:03Z</time>
      </trkpt>
      <trkpt lat="45.39404" lon="6.76381">
        <ele>2198.3</ele>
        <time>2020-03-16T11:05:04Z</time>
      </trkpt>
      <trkpt lat="45.39399" lon="6.76377">
        <ele>2192.2</ele>
        <time>2020-03-16T11:06:27Z</time>
      </trkpt>
      <trkpt lat="45.39392" lon="6.76365">
        <ele>2190.5</ele>
        <time>2020-03-16T11:06:31Z</time>
      </trkpt>
      <trkpt lat="45.3939" lon="6.76352">
        <ele>2182.8</ele>
        <time>2020-03-16T11:06:33Z</time>
      </trkpt>
      <trkpt lat="45.39386" lon="6.76344">
        <ele>2179.9</ele>
        <time>2020-03-16T11:06:34Z</time>
      </trkpt>
      <trkpt lat="45.39374" lon="6.76324">
        <ele>2172.9</ele>
        <time>2020-03-16T11:06:38Z</time>
      </trkpt>
      <trkpt lat="45.39364" lon="6.76302">
        <ele>2170.1</ele>
        <time>2020-03-16T11:06:43Z</time>
      </trkpt>
      <trkpt lat="45.39361" lon="6.76299">
        <ele>2170</ele>
        <time>2020-03-16T11:06:44Z</time>
      </trkpt>
      <trkpt lat="45.3935" lon="6.7628">
        <ele>2169</ele>
        <time>2020-03-16T11:06:53Z</time>
      </trkpt>
      <trkpt lat="45.39349" lon="6.76276">
        <ele>2168.4</ele>
        <time>2020-03-16T11:06:54Z</time>
      </trkpt>
      <trkpt lat="45.39347" lon="6.76272">
        <ele>2167.7</ele>
        <time>2020-03-16T11:06:55Z</time>
      </trkpt>
      <trkpt lat="45.39332" lon="6.76246">
        <ele>2166</ele>
        <time>2020-03-16T11:07:00Z</time>
      </trkpt>
      <trkpt lat="45.39321" lon="6.76236">
        <ele>2164.5</ele>
        <time>2020-03-16T11:07:03Z</time>
      </trkpt>
      <trkpt lat="45.39317" lon="6.76231">
        <ele>2164.1</ele>
        <time>2020-03-16T11:07:04Z</time>
      </trkpt>
      <trkpt lat="45.39313" lon="6.76226">
        <ele>2163.5</ele>
        <time>2020-03-16T11:07:05Z</time>
      </trkpt>
      <trkpt lat="45.39306" lon="6.76216">
        <ele>2162.6</ele>
        <time>2020-03-16T11:07:07Z</time>
      </trkpt>
      <trkpt lat="45.39293" lon="6.76196">
        <ele>2162</ele>
        <time>2020-03-16T11:07:12Z</time>
      </trkpt>
      <trkpt lat="45.39289" lon="6.76192">
        <ele>2161.8</ele>
        <time>2020-03-16T11:07:14Z</time>
      </trkpt>
      <trkpt lat="45.39288" lon="6.7619">
        <ele>2161.7</ele>
        <time>2020-03-16T11:07:15Z</time>
      </trkpt>
      <trkpt lat="45.39271" lon="6.76168">
        <ele>2158.6</ele>
        <time>2020-03-16T11:07:26Z</time>
      </trkpt>
      <trkpt lat="45.39267" lon="6.76162">
        <ele>2157.7</ele>
        <time>2020-03-16T11:07:27Z</time>
      </trkpt>
      <trkpt lat="45.39254" lon="6.76142">
        <ele>2154.7</ele>
        <time>2020-03-16T11:07:31Z</time>
      </trkpt>
      <trkpt lat="45.3925" lon="6.76138">
        <ele>2154.2</ele>
        <time>2020-03-16T11:07:32Z</time>
      </trkpt>
      <trkpt lat="45.39238" lon="6.76124">
        <ele>2153.3</ele>
        <time>2020-03-16T11:07:36Z</time>
      </trkpt>
      <trkpt lat="45.39236" lon="6.7612">
        <ele>2152.7</ele>
        <time>2020-03-16T11:07:37Z</time>
      </trkpt>
      <trkpt lat="45.39216" lon="6.7608">
        <ele>2148.9</ele>
        <time>2020-03-16T11:07:46Z</time>
      </trkpt>
      <trkpt lat="45.39214" lon="6.76076">
        <ele>2148.7</ele>
        <time>2020-03-16T11:07:47Z</time>
      </trkpt>
      <trkpt lat="45.39206" lon="6.7606">
        <ele>2142.7</ele>
        <time>2020-03-16T11:07:50Z</time>
      </trkpt>
      <trkpt lat="45.39196" lon="6.76034">
        <ele>2139.7</ele>
        <time>2020-03-16T11:07:56Z</time>
      </trkpt>
      <trkpt lat="45.39196" lon="6.76034">
        <ele>2139.5</ele>
        <time>2020-03-16T11:07:57Z</time>
      </trkpt>
      <trkpt lat="45.39192" lon="6.76014">
        <ele>2133.9</ele>
        <time>2020-03-16T11:08:01Z</time>
      </trkpt>
      <trkpt lat="45.39188" lon="6.75984">
        <ele>2131</ele>
        <time>2020-03-16T11:08:06Z</time>
      </trkpt>
      <trkpt lat="45.39188" lon="6.75981">
        <ele>2130.9</ele>
        <time>2020-03-16T11:08:07Z</time>
      </trkpt>
      <trkpt lat="45.39187" lon="6.75975">
        <ele>2130.5</ele>
        <time>2020-03-16T11:08:09Z</time>
      </trkpt>
      <trkpt lat="45.39188" lon="6.75964">
        <ele>2128.5</ele>
        <time>2020-03-16T11:08:19Z</time>
      </trkpt>
      <trkpt lat="45.39187" lon="6.75952">
        <ele>2123.7</ele>
        <time>2020-03-16T11:08:21Z</time>
      </trkpt>
      <trkpt lat="45.39184" lon="6.75945">
        <ele>2121.8</ele>
        <time>2020-03-16T11:08:22Z</time>
      </trkpt>
      <trkpt lat="45.39181" lon="6.75941">
        <ele>2121.7</ele>
        <time>2020-03-16T11:08:23Z</time>
      </trkpt>
      <trkpt lat="45.39179" lon="6.75939">
        <ele>2121.5</ele>
        <time>2020-03-16T11:08:24Z</time>
      </trkpt>
      <trkpt lat="45.39175" lon="6.75932">
        <ele>2120.1</ele>
        <time>2020-03-16T11:08:32Z</time>
      </trkpt>
      <trkpt lat="45.3917" lon="6.7593">
        <ele>2118.9</ele>
        <time>2020-03-16T11:08:38Z</time>
      </trkpt>
      <trkpt lat="45.39168" lon="6.75928">
        <ele>2118.5</ele>
        <time>2020-03-16T11:08:40Z</time>
      </trkpt>
      <trkpt lat="45.39163" lon="6.7592">
        <ele>2116</ele>
        <time>2020-03-16T11:08:43Z</time>
      </trkpt>
      <trkpt lat="45.39161" lon="6.75915">
        <ele>2114.3</ele>
        <time>2020-03-16T11:08:44Z</time>
      </trkpt>
      <trkpt lat="45.3915" lon="6.75888">
        <ele>2109.7</ele>
        <time>2020-03-16T11:08:47Z</time>
      </trkpt>
      <trkpt lat="45.3914" lon="6.7587">
        <ele>2106.4</ele>
        <time>2020-03-16T11:08:49Z</time>
      </trkpt>
      <trkpt lat="45.39134" lon="6.75857">
        <ele>2103.2</ele>
        <time>2020-03-16T11:08:51Z</time>
      </trkpt>
      <trkpt lat="45.39128" lon="6.75847">
        <ele>2101.2</ele>
        <time>2020-03-16T11:08:53Z</time>
      </trkpt>
      <trkpt lat="45.39125" lon="6.75843">
        <ele>2099.1</ele>
        <time>2020-03-16T11:08:54Z</time>
      </trkpt>
      <trkpt lat="45.39121" lon="6.75833">
        <ele>2097</ele>
        <time>2020-03-16T11:08:56Z</time>
      </trkpt>
      <trkpt lat="45.39109" lon="6.75798">
        <ele>2088.1</ele>
        <time>2020-03-16T11:09:03Z</time>
      </trkpt>
      <trkpt lat="45.39106" lon="6.75793">
        <ele>2087</ele>
        <time>2020-03-16T11:09:04Z</time>
      </trkpt>
      <trkpt lat="45.39093" lon="6.75764">
        <ele>2083.8</ele>
        <time>2020-03-16T11:09:09Z</time>
      </trkpt>
      <trkpt lat="45.39091" lon="6.75756">
        <ele>2083.3</ele>
        <time>2020-03-16T11:09:10Z</time>
      </trkpt>
      <trkpt lat="45.39088" lon="6.75748">
        <ele>2082.7</ele>
        <time>2020-03-16T11:09:11Z</time>
      </trkpt>
      <trkpt lat="45.3908" lon="6.75735">
        <ele>2081.7</ele>
        <time>2020-03-16T11:09:13Z</time>
      </trkpt>
      <trkpt lat="45.39076" lon="6.75729">
        <ele>2081.1</ele>
        <time>2020-03-16T11:09:14Z</time>
      </trkpt>
      <trkpt lat="45.39065" lon="6.75709">
        <ele>2079.4</ele>
        <time>2020-03-16T11:09:17Z</time>
      </trkpt>
      <trkpt lat="45.39063" lon="6.75702">
        <ele>2078.9</ele>
        <time>2020-03-16T11:09:18Z</time>
      </trkpt>
      <trkpt lat="45.39053" lon="6.75658">
        <ele>2076.4</ele>
        <time>2020-03-16T11:09:23Z</time>
      </trkpt>
      <trkpt lat="45.3905" lon="6.75649">
        <ele>2075.9</ele>
        <time>2020-03-16T11:09:24Z</time>
      </trkpt>
      <trkpt lat="45.39039" lon="6.75607">
        <ele>2073.7</ele>
        <time>2020-03-16T11:09:28Z</time>
      </trkpt>
      <trkpt lat="45.39035" lon="6.75598">
        <ele>2073.1</ele>
        <time>2020-03-16T11:09:29Z</time>
      </trkpt>
      <trkpt lat="45.39035" lon="6.75579">
        <ele>2072</ele>
        <time>2020-03-16T11:09:31Z</time>
      </trkpt>
      <trkpt lat="45.3903" lon="6.75565">
        <ele>2071.1</ele>
        <time>2020-03-16T11:09:33Z</time>
      </trkpt>
      <trkpt lat="45.39028" lon="6.75559">
        <ele>2070.7</ele>
        <time>2020-03-16T11:09:34Z</time>
      </trkpt>
      <trkpt lat="45.3903" lon="6.75551">
        <ele>2070.2</ele>
        <time>2020-03-16T11:09:35Z</time>
      </trkpt>
      <trkpt lat="45.3903" lon="6.75532">
        <ele>2069.2</ele>
        <time>2020-03-16T11:09:37Z</time>
      </trkpt>
      <trkpt lat="45.39025" lon="6.75517">
        <ele>2068</ele>
        <time>2020-03-16T11:09:39Z</time>
      </trkpt>
      <trkpt lat="45.3902" lon="6.75485">
        <ele>2066</ele>
        <time>2020-03-16T11:09:43Z</time>
      </trkpt>
      <trkpt lat="45.39019" lon="6.75478">
        <ele>2065.6</ele>
        <time>2020-03-16T11:09:44Z</time>
      </trkpt>
      <trkpt lat="45.39015" lon="6.75465">
        <ele>2064.3</ele>
        <time>2020-03-16T11:09:46Z</time>
      </trkpt>
      <trkpt lat="45.3901" lon="6.75454">
        <ele>2064</ele>
        <time>2020-03-16T11:09:48Z</time>
      </trkpt>
      <trkpt lat="45.39007" lon="6.7545">
        <ele>2063.8</ele>
        <time>2020-03-16T11:09:49Z</time>
      </trkpt>
      <trkpt lat="45.38992" lon="6.75437">
        <ele>2061.7</ele>
        <time>2020-03-16T11:09:53Z</time>
      </trkpt>
      <trkpt lat="45.38989" lon="6.75433">
        <ele>2061.2</ele>
        <time>2020-03-16T11:09:54Z</time>
      </trkpt>
      <trkpt lat="45.38984" lon="6.75424">
        <ele>2061.1</ele>
        <time>2020-03-16T11:09:57Z</time>
      </trkpt>
      <trkpt lat="45.38974" lon="6.75411">
        <ele>2059.1</ele>
        <time>2020-03-16T11:10:00Z</time>
      </trkpt>
      <trkpt lat="45.38973" lon="6.75405">
        <ele>2058.3</ele>
        <time>2020-03-16T11:10:01Z</time>
      </trkpt>
      <trkpt lat="45.38974" lon="6.75399">
        <ele>2058.1</ele>
        <time>2020-03-16T11:10:03Z</time>
      </trkpt>
      <trkpt lat="45.38974" lon="6.75399">
        <ele>2058.1</ele>
        <time>2020-03-16T11:10:04Z</time>
      </trkpt>
      <trkpt lat="45.38975" lon="6.75397">
        <ele>2058.2</ele>
        <time>2020-03-16T11:10:13Z</time>
      </trkpt>
      <trkpt lat="45.3897" lon="6.75384">
        <ele>2057.4</ele>
        <time>2020-03-16T11:11:04Z</time>
      </trkpt>
      <trkpt lat="45.38972" lon="6.75375">
        <ele>2055</ele>
        <time>2020-03-16T11:11:46Z</time>
      </trkpt>
      <trkpt lat="45.38974" lon="6.75382">
        <ele>2053.7</ele>
        <time>2020-03-16T11:12:28Z</time>
      </trkpt>
      <trkpt lat="45.38974" lon="6.75382">
        <ele>2053.7</ele>
        <time>2020-03-16T11:12:29Z</time>
      </trkpt>
      <trkpt lat="45.3898" lon="6.75382">
        <ele>2047.7</ele>
        <time>2020-03-16T11:14:01Z</time>
      </trkpt>
      <trkpt lat="45.38983" lon="6.75372">
        <ele>2044.5</ele>
        <time>2020-03-16T11:14:20Z</time>
      </trkpt>
      <trkpt lat="45.38983" lon="6.75368">
        <ele>2043.7</ele>
        <time>2020-03-16T11:14:25Z</time>
      </trkpt>
      <trkpt lat="45.38983" lon="6.75367">
        <ele>2043.5</ele>
        <time>2020-03-16T11:14:26Z</time>
      </trkpt>
      <trkpt lat="45.38983" lon="6.75367">
        <ele>2043.4</ele>
        <time>2020-03-16T11:14:27Z</time>
      </trkpt>
      <trkpt lat="45.38983" lon="6.75356">
        <ele>2041</ele>
        <time>2020-03-16T11:15:05Z</time>
      </trkpt>
      <trkpt lat="45.38982" lon="6.75363">
        <ele>2040</ele>
        <time>2020-03-16T11:15:33Z</time>
      </trkpt>
      <trkpt lat="45.38985" lon="6.75357">
        <ele>2038.7</ele>
        <time>2020-03-16T11:17:10Z</time>
      </trkpt>
      <trkpt lat="45.38984" lon="6.75355">
        <ele>2038.7</ele>
        <time>2020-03-16T11:17:11Z</time>
      </trkpt>
      <trkpt lat="45.38984" lon="6.75353">
        <ele>2038.6</ele>
        <time>2020-03-16T11:17:12Z</time>
      </trkpt>
      <trkpt lat="45.38977" lon="6.75332">
        <ele>2038.2</ele>
        <time>2020-03-16T11:17:22Z</time>
      </trkpt>
      <trkpt lat="45.38977" lon="6.75329">
        <ele>2038.1</ele>
        <time>2020-03-16T11:17:23Z</time>
      </trkpt>
      <trkpt lat="45.38976" lon="6.75314">
        <ele>2037.8</ele>
        <time>2020-03-16T11:17:32Z</time>
      </trkpt>
      <trkpt lat="45.38974" lon="6.75306">
        <ele>2037.6</ele>
        <time>2020-03-16T11:17:37Z</time>
      </trkpt>
      <trkpt lat="45.38973" lon="6.75305">
        <ele>2037.6</ele>
        <time>2020-03-16T11:17:38Z</time>
      </trkpt>
      <trkpt lat="45.38971" lon="6.75298">
        <ele>2037.5</ele>
        <time>2020-03-16T11:17:41Z</time>
      </trkpt>
      <trkpt lat="45.38972" lon="6.75296">
        <ele>2037.5</ele>
        <time>2020-03-16T11:17:43Z</time>
      </trkpt>
      <trkpt lat="45.38971" lon="6.75292">
        <ele>2037.4</ele>
        <time>2020-03-16T11:18:09Z</time>
      </trkpt>
      <trkpt lat="45.38967" lon="6.75284">
        <ele>2037.1</ele>
        <time>2020-03-16T11:18:38Z</time>
      </trkpt>
      <trkpt lat="45.38967" lon="6.75283">
        <ele>2037.1</ele>
        <time>2020-03-16T11:18:39Z</time>
      </trkpt>
      <trkpt lat="45.38965" lon="6.75282">
        <ele>2037</ele>
        <time>2020-03-16T11:18:43Z</time>
      </trkpt>
      <trkpt lat="45.38964" lon="6.75279">
        <ele>2037</ele>
        <time>2020-03-16T11:18:45Z</time>
      </trkpt>
      <trkpt lat="45.38957" lon="6.75261">
        <ele>2036.9</ele>
        <time>2020-03-16T11:18:51Z</time>
      </trkpt>
      <trkpt lat="45.38957" lon="6.75259">
        <ele>2036.9</ele>
        <time>2020-03-16T11:18:52Z</time>
      </trkpt>
      <trkpt lat="45.38955" lon="6.75254">
        <ele>2036.9</ele>
        <time>2020-03-16T11:18:54Z</time>
      </trkpt>
      <trkpt lat="45.38949" lon="6.75245">
        <ele>2036.8</ele>
        <time>2020-03-16T11:18:57Z</time>
      </trkpt>
      <trkpt lat="45.38949" lon="6.7524">
        <ele>2036.8</ele>
        <time>2020-03-16T11:18:58Z</time>
      </trkpt>
      <trkpt lat="45.38944" lon="6.75227">
        <ele>2036.6</ele>
        <time>2020-03-16T11:19:01Z</time>
      </trkpt>
      <trkpt lat="45.38941" lon="6.75223">
        <ele>2036.5</ele>
        <time>2020-03-16T11:19:02Z</time>
      </trkpt>
      <trkpt lat="45.38938" lon="6.75211">
        <ele>2036.4</ele>
        <time>2020-03-16T11:19:04Z</time>
      </trkpt>
      <trkpt lat="45.38935" lon="6.75205">
        <ele>2036.3</ele>
        <time>2020-03-16T11:19:05Z</time>
      </trkpt>
      <trkpt lat="45.38928" lon="6.75187">
        <ele>2036.2</ele>
        <time>2020-03-16T11:19:08Z</time>
      </trkpt>
      <trkpt lat="45.38922" lon="6.75165">
        <ele>2036.1</ele>
        <time>2020-03-16T11:19:11Z</time>
      </trkpt>
      <trkpt lat="45.38921" lon="6.75158">
        <ele>2036.1</ele>
        <time>2020-03-16T11:19:12Z</time>
      </trkpt>
      <trkpt lat="45.38917" lon="6.75139">
        <ele>2036</ele>
        <time>2020-03-16T11:19:16Z</time>
      </trkpt>
      <trkpt lat="45.3891" lon="6.75126">
        <ele>2036</ele>
        <time>2020-03-16T11:19:18Z</time>
      </trkpt>
      <trkpt lat="45.38906" lon="6.75106">
        <ele>2035.9</ele>
        <time>2020-03-16T11:19:20Z</time>
      </trkpt>
      <trkpt lat="45.38902" lon="6.75098">
        <ele>2035.8</ele>
        <time>2020-03-16T11:19:21Z</time>
      </trkpt>
      <trkpt lat="45.38897" lon="6.75092">
        <ele>2035.8</ele>
        <time>2020-03-16T11:19:22Z</time>
      </trkpt>
      <trkpt lat="45.38893" lon="6.75085">
        <ele>2035.7</ele>
        <time>2020-03-16T11:19:23Z</time>
      </trkpt>
      <trkpt lat="45.38893" lon="6.75078">
        <ele>2035.6</ele>
        <time>2020-03-16T11:19:24Z</time>
      </trkpt>
      <trkpt lat="45.38891" lon="6.75069">
        <ele>2035.5</ele>
        <time>2020-03-16T11:19:25Z</time>
      </trkpt>
      <trkpt lat="45.38886" lon="6.75059">
        <ele>2035.3</ele>
        <time>2020-03-16T11:19:26Z</time>
      </trkpt>
      <trkpt lat="45.3888" lon="6.75049">
        <ele>2034.9</ele>
        <time>2020-03-16T11:19:27Z</time>
      </trkpt>
      <trkpt lat="45.38875" lon="6.75012">
        <ele>2030.6</ele>
        <time>2020-03-16T11:19:30Z</time>
      </trkpt>
      <trkpt lat="45.3887" lon="6.75005">
        <ele>2030</ele>
        <time>2020-03-16T11:19:31Z</time>
      </trkpt>
      <trkpt lat="45.38861" lon="6.75001">
        <ele>2029.7</ele>
        <time>2020-03-16T11:19:32Z</time>
      </trkpt>
      <trkpt lat="45.38853" lon="6.74996">
        <ele>2029.2</ele>
        <time>2020-03-16T11:19:33Z</time>
      </trkpt>
      <trkpt lat="45.38848" lon="6.74985">
        <ele>2028.2</ele>
        <time>2020-03-16T11:19:34Z</time>
      </trkpt>
      <trkpt lat="45.38847" lon="6.74973">
        <ele>2027</ele>
        <time>2020-03-16T11:19:35Z</time>
      </trkpt>
      <trkpt lat="45.38843" lon="6.74963">
        <ele>2025.6</ele>
        <time>2020-03-16T11:19:36Z</time>
      </trkpt>
      <trkpt lat="45.38839" lon="6.74955">
        <ele>2024.1</ele>
        <time>2020-03-16T11:19:37Z</time>
      </trkpt>
      <trkpt lat="45.38828" lon="6.74944">
        <ele>2020.9</ele>
        <time>2020-03-16T11:19:39Z</time>
      </trkpt>
      <trkpt lat="45.38824" lon="6.74937">
        <ele>2019.1</ele>
        <time>2020-03-16T11:19:40Z</time>
      </trkpt>
      <trkpt lat="45.38824" lon="6.74929">
        <ele>2017.2</ele>
        <time>2020-03-16T11:19:41Z</time>
      </trkpt>
      <trkpt lat="45.38823" lon="6.74921">
        <ele>2015.2</ele>
        <time>2020-03-16T11:19:42Z</time>
      </trkpt>
      <trkpt lat="45.38819" lon="6.74914">
        <ele>2013.3</ele>
        <time>2020-03-16T11:19:43Z</time>
      </trkpt>
      <trkpt lat="45.38814" lon="6.74907">
        <ele>2011.4</ele>
        <time>2020-03-16T11:19:44Z</time>
      </trkpt>
      <trkpt lat="45.38812" lon="6.74889">
        <ele>2007.5</ele>
        <time>2020-03-16T11:19:46Z</time>
      </trkpt>
      <trkpt lat="45.38795" lon="6.74867">
        <ele>2001.2</ele>
        <time>2020-03-16T11:19:49Z</time>
      </trkpt>
      <trkpt lat="45.3879" lon="6.7485">
        <ele>1997.4</ele>
        <time>2020-03-16T11:19:51Z</time>
      </trkpt>
      <trkpt lat="45.38786" lon="6.74849">
        <ele>1995.9</ele>
        <time>2020-03-16T11:19:52Z</time>
      </trkpt>
      <trkpt lat="45.38782" lon="6.74842">
        <ele>1994.4</ele>
        <time>2020-03-16T11:19:53Z</time>
      </trkpt>
      <trkpt lat="45.38781" lon="6.74834">
        <ele>1993</ele>
        <time>2020-03-16T11:19:54Z</time>
      </trkpt>
      <trkpt lat="45.38783" lon="6.74824">
        <ele>1991.6</ele>
        <time>2020-03-16T11:19:55Z</time>
      </trkpt>
      <trkpt lat="45.38784" lon="6.74818">
        <ele>1990.4</ele>
        <time>2020-03-16T11:19:56Z</time>
      </trkpt>
      <trkpt lat="45.3878" lon="6.74813">
        <ele>1989.2</ele>
        <time>2020-03-16T11:19:57Z</time>
      </trkpt>
      <trkpt lat="45.38778" lon="6.74805">
        <ele>1987.8</ele>
        <time>2020-03-16T11:19:58Z</time>
      </trkpt>
      <trkpt lat="45.38778" lon="6.74797">
        <ele>1985.8</ele>
        <time>2020-03-16T11:19:59Z</time>
      </trkpt>
      <trkpt lat="45.38775" lon="6.74789">
        <ele>1983.9</ele>
        <time>2020-03-16T11:20:00Z</time>
      </trkpt>
      <trkpt lat="45.3877" lon="6.74783">
        <ele>1981.7</ele>
        <time>2020-03-16T11:20:01Z</time>
      </trkpt>
      <trkpt lat="45.38766" lon="6.74775">
        <ele>1979.4</ele>
        <time>2020-03-16T11:20:02Z</time>
      </trkpt>
      <trkpt lat="45.38763" lon="6.74746">
        <ele>1972.5</ele>
        <time>2020-03-16T11:20:05Z</time>
      </trkpt>
      <trkpt lat="45.38758" lon="6.74739">
        <ele>1970.5</ele>
        <time>2020-03-16T11:20:06Z</time>
      </trkpt>
      <trkpt lat="45.38754" lon="6.74731">
        <ele>1968.7</ele>
        <time>2020-03-16T11:20:07Z</time>
      </trkpt>
      <trkpt lat="45.38755" lon="6.74721">
        <ele>1966.9</ele>
        <time>2020-03-16T11:20:08Z</time>
      </trkpt>
      <trkpt lat="45.38753" lon="6.74711">
        <ele>1965.2</ele>
        <time>2020-03-16T11:20:09Z</time>
      </trkpt>
      <trkpt lat="45.38747" lon="6.74706">
        <ele>1963.6</ele>
        <time>2020-03-16T11:20:10Z</time>
      </trkpt>
      <trkpt lat="45.38743" lon="6.74699">
        <ele>1962</ele>
        <time>2020-03-16T11:20:11Z</time>
      </trkpt>
      <trkpt lat="45.38741" lon="6.74691">
        <ele>1960.3</ele>
        <time>2020-03-16T11:20:12Z</time>
      </trkpt>
      <trkpt lat="45.38741" lon="6.74682">
        <ele>1958.6</ele>
        <time>2020-03-16T11:20:13Z</time>
      </trkpt>
      <trkpt lat="45.38736" lon="6.74661">
        <ele>1951.7</ele>
        <time>2020-03-16T11:20:17Z</time>
      </trkpt>
      <trkpt lat="45.38736" lon="6.74647">
        <ele>1948.7</ele>
        <time>2020-03-16T11:20:19Z</time>
      </trkpt>
      <trkpt lat="45.38734" lon="6.74642">
        <ele>1947.4</ele>
        <time>2020-03-16T11:20:20Z</time>
      </trkpt>
      <trkpt lat="45.38729" lon="6.74639">
        <ele>1946.3</ele>
        <time>2020-03-16T11:20:21Z</time>
      </trkpt>
      <trkpt lat="45.38722" lon="6.74637">
        <ele>1945.3</ele>
        <time>2020-03-16T11:20:22Z</time>
      </trkpt>
      <trkpt lat="45.38718" lon="6.74635">
        <ele>1944.4</ele>
        <time>2020-03-16T11:20:23Z</time>
      </trkpt>
      <trkpt lat="45.38714" lon="6.74629">
        <ele>1943.4</ele>
        <time>2020-03-16T11:20:24Z</time>
      </trkpt>
      <trkpt lat="45.38714" lon="6.7462">
        <ele>1942.5</ele>
        <time>2020-03-16T11:20:25Z</time>
      </trkpt>
      <trkpt lat="45.38695" lon="6.74596">
        <ele>1939.2</ele>
        <time>2020-03-16T11:20:30Z</time>
      </trkpt>
      <trkpt lat="45.38698" lon="6.74589">
        <ele>1938.3</ele>
        <time>2020-03-16T11:20:31Z</time>
      </trkpt>
      <trkpt lat="45.38689" lon="6.74573">
        <ele>1935.7</ele>
        <time>2020-03-16T11:20:35Z</time>
      </trkpt>
      <trkpt lat="45.38679" lon="6.74548">
        <ele>1930.3</ele>
        <time>2020-03-16T11:20:39Z</time>
      </trkpt>
      <trkpt lat="45.38671" lon="6.74536">
        <ele>1928.8</ele>
        <time>2020-03-16T11:20:41Z</time>
      </trkpt>
      <trkpt lat="45.38673" lon="6.74529">
        <ele>1926.8</ele>
        <time>2020-03-16T11:20:42Z</time>
      </trkpt>
      <trkpt lat="45.38669" lon="6.74521">
        <ele>1924.5</ele>
        <time>2020-03-16T11:20:43Z</time>
      </trkpt>
      <trkpt lat="45.38661" lon="6.74485">
        <ele>1914.5</ele>
        <time>2020-03-16T11:20:48Z</time>
      </trkpt>
      <trkpt lat="45.3863" lon="6.74484">
        <ele>1906</ele>
        <time>2020-03-16T11:20:52Z</time>
      </trkpt>
      <trkpt lat="45.38629" lon="6.74474">
        <ele>1899.2</ele>
        <time>2020-03-16T11:20:53Z</time>
      </trkpt>
      <trkpt lat="45.38623" lon="6.74471">
        <ele>1893.2</ele>
        <time>2020-03-16T11:20:54Z</time>
      </trkpt>
      <trkpt lat="45.38619" lon="6.74464">
        <ele>1887.7</ele>
        <time>2020-03-16T11:20:55Z</time>
      </trkpt>
      <trkpt lat="45.38618" lon="6.74456">
        <ele>1882.1</ele>
        <time>2020-03-16T11:20:56Z</time>
      </trkpt>
      <trkpt lat="45.38615" lon="6.7445">
        <ele>1877.3</ele>
        <time>2020-03-16T11:20:57Z</time>
      </trkpt>
      <trkpt lat="45.3861" lon="6.74445">
        <ele>1873.1</ele>
        <time>2020-03-16T11:20:58Z</time>
      </trkpt>
      <trkpt lat="45.38607" lon="6.7444">
        <ele>1869.2</ele>
        <time>2020-03-16T11:20:59Z</time>
      </trkpt>
      <trkpt lat="45.38604" lon="6.74429">
        <ele>1863.3</ele>
        <time>2020-03-16T11:21:01Z</time>
      </trkpt>
      <trkpt lat="45.38601" lon="6.74428">
        <ele>1863.1</ele>
        <time>2020-03-16T11:21:02Z</time>
      </trkpt>
      <trkpt lat="45.38595" lon="6.74429">
        <ele>1862.8</ele>
        <time>2020-03-16T11:21:03Z</time>
      </trkpt>
      <trkpt lat="45.38592" lon="6.74428">
        <ele>1862.6</ele>
        <time>2020-03-16T11:21:04Z</time>
      </trkpt>
      <trkpt lat="45.38589" lon="6.74417">
        <ele>1861.7</ele>
        <time>2020-03-16T11:21:07Z</time>
      </trkpt>
      <trkpt lat="45.38587" lon="6.74415">
        <ele>1859.8</ele>
        <time>2020-03-16T11:21:13Z</time>
      </trkpt>
      <trkpt lat="45.38586" lon="6.74416">
        <ele>1859.3</ele>
        <time>2020-03-16T11:21:14Z</time>
      </trkpt>
      <trkpt lat="45.38584" lon="6.74419">
        <ele>1858.8</ele>
        <time>2020-03-16T11:21:15Z</time>
      </trkpt>
      <trkpt lat="45.38578" lon="6.74423">
        <ele>1855</ele>
        <time>2020-03-16T11:21:42Z</time>
      </trkpt>
      <trkpt lat="45.38572" lon="6.74422">
        <ele>1852</ele>
        <time>2020-03-16T11:22:02Z</time>
      </trkpt>
      <trkpt lat="45.3857" lon="6.74425">
        <ele>1850.5</ele>
        <time>2020-03-16T11:22:13Z</time>
      </trkpt>
      <trkpt lat="45.38564" lon="6.74424">
        <ele>1849.2</ele>
        <time>2020-03-16T11:22:15Z</time>
      </trkpt>
      <trkpt lat="45.38561" lon="6.74425">
        <ele>1848.6</ele>
        <time>2020-03-16T11:22:16Z</time>
      </trkpt>
      <trkpt lat="45.38556" lon="6.74426">
        <ele>1842</ele>
        <time>2020-03-16T11:22:18Z</time>
      </trkpt>
      <trkpt lat="45.38546" lon="6.74423">
        <ele>1836.9</ele>
        <time>2020-03-16T11:22:20Z</time>
      </trkpt>
      <trkpt lat="45.38544" lon="6.7442">
        <ele>1836.5</ele>
        <time>2020-03-16T11:22:21Z</time>
      </trkpt>
      <trkpt lat="45.38542" lon="6.7441">
        <ele>1832.2</ele>
        <time>2020-03-16T11:22:24Z</time>
      </trkpt>
      <trkpt lat="45.38539" lon="6.74406">
        <ele>1831.9</ele>
        <time>2020-03-16T11:22:25Z</time>
      </trkpt>
      <trkpt lat="45.38537" lon="6.74401">
        <ele>1829.1</ele>
        <time>2020-03-16T11:22:26Z</time>
      </trkpt>
      <trkpt lat="45.38537" lon="6.74395">
        <ele>1828.9</ele>
        <time>2020-03-16T11:22:27Z</time>
      </trkpt>
      <trkpt lat="45.38535" lon="6.74389">
        <ele>1826.7</ele>
        <time>2020-03-16T11:22:28Z</time>
      </trkpt>
      <trkpt lat="45.38525" lon="6.74377">
        <ele>1823.4</ele>
        <time>2020-03-16T11:22:30Z</time>
      </trkpt>
      <trkpt lat="45.38519" lon="6.74359">
        <ele>1821.1</ele>
        <time>2020-03-16T11:22:32Z</time>
      </trkpt>
      <trkpt lat="45.38498" lon="6.74327">
        <ele>1818.9</ele>
        <time>2020-03-16T11:22:35Z</time>
      </trkpt>
      <trkpt lat="45.38493" lon="6.74316">
        <ele>1818.3</ele>
        <time>2020-03-16T11:22:36Z</time>
      </trkpt>
      <trkpt lat="45.38489" lon="6.74306">
        <ele>1817.7</ele>
        <time>2020-03-16T11:22:37Z</time>
      </trkpt>
      <trkpt lat="45.38484" lon="6.74298">
        <ele>1817.2</ele>
        <time>2020-03-16T11:22:38Z</time>
      </trkpt>
      <trkpt lat="45.38475" lon="6.74279">
        <ele>1816.3</ele>
        <time>2020-03-16T11:22:40Z</time>
      </trkpt>
      <trkpt lat="45.38467" lon="6.74266">
        <ele>1815</ele>
        <time>2020-03-16T11:22:42Z</time>
      </trkpt>
      <trkpt lat="45.38461" lon="6.74253">
        <ele>1813.3</ele>
        <time>2020-03-16T11:22:44Z</time>
      </trkpt>
      <trkpt lat="45.38457" lon="6.74248">
        <ele>1812.4</ele>
        <time>2020-03-16T11:22:45Z</time>
      </trkpt>
      <trkpt lat="45.38452" lon="6.74244">
        <ele>1811.4</ele>
        <time>2020-03-16T11:22:46Z</time>
      </trkpt>
      <trkpt lat="45.38448" lon="6.74237">
        <ele>1810.6</ele>
        <time>2020-03-16T11:22:47Z</time>
      </trkpt>
      <trkpt lat="45.38446" lon="6.7423">
        <ele>1809.7</ele>
        <time>2020-03-16T11:22:48Z</time>
      </trkpt>
      <trkpt lat="45.38439" lon="6.74219">
        <ele>1808.7</ele>
        <time>2020-03-16T11:22:50Z</time>
      </trkpt>
      <trkpt lat="45.38436" lon="6.74207">
        <ele>1806.9</ele>
        <time>2020-03-16T11:22:52Z</time>
      </trkpt>
      <trkpt lat="45.38432" lon="6.74201">
        <ele>1806</ele>
        <time>2020-03-16T11:22:53Z</time>
      </trkpt>
      <trkpt lat="45.38421" lon="6.74196">
        <ele>1804.2</ele>
        <time>2020-03-16T11:22:55Z</time>
      </trkpt>
      <trkpt lat="45.38417" lon="6.74192">
        <ele>1804</ele>
        <time>2020-03-16T11:22:56Z</time>
      </trkpt>
      <trkpt lat="45.38412" lon="6.74181">
        <ele>1801.5</ele>
        <time>2020-03-16T11:22:58Z</time>
      </trkpt>
      <trkpt lat="45.38404" lon="6.74166">
        <ele>1798.8</ele>
        <time>2020-03-16T11:23:01Z</time>
      </trkpt>
      <trkpt lat="45.38403" lon="6.74162">
        <ele>1798.6</ele>
        <time>2020-03-16T11:23:02Z</time>
      </trkpt>
      <trkpt lat="45.38405" lon="6.74157">
        <ele>1796.4</ele>
        <time>2020-03-16T11:23:03Z</time>
      </trkpt>
      <trkpt lat="45.38404" lon="6.7415">
        <ele>1794.4</ele>
        <time>2020-03-16T11:23:04Z</time>
      </trkpt>
      <trkpt lat="45.384" lon="6.74144">
        <ele>1792.5</ele>
        <time>2020-03-16T11:23:05Z</time>
      </trkpt>
      <trkpt lat="45.38394" lon="6.74139">
        <ele>1790.7</ele>
        <time>2020-03-16T11:23:06Z</time>
      </trkpt>
      <trkpt lat="45.3839" lon="6.74134">
        <ele>1789</ele>
        <time>2020-03-16T11:23:07Z</time>
      </trkpt>
      <trkpt lat="45.38387" lon="6.74128">
        <ele>1787.2</ele>
        <time>2020-03-16T11:23:08Z</time>
      </trkpt>
      <trkpt lat="45.38386" lon="6.74119">
        <ele>1785.6</ele>
        <time>2020-03-16T11:23:09Z</time>
      </trkpt>
      <trkpt lat="45.38383" lon="6.74112">
        <ele>1784.3</ele>
        <time>2020-03-16T11:23:10Z</time>
      </trkpt>
      <trkpt lat="45.38379" lon="6.74105">
        <ele>1783.1</ele>
        <time>2020-03-16T11:23:11Z</time>
      </trkpt>
      <trkpt lat="45.38376" lon="6.74096">
        <ele>1782.1</ele>
        <time>2020-03-16T11:23:12Z</time>
      </trkpt>
      <trkpt lat="45.38374" lon="6.74086">
        <ele>1781.2</ele>
        <time>2020-03-16T11:23:13Z</time>
      </trkpt>
      <trkpt lat="45.38368" lon="6.7408">
        <ele>1780.3</ele>
        <time>2020-03-16T11:23:14Z</time>
      </trkpt>
      <trkpt lat="45.38362" lon="6.74071">
        <ele>1779.6</ele>
        <time>2020-03-16T11:23:15Z</time>
      </trkpt>
      <trkpt lat="45.38359" lon="6.7406">
        <ele>1778.9</ele>
        <time>2020-03-16T11:23:16Z</time>
      </trkpt>
      <trkpt lat="45.38357" lon="6.7405">
        <ele>1778.3</ele>
        <time>2020-03-16T11:23:17Z</time>
      </trkpt>
      <trkpt lat="45.38347" lon="6.74036">
        <ele>1777.1</ele>
        <time>2020-03-16T11:23:19Z</time>
      </trkpt>
      <trkpt lat="45.38341" lon="6.74032">
        <ele>1776.4</ele>
        <time>2020-03-16T11:23:20Z</time>
      </trkpt>
      <trkpt lat="45.38336" lon="6.74022">
        <ele>1775.7</ele>
        <time>2020-03-16T11:23:21Z</time>
      </trkpt>
      <trkpt lat="45.38332" lon="6.74014">
        <ele>1775</ele>
        <time>2020-03-16T11:23:22Z</time>
      </trkpt>
      <trkpt lat="45.38326" lon="6.74008">
        <ele>1774.4</ele>
        <time>2020-03-16T11:23:23Z</time>
      </trkpt>
      <trkpt lat="45.3832" lon="6.73991">
        <ele>1773.1</ele>
        <time>2020-03-16T11:23:25Z</time>
      </trkpt>
      <trkpt lat="45.38314" lon="6.73983">
        <ele>1772.3</ele>
        <time>2020-03-16T11:23:26Z</time>
      </trkpt>
      <trkpt lat="45.38308" lon="6.73977">
        <ele>1771.4</ele>
        <time>2020-03-16T11:23:27Z</time>
      </trkpt>
      <trkpt lat="45.38306" lon="6.73968">
        <ele>1770.4</ele>
        <time>2020-03-16T11:23:28Z</time>
      </trkpt>
      <trkpt lat="45.38301" lon="6.7396">
        <ele>1769.2</ele>
        <time>2020-03-16T11:23:29Z</time>
      </trkpt>
      <trkpt lat="45.3829" lon="6.73941">
        <ele>1766.6</ele>
        <time>2020-03-16T11:23:31Z</time>
      </trkpt>
      <trkpt lat="45.38282" lon="6.7392">
        <ele>1763.5</ele>
        <time>2020-03-16T11:23:33Z</time>
      </trkpt>
      <trkpt lat="45.38276" lon="6.7391">
        <ele>1762</ele>
        <time>2020-03-16T11:23:34Z</time>
      </trkpt>
      <trkpt lat="45.3827" lon="6.73899">
        <ele>1760.6</ele>
        <time>2020-03-16T11:23:35Z</time>
      </trkpt>
      <trkpt lat="45.38267" lon="6.73886">
        <ele>1758.9</ele>
        <time>2020-03-16T11:23:36Z</time>
      </trkpt>
      <trkpt lat="45.38261" lon="6.73875">
        <ele>1757.1</ele>
        <time>2020-03-16T11:23:37Z</time>
      </trkpt>
      <trkpt lat="45.38254" lon="6.73865">
        <ele>1753.9</ele>
        <time>2020-03-16T11:23:38Z</time>
      </trkpt>
      <trkpt lat="45.38246" lon="6.73846">
        <ele>1747.4</ele>
        <time>2020-03-16T11:23:40Z</time>
      </trkpt>
      <trkpt lat="45.38236" lon="6.73832">
        <ele>1740.7</ele>
        <time>2020-03-16T11:23:42Z</time>
      </trkpt>
      <trkpt lat="45.3823" lon="6.73816">
        <ele>1734.4</ele>
        <time>2020-03-16T11:23:44Z</time>
      </trkpt>
      <trkpt lat="45.38225" lon="6.7381">
        <ele>1731.6</ele>
        <time>2020-03-16T11:23:45Z</time>
      </trkpt>
      <trkpt lat="45.38221" lon="6.73801">
        <ele>1729</ele>
        <time>2020-03-16T11:23:46Z</time>
      </trkpt>
      <trkpt lat="45.38219" lon="6.73791">
        <ele>1726.6</ele>
        <time>2020-03-16T11:23:47Z</time>
      </trkpt>
      <trkpt lat="45.38217" lon="6.7378">
        <ele>1724.4</ele>
        <time>2020-03-16T11:23:48Z</time>
      </trkpt>
      <trkpt lat="45.38213" lon="6.73769">
        <ele>1722.2</ele>
        <time>2020-03-16T11:23:49Z</time>
      </trkpt>
      <trkpt lat="45.38212" lon="6.73744">
        <ele>1718.4</ele>
        <time>2020-03-16T11:23:51Z</time>
      </trkpt>
      <trkpt lat="45.38205" lon="6.73704">
        <ele>1714</ele>
        <time>2020-03-16T11:23:54Z</time>
      </trkpt>
      <trkpt lat="45.38205" lon="6.7369">
        <ele>1712.7</ele>
        <time>2020-03-16T11:23:55Z</time>
      </trkpt>
      <trkpt lat="45.38201" lon="6.73678">
        <ele>1711.6</ele>
        <time>2020-03-16T11:23:56Z</time>
      </trkpt>
      <trkpt lat="45.38196" lon="6.73665">
        <ele>1710.4</ele>
        <time>2020-03-16T11:23:57Z</time>
      </trkpt>
      <trkpt lat="45.38189" lon="6.73653">
        <ele>1709.2</ele>
        <time>2020-03-16T11:23:58Z</time>
      </trkpt>
      <trkpt lat="45.38185" lon="6.73641">
        <ele>1708.1</ele>
        <time>2020-03-16T11:23:59Z</time>
      </trkpt>
      <trkpt lat="45.38184" lon="6.7363">
        <ele>1706.9</ele>
        <time>2020-03-16T11:24:00Z</time>
      </trkpt>
      <trkpt lat="45.38173" lon="6.73602">
        <ele>1703.6</ele>
        <time>2020-03-16T11:24:03Z</time>
      </trkpt>
      <trkpt lat="45.38171" lon="6.73592">
        <ele>1702.8</ele>
        <time>2020-03-16T11:24:04Z</time>
      </trkpt>
      <trkpt lat="45.3817" lon="6.73579">
        <ele>1702.1</ele>
        <time>2020-03-16T11:24:06Z</time>
      </trkpt>
      <trkpt lat="45.38169" lon="6.73574">
        <ele>1702</ele>
        <time>2020-03-16T11:24:07Z</time>
      </trkpt>
      <trkpt lat="45.38163" lon="6.73542">
        <ele>1701.2</ele>
        <time>2020-03-16T11:24:15Z</time>
      </trkpt>
      <trkpt lat="45.38163" lon="6.73535">
        <ele>1700.9</ele>
        <time>2020-03-16T11:24:17Z</time>
      </trkpt>
      <trkpt lat="45.38162" lon="6.73531">
        <ele>1699.5</ele>
        <time>2020-03-16T11:24:18Z</time>
      </trkpt>
      <trkpt lat="45.38157" lon="6.73509">
        <ele>1695.5</ele>
        <time>2020-03-16T11:24:22Z</time>
      </trkpt>
      <trkpt lat="45.3815" lon="6.73499">
        <ele>1693.9</ele>
        <time>2020-03-16T11:24:24Z</time>
      </trkpt>
      <trkpt lat="45.38145" lon="6.73486">
        <ele>1692.4</ele>
        <time>2020-03-16T11:24:26Z</time>
      </trkpt>
      <trkpt lat="45.38141" lon="6.73479">
        <ele>1691.6</ele>
        <time>2020-03-16T11:24:27Z</time>
      </trkpt>
      <trkpt lat="45.38136" lon="6.73474">
        <ele>1690.8</ele>
        <time>2020-03-16T11:24:28Z</time>
      </trkpt>
      <trkpt lat="45.38132" lon="6.73461">
        <ele>1689.1</ele>
        <time>2020-03-16T11:24:30Z</time>
      </trkpt>
      <trkpt lat="45.38128" lon="6.73455">
        <ele>1688.3</ele>
        <time>2020-03-16T11:24:31Z</time>
      </trkpt>
      <trkpt lat="45.38122" lon="6.73453">
        <ele>1687.6</ele>
        <time>2020-03-16T11:24:32Z</time>
      </trkpt>
      <trkpt lat="45.38119" lon="6.73447">
        <ele>1686.8</ele>
        <time>2020-03-16T11:24:33Z</time>
      </trkpt>
      <trkpt lat="45.38114" lon="6.73433">
        <ele>1685.2</ele>
        <time>2020-03-16T11:24:35Z</time>
      </trkpt>
      <trkpt lat="45.38104" lon="6.73421">
        <ele>1683.6</ele>
        <time>2020-03-16T11:24:37Z</time>
      </trkpt>
      <trkpt lat="45.38103" lon="6.73412">
        <ele>1682.8</ele>
        <time>2020-03-16T11:24:38Z</time>
      </trkpt>
      <trkpt lat="45.38101" lon="6.73405">
        <ele>1682.7</ele>
        <time>2020-03-16T11:24:39Z</time>
      </trkpt>
      <trkpt lat="45.38098" lon="6.734">
        <ele>1681.7</ele>
        <time>2020-03-16T11:24:40Z</time>
      </trkpt>
      <trkpt lat="45.38095" lon="6.73384">
        <ele>1679.8</ele>
        <time>2020-03-16T11:24:42Z</time>
      </trkpt>
      <trkpt lat="45.38091" lon="6.73378">
        <ele>1679</ele>
        <time>2020-03-16T11:24:43Z</time>
      </trkpt>
      <trkpt lat="45.38087" lon="6.73374">
        <ele>1678.2</ele>
        <time>2020-03-16T11:24:44Z</time>
      </trkpt>
      <trkpt lat="45.38084" lon="6.73366">
        <ele>1677.6</ele>
        <time>2020-03-16T11:24:45Z</time>
      </trkpt>
      <trkpt lat="45.38082" lon="6.73356">
        <ele>1677</ele>
        <time>2020-03-16T11:24:46Z</time>
      </trkpt>
      <trkpt lat="45.38076" lon="6.73347">
        <ele>1676.5</ele>
        <time>2020-03-16T11:24:47Z</time>
      </trkpt>
      <trkpt lat="45.38069" lon="6.73338">
        <ele>1676</ele>
        <time>2020-03-16T11:24:48Z</time>
      </trkpt>
      <trkpt lat="45.38065" lon="6.73326">
        <ele>1675.6</ele>
        <time>2020-03-16T11:24:49Z</time>
      </trkpt>
      <trkpt lat="45.38064" lon="6.73316">
        <ele>1675.1</ele>
        <time>2020-03-16T11:24:50Z</time>
      </trkpt>
      <trkpt lat="45.38061" lon="6.73307">
        <ele>1674.5</ele>
        <time>2020-03-16T11:24:51Z</time>
      </trkpt>
      <trkpt lat="45.38055" lon="6.733">
        <ele>1673.7</ele>
        <time>2020-03-16T11:24:52Z</time>
      </trkpt>
      <trkpt lat="45.38051" lon="6.73293">
        <ele>1672.7</ele>
        <time>2020-03-16T11:24:53Z</time>
      </trkpt>
      <trkpt lat="45.38052" lon="6.73285">
        <ele>1671.7</ele>
        <time>2020-03-16T11:24:54Z</time>
      </trkpt>
      <trkpt lat="45.38049" lon="6.73278">
        <ele>1670.8</ele>
        <time>2020-03-16T11:24:55Z</time>
      </trkpt>
      <trkpt lat="45.38043" lon="6.73272">
        <ele>1670.1</ele>
        <time>2020-03-16T11:24:56Z</time>
      </trkpt>
      <trkpt lat="45.38041" lon="6.73263">
        <ele>1669.4</ele>
        <time>2020-03-16T11:24:57Z</time>
      </trkpt>
      <trkpt lat="45.3804" lon="6.73253">
        <ele>1668.7</ele>
        <time>2020-03-16T11:24:58Z</time>
      </trkpt>
      <trkpt lat="45.38037" lon="6.73246">
        <ele>1668</ele>
        <time>2020-03-16T11:24:59Z</time>
      </trkpt>
      <trkpt lat="45.38032" lon="6.73239">
        <ele>1667.1</ele>
        <time>2020-03-16T11:25:00Z</time>
      </trkpt>
      <trkpt lat="45.38033" lon="6.73231">
        <ele>1666</ele>
        <time>2020-03-16T11:25:01Z</time>
      </trkpt>
      <trkpt lat="45.38032" lon="6.73222">
        <ele>1664.8</ele>
        <time>2020-03-16T11:25:02Z</time>
      </trkpt>
      <trkpt lat="45.38025" lon="6.73215">
        <ele>1663.6</ele>
        <time>2020-03-16T11:25:03Z</time>
      </trkpt>
      <trkpt lat="45.38021" lon="6.73204">
        <ele>1662.3</ele>
        <time>2020-03-16T11:25:04Z</time>
      </trkpt>
      <trkpt lat="45.38017" lon="6.73187">
        <ele>1660.2</ele>
        <time>2020-03-16T11:25:06Z</time>
      </trkpt>
      <trkpt lat="45.38012" lon="6.73179">
        <ele>1659.5</ele>
        <time>2020-03-16T11:25:07Z</time>
      </trkpt>
      <trkpt lat="45.38008" lon="6.73171">
        <ele>1658.8</ele>
        <time>2020-03-16T11:25:08Z</time>
      </trkpt>
      <trkpt lat="45.38006" lon="6.73154">
        <ele>1657.5</ele>
        <time>2020-03-16T11:25:10Z</time>
      </trkpt>
      <trkpt lat="45.37997" lon="6.73139">
        <ele>1652.9</ele>
        <time>2020-03-16T11:25:12Z</time>
      </trkpt>
      <trkpt lat="45.37996" lon="6.7313">
        <ele>1649.9</ele>
        <time>2020-03-16T11:25:13Z</time>
      </trkpt>
      <trkpt lat="45.37997" lon="6.73122">
        <ele>1646.8</ele>
        <time>2020-03-16T11:25:14Z</time>
      </trkpt>
      <trkpt lat="45.37993" lon="6.73113">
        <ele>1641.7</ele>
        <time>2020-03-16T11:25:16Z</time>
      </trkpt>
      <trkpt lat="45.37989" lon="6.73109">
        <ele>1638.8</ele>
        <time>2020-03-16T11:25:17Z</time>
      </trkpt>
      <trkpt lat="45.37991" lon="6.73102">
        <ele>1635.5</ele>
        <time>2020-03-16T11:25:18Z</time>
      </trkpt>
      <trkpt lat="45.37994" lon="6.73085">
        <ele>1633.6</ele>
        <time>2020-03-16T11:25:22Z</time>
      </trkpt>
      <trkpt lat="45.37993" lon="6.73082">
        <ele>1630</ele>
        <time>2020-03-16T11:25:35Z</time>
      </trkpt>
      <trkpt lat="45.37989" lon="6.73083">
        <ele>1629.5</ele>
        <time>2020-03-16T11:25:36Z</time>
      </trkpt>
      <trkpt lat="45.37986" lon="6.73081">
        <ele>1625.1</ele>
        <time>2020-03-16T11:25:37Z</time>
      </trkpt>
      <trkpt lat="45.37985" lon="6.73077">
        <ele>1624.8</ele>
        <time>2020-03-16T11:25:38Z</time>
      </trkpt>
      <trkpt lat="45.37985" lon="6.73074">
        <ele>1624.4</ele>
        <time>2020-03-16T11:25:39Z</time>
      </trkpt>
      <trkpt lat="45.37985" lon="6.73074">
        <ele>1624</ele>
        <time>2020-03-16T11:25:40Z</time>
      </trkpt>
      <trkpt lat="45.37988" lon="6.73071">
        <ele>1621.7</ele>
        <time>2020-03-16T11:26:04Z</time>
      </trkpt>
      <trkpt lat="45.37989" lon="6.73068">
        <ele>1621.4</ele>
        <time>2020-03-16T11:26:05Z</time>
      </trkpt>
      <trkpt lat="45.37989" lon="6.73065">
        <ele>1621.1</ele>
        <time>2020-03-16T11:26:06Z</time>
      </trkpt>
      <trkpt lat="45.37985" lon="6.73061">
        <ele>1620.4</ele>
        <time>2020-03-16T11:26:08Z</time>
      </trkpt>
      <trkpt lat="45.37987" lon="6.73057">
        <ele>1615.8</ele>
        <time>2020-03-16T11:26:28Z</time>
      </trkpt>
      <trkpt lat="45.37987" lon="6.73054">
        <ele>1615.3</ele>
        <time>2020-03-16T11:26:29Z</time>
      </trkpt>
      <trkpt lat="45.37984" lon="6.73052">
        <ele>1614.8</ele>
        <time>2020-03-16T11:26:30Z</time>
      </trkpt>
      <trkpt lat="45.37982" lon="6.73047">
        <ele>1614.2</ele>
        <time>2020-03-16T11:26:31Z</time>
      </trkpt>
      <trkpt lat="45.37984" lon="6.73042">
        <ele>1609</ele>
        <time>2020-03-16T11:26:32Z</time>
      </trkpt>
      <trkpt lat="45.37988" lon="6.73035">
        <ele>1604.7</ele>
        <time>2020-03-16T11:26:33Z</time>
      </trkpt>
      <trkpt lat="45.37988" lon="6.73028">
        <ele>1601.3</ele>
        <time>2020-03-16T11:26:34Z</time>
      </trkpt>
      <trkpt lat="45.37984" lon="6.73017">
        <ele>1600.8</ele>
        <time>2020-03-16T11:26:36Z</time>
      </trkpt>
      <trkpt lat="45.37986" lon="6.73012">
        <ele>1598.1</ele>
        <time>2020-03-16T11:26:37Z</time>
      </trkpt>
      <trkpt lat="45.37986" lon="6.73004">
        <ele>1596</ele>
        <time>2020-03-16T11:26:38Z</time>
      </trkpt>
      <trkpt lat="45.37984" lon="6.72992">
        <ele>1594.2</ele>
        <time>2020-03-16T11:26:39Z</time>
      </trkpt>
      <trkpt lat="45.37984" lon="6.7298">
        <ele>1592.8</ele>
        <time>2020-03-16T11:26:40Z</time>
      </trkpt>
      <trkpt lat="45.37986" lon="6.72972">
        <ele>1591.6</ele>
        <time>2020-03-16T11:26:41Z</time>
      </trkpt>
      <trkpt lat="45.37981" lon="6.72958">
        <ele>1589.9</ele>
        <time>2020-03-16T11:26:43Z</time>
      </trkpt>
      <trkpt lat="45.3798" lon="6.72951">
        <ele>1589.8</ele>
        <time>2020-03-16T11:26:44Z</time>
      </trkpt>
      <trkpt lat="45.37983" lon="6.72947">
        <ele>1589.2</ele>
        <time>2020-03-16T11:26:45Z</time>
      </trkpt>
      <trkpt lat="45.37981" lon="6.72935">
        <ele>1588.7</ele>
        <time>2020-03-16T11:26:46Z</time>
      </trkpt>
      <trkpt lat="45.3798" lon="6.72923">
        <ele>1588.2</ele>
        <time>2020-03-16T11:26:47Z</time>
      </trkpt>
      <trkpt lat="45.37984" lon="6.7291">
        <ele>1587.7</ele>
        <time>2020-03-16T11:26:48Z</time>
      </trkpt>
      <trkpt lat="45.37991" lon="6.72897">
        <ele>1587.3</ele>
        <time>2020-03-16T11:26:49Z</time>
      </trkpt>
      <trkpt lat="45.37999" lon="6.7287">
        <ele>1586.5</ele>
        <time>2020-03-16T11:26:51Z</time>
      </trkpt>
      <trkpt lat="45.38009" lon="6.72858">
        <ele>1586.2</ele>
        <time>2020-03-16T11:26:52Z</time>
      </trkpt>
      <trkpt lat="45.38022" lon="6.72833">
        <ele>1585.4</ele>
        <time>2020-03-16T11:26:54Z</time>
      </trkpt>
      <trkpt lat="45.38032" lon="6.7283">
        <ele>1584.7</ele>
        <time>2020-03-16T11:26:55Z</time>
      </trkpt>
      <trkpt lat="45.3804" lon="6.72821">
        <ele>1583.9</ele>
        <time>2020-03-16T11:26:56Z</time>
      </trkpt>
      <trkpt lat="45.38048" lon="6.72792">
        <ele>1581.1</ele>
        <time>2020-03-16T11:26:58Z</time>
      </trkpt>
      <trkpt lat="45.38053" lon="6.72783">
        <ele>1578.8</ele>
        <time>2020-03-16T11:26:59Z</time>
      </trkpt>
      <trkpt lat="45.38059" lon="6.72772">
        <ele>1576.3</ele>
        <time>2020-03-16T11:27:00Z</time>
      </trkpt>
      <trkpt lat="45.38063" lon="6.72763">
        <ele>1574</ele>
        <time>2020-03-16T11:27:01Z</time>
      </trkpt>
      <trkpt lat="45.38069" lon="6.72758">
        <ele>1571.8</ele>
        <time>2020-03-16T11:27:02Z</time>
      </trkpt>
      <trkpt lat="45.38077" lon="6.72757">
        <ele>1569.5</ele>
        <time>2020-03-16T11:27:04Z</time>
      </trkpt>
      <trkpt lat="45.38081" lon="6.72752">
        <ele>1560.5</ele>
        <time>2020-03-16T11:27:07Z</time>
      </trkpt>
      <trkpt lat="45.38086" lon="6.72752">
        <ele>1559.5</ele>
        <time>2020-03-16T11:27:09Z</time>
      </trkpt>
      <trkpt lat="45.38087" lon="6.72746">
        <ele>1553.5</ele>
        <time>2020-03-16T11:27:10Z</time>
      </trkpt>
      <trkpt lat="45.38089" lon="6.72737">
        <ele>1548.5</ele>
        <time>2020-03-16T11:27:11Z</time>
      </trkpt>
      <trkpt lat="45.38096" lon="6.72729">
        <ele>1543.6</ele>
        <time>2020-03-16T11:27:13Z</time>
      </trkpt>
      <trkpt lat="45.38099" lon="6.72732">
        <ele>1539.1</ele>
        <time>2020-03-16T11:27:15Z</time>
      </trkpt>
      <trkpt lat="45.38092" lon="6.72723">
        <ele>1533.1</ele>
        <time>2020-03-16T11:27:17Z</time>
      </trkpt>
      <trkpt lat="45.38091" lon="6.72718">
        <ele>1530.9</ele>
        <time>2020-03-16T11:27:18Z</time>
      </trkpt>
      <trkpt lat="45.38098" lon="6.72715">
        <ele>1528.5</ele>
        <time>2020-03-16T11:27:20Z</time>
      </trkpt>
      <trkpt lat="45.38101" lon="6.72708">
        <ele>1528.3</ele>
        <time>2020-03-16T11:27:21Z</time>
      </trkpt>
      <trkpt lat="45.381" lon="6.72703">
        <ele>1528.1</ele>
        <time>2020-03-16T11:27:22Z</time>
      </trkpt>
      <trkpt lat="45.38096" lon="6.72696">
        <ele>1525.9</ele>
        <time>2020-03-16T11:27:23Z</time>
      </trkpt>
      <trkpt lat="45.38093" lon="6.72687">
        <ele>1524.1</ele>
        <time>2020-03-16T11:27:24Z</time>
      </trkpt>
      <trkpt lat="45.38094" lon="6.72679">
        <ele>1522.3</ele>
        <time>2020-03-16T11:27:25Z</time>
      </trkpt>
      <trkpt lat="45.38097" lon="6.72674">
        <ele>1520.6</ele>
        <time>2020-03-16T11:27:26Z</time>
      </trkpt>
      <trkpt lat="45.38096" lon="6.72665">
        <ele>1519.1</ele>
        <time>2020-03-16T11:27:27Z</time>
      </trkpt>
      <trkpt lat="45.38087" lon="6.72647">
        <ele>1516.8</ele>
        <time>2020-03-16T11:27:29Z</time>
      </trkpt>
      <trkpt lat="45.38084" lon="6.72637">
        <ele>1516</ele>
        <time>2020-03-16T11:27:30Z</time>
      </trkpt>
      <trkpt lat="45.3808" lon="6.72625">
        <ele>1515</ele>
        <time>2020-03-16T11:27:31Z</time>
      </trkpt>
      <trkpt lat="45.38074" lon="6.72615">
        <ele>1513.9</ele>
        <time>2020-03-16T11:27:32Z</time>
      </trkpt>
      <trkpt lat="45.38071" lon="6.72605">
        <ele>1512.6</ele>
        <time>2020-03-16T11:27:33Z</time>
      </trkpt>
      <trkpt lat="45.38062" lon="6.72586">
        <ele>1510.1</ele>
        <time>2020-03-16T11:27:35Z</time>
      </trkpt>
      <trkpt lat="45.38059" lon="6.72577">
        <ele>1508.7</ele>
        <time>2020-03-16T11:27:36Z</time>
      </trkpt>
      <trkpt lat="45.38057" lon="6.72568">
        <ele>1507.3</ele>
        <time>2020-03-16T11:27:37Z</time>
      </trkpt>
      <trkpt lat="45.38053" lon="6.72557">
        <ele>1505.8</ele>
        <time>2020-03-16T11:27:38Z</time>
      </trkpt>
      <trkpt lat="45.38048" lon="6.72546">
        <ele>1504.4</ele>
        <time>2020-03-16T11:27:39Z</time>
      </trkpt>
      <trkpt lat="45.38049" lon="6.72533">
        <ele>1502.9</ele>
        <time>2020-03-16T11:27:40Z</time>
      </trkpt>
      <trkpt lat="45.38046" lon="6.72522">
        <ele>1501.3</ele>
        <time>2020-03-16T11:27:41Z</time>
      </trkpt>
      <trkpt lat="45.3804" lon="6.72512">
        <ele>1500</ele>
        <time>2020-03-16T11:27:42Z</time>
      </trkpt>
      <trkpt lat="45.38036" lon="6.72501">
        <ele>1498.8</ele>
        <time>2020-03-16T11:27:43Z</time>
      </trkpt>
      <trkpt lat="45.38035" lon="6.72489">
        <ele>1497.8</ele>
        <time>2020-03-16T11:27:44Z</time>
      </trkpt>
      <trkpt lat="45.38027" lon="6.72473">
        <ele>1495.3</ele>
        <time>2020-03-16T11:27:46Z</time>
      </trkpt>
      <trkpt lat="45.38025" lon="6.72465">
        <ele>1493.5</ele>
        <time>2020-03-16T11:27:47Z</time>
      </trkpt>
      <trkpt lat="45.38021" lon="6.72462">
        <ele>1493.4</ele>
        <time>2020-03-16T11:27:48Z</time>
      </trkpt>
      <trkpt lat="45.38018" lon="6.72462">
        <ele>1493.2</ele>
        <time>2020-03-16T11:27:49Z</time>
      </trkpt>
      <trkpt lat="45.38016" lon="6.72465">
        <ele>1492.9</ele>
        <time>2020-03-16T11:27:50Z</time>
      </trkpt>
      <trkpt lat="45.38016" lon="6.72465">
        <ele>1492.7</ele>
        <time>2020-03-16T11:27:51Z</time>
      </trkpt>
      <trkpt lat="45.38012" lon="6.72483">
        <ele>1489.3</ele>
        <time>2020-03-16T11:28:09Z</time>
      </trkpt>
      <trkpt lat="45.38012" lon="6.7248">
        <ele>1461.6</ele>
        <time>2020-03-16T11:29:01Z</time>
      </trkpt>
      <trkpt lat="45.38014" lon="6.72473">
        <ele>1461.2</ele>
        <time>2020-03-16T11:29:08Z</time>
      </trkpt>
      <trkpt lat="45.38014" lon="6.72472">
        <ele>1461.1</ele>
        <time>2020-03-16T11:29:09Z</time>
      </trkpt>
      <trkpt lat="45.38016" lon="6.72461">
        <ele>1460.7</ele>
        <time>2020-03-16T11:29:16Z</time>
      </trkpt>
      <trkpt lat="45.38015" lon="6.72456">
        <ele>1460.2</ele>
        <time>2020-03-16T11:29:25Z</time>
      </trkpt>
    </trkseg>
  </trk>
</gpx>